Date StartTime U_cm/s V_cm/s W_cm/s Ustd_cm/s Vstd_cm/s Wstd_cm/s Uvar_(cm/s)^2 Vvar_(cm/s)^2 Wvar_(cm/s)^2 KE_(m/s)^2 TurbulentKE_(m/s)^2 HorizWindSpeed_cm/s FrictionSpeec_cm/s DragCoef SpeedOfSound_m/s SonicTemperature_C Pressure_mb 
04/24/2013  00:00:00      -72.018      -53.736       -0.888       37.809       41.261       31.157     1429.528     1702.449      970.773        0.609        0.205       89.856       22.895        0.065      337.362        9.285      860.532
04/24/2013  00:01:00     -140.920      -40.002       -5.452       63.003       40.992       26.983     3969.396     1680.367      728.088        1.393        0.319      146.488       18.627        0.016      337.354        9.272      860.530
04/24/2013  00:02:00     -126.209      -25.577       -6.102       39.524       34.188       26.900     1562.164     1168.852      723.627        1.004        0.173      128.775       23.671        0.034      337.248        9.094      860.531
04/24/2013  00:03:00     -189.810      -49.834       -7.620       40.936       36.861       23.183     1675.756     1358.701      537.451        2.107        0.179      196.243       18.499        0.009      337.166        8.955      860.527
04/24/2013  00:04:00     -153.792      -20.253       -3.087       46.025       31.999       23.001     2118.333     1023.960      529.029        1.387        0.184      155.120       25.673        0.027      337.090        8.830      860.523
04/24/2013  00:05:00     -167.315      -37.658       -9.073       47.790       36.818       19.961     2283.846     1355.556      398.422        1.677        0.202      171.501       19.367        0.013      337.129        8.894      860.518
04/24/2013  00:06:00     -163.865      -32.449      -13.954       31.017       37.536       21.895      962.065     1408.966      479.399        1.547        0.143      167.047       14.759        0.008      337.114        8.870      860.507
04/24/2013  00:07:00     -109.671      -21.910       -5.194       36.290       51.454       22.974     1316.976     2647.543      527.794        0.851        0.225      111.838       18.392        0.027      337.090        8.829      860.501
04/24/2013  00:08:00     -114.294      -62.178       -1.857       40.347       37.167       21.906     1627.914     1381.412      479.872        1.021        0.174      130.112       13.474        0.011      337.106        8.856      860.500
04/24/2013  00:09:00     -131.906      -79.660       -4.637       32.751       38.440       23.801     1072.595     1477.659      566.506        1.344        0.156      154.094       16.780        0.012      337.073        8.800      860.498
04/24/2013  00:10:00     -124.256      -67.188       -5.109       34.276       38.438       20.392     1174.858     1477.486      415.815        1.152        0.153      141.258       17.162        0.015      337.175        8.972      860.504
04/24/2013  00:11:00     -146.018      -61.369      -15.453       26.666       25.415       18.203      711.082      645.946      331.352        1.351        0.084      158.390       12.910        0.007      337.168        8.960      860.521
04/24/2013  00:12:00     -178.466      -36.461      -10.871       30.385       35.436       20.201      923.247     1255.694      408.078        1.794        0.129      182.152       15.221        0.007      337.062        8.781      860.515
04/24/2013  00:13:00     -158.833      -37.662      -10.356       28.842       33.480       20.011      831.836     1120.877      400.444        1.455        0.118      163.237       13.173        0.007      337.069        8.794      860.513
04/24/2013  00:14:00     -151.691        1.766      -10.746       40.945       37.948       22.176     1676.512     1440.065      491.762        1.337        0.180      151.702       14.835        0.010      336.978        8.641      860.520
04/24/2013  00:15:00     -165.166        8.491      -22.184       37.152       53.089       29.442     1380.249     2818.408      866.803        1.645        0.253      165.384       17.981        0.012      336.895        8.503      860.530
04/24/2013  00:16:00     -199.535       36.615      -24.308       48.050       40.146       27.960     2308.801     1611.719      781.781        2.322        0.235      202.867       16.373        0.007      336.955        8.601      860.554
04/24/2013  00:17:00     -137.873       14.547      -14.276       64.973       50.064       27.272     4221.470     2506.421      743.771        1.345        0.374      138.638       33.929        0.060      336.902        8.514      860.574
04/24/2013  00:18:00     -120.113      -15.725      -14.724       37.705       54.436       27.286     1421.679     2963.268      744.526        1.001        0.256      121.138       25.662        0.045      336.863        8.450      860.607
04/24/2013  00:19:00      -81.631      -55.438       -4.699       34.572       37.856       26.986     1195.240     1433.095      728.254        0.656        0.168       98.676       10.713        0.012      336.850        8.428      860.630
04/24/2013  00:20:00      -88.691       -6.964      -11.734       35.664       54.079       26.192     1271.947     2924.568      686.046        0.647        0.244       88.964       16.003        0.032      336.825        8.387      860.647
04/24/2013  00:21:00     -120.039      -28.971       -5.073       39.129       31.828       17.330     1531.042     1012.995      300.315        0.906        0.142      123.486       15.972        0.017      336.747        8.259      860.663
04/24/2013  00:22:00      -86.037      -35.977       -0.009       34.331       29.172       18.226     1178.633      850.982      332.204        0.553        0.118       93.256       18.906        0.041      336.783        8.317      860.674
04/24/2013  00:23:00      -31.667      -28.140        5.265       34.028       21.004       13.196     1157.872      441.160      174.127        0.180        0.089       42.364       18.871        0.198      336.719        8.212      860.686
04/24/2013  00:24:00      -63.955      -39.934       -8.364       43.334       21.408       13.387     1877.852      458.310      179.215        0.413        0.126       75.399       17.106        0.051      336.742        8.250      860.684
04/24/2013  00:25:00     -101.703      -48.943       -4.794       33.777       26.751       16.996     1140.863      715.630      288.876        0.745        0.107      112.867       14.648        0.017      336.740        8.246      860.698
04/24/2013  00:26:00      -73.607      -48.659       -5.297       35.206       25.021       17.328     1239.488      626.064      300.270        0.499        0.108       88.236       17.593        0.040      336.808        8.359      860.700
04/24/2013  00:27:00      -16.595      -30.576       12.291       42.758       26.546       25.786     1828.223      704.666      664.901        0.228        0.160       34.789       31.282        0.809      336.819        8.378      860.707
04/24/2013  00:28:00     -110.014      -35.640       -8.878       18.994       23.357       13.731      360.766      545.538      188.553        0.727        0.055      115.643        5.008        0.002      336.748        8.259      860.710
04/24/2013  00:29:00     -106.664      -25.567      -14.737       19.261       22.150       12.739      370.996      490.602      162.286        0.664        0.051      109.686        6.106        0.003      336.709        8.194      860.722
04/24/2013  00:30:00     -108.470      -41.762      -10.466       33.704       21.636       15.654     1135.963      468.098      245.036        0.773        0.092      116.232        8.120        0.005      336.650        8.095      860.728
04/24/2013  00:31:00      -91.118      -21.125      -11.271       31.205       19.406       17.483      973.740      376.581      305.654        0.527        0.083       93.534       17.089        0.033      336.617        8.040      860.736
04/24/2013  00:32:00      -89.432      -14.495       -3.566       31.437       24.212       15.686      988.255      586.215      246.040        0.502        0.091       90.599       12.856        0.020      336.561        7.947      860.737
04/24/2013  00:33:00     -146.918       -7.095      -15.934       34.891       22.071       17.411     1217.399      487.123      303.141        1.195        0.100      147.089       18.212        0.015      336.537        7.906      860.732
04/24/2013  00:34:00      -81.456      -47.309      -12.617       45.127       34.541       16.688     2036.426     1193.067      278.474        0.627        0.175       94.198       15.928        0.029      336.454        7.766      860.740
04/24/2013  00:35:00      -88.737      -26.718      -10.411       30.567       28.745       16.595      934.330      826.279      275.392        0.537        0.102       92.672       10.438        0.013      336.543        7.916      860.727
04/24/2013  00:36:00     -109.999      -25.803      -10.962       53.805       38.379       21.937     2895.009     1472.920      481.243        0.887        0.242      112.985       25.848        0.052      336.547        7.922      860.726
04/24/2013  00:37:00     -157.200       -5.111      -15.171       25.208       30.708       20.344      635.468      943.002      413.885        1.348        0.100      157.283       13.873        0.008      336.542        7.914      860.717
04/24/2013  00:38:00      -81.510      -26.167       -2.465       33.767       33.328       20.898     1140.233     1110.726      436.737        0.501        0.134       85.607       18.014        0.044      336.589        7.994      860.719
04/24/2013  00:39:00     -127.858       -6.198      -14.881       44.495       36.871       21.139     1979.791     1359.436      446.876        1.020        0.189      128.009       16.008        0.016      336.565        7.953      860.720
04/24/2013  00:40:00      -39.796       -5.893        4.104       36.663       34.437       21.720     1344.171     1185.883      471.738        0.232        0.150       40.230       20.579        0.262      336.536        7.905      860.738
04/24/2013  00:41:00      -34.471       -2.199       -9.356       22.913       17.714       16.582      525.025      313.773      274.954        0.120        0.056       34.541       12.416        0.129      336.591        7.997      860.738
04/24/2013  00:42:00      -29.155      -12.082      -11.162       25.441       23.260       13.163      647.222      541.018      173.255        0.124        0.068       31.559        8.626        0.075      336.655        8.102      860.753
04/24/2013  00:43:00      -49.877      -18.072      -13.232       29.431       24.874       14.479      866.177      618.708      209.628        0.234        0.085       53.050        9.432        0.032      336.680        8.145      860.752
04/24/2013  00:44:00      -53.528       -0.571       -9.128       21.082       19.254       12.351      444.466      370.698      152.558        0.196        0.048       53.531        9.053        0.029      336.662        8.115      860.758
04/24/2013  00:45:00      -55.396      -16.114       -4.613       23.095       15.379       14.697      533.365      236.518      216.005        0.217        0.049       57.692       14.236        0.061      336.717        8.207      860.758
04/24/2013  00:46:00      -73.087       -4.944       -9.737       23.252       17.399       13.264      540.640      302.742      175.939        0.324        0.051       73.254       12.179        0.028      336.754        8.269      860.773
04/24/2013  00:47:00      -91.541       -7.570      -12.016       21.831       12.268       14.525      476.581      150.493      210.965        0.471        0.042       91.854       11.066        0.015      336.691        8.164      860.779
04/24/2013  00:48:00     -100.798       -4.501      -15.407       21.498       13.958       12.550      462.167      194.826      157.497        0.562        0.041      100.898        7.764        0.006      336.733        8.235      860.781
04/24/2013  00:49:00      -92.236      -11.154       -6.982       21.279       18.773       13.096      452.793      352.436      171.515        0.483        0.049       92.908        5.584        0.004      336.727        8.225      860.776
04/24/2013  00:50:00      -88.952      -36.012      -13.842       16.000       14.738       12.009      256.011      217.204      144.208        0.501        0.031       95.966        8.407        0.008      336.751        8.264      860.787
04/24/2013  00:51:00      -58.071      -31.687       -3.869       23.969       20.151       16.159      574.508      406.058      261.111        0.282        0.062       66.154       13.268        0.040      336.693        8.168      860.770
04/24/2013  00:52:00      -49.911      -18.982       -6.984       17.764       17.275       10.843      315.571      298.440      117.580        0.182        0.037       53.399        7.999        0.022      336.806        8.354      860.764
04/24/2013  00:53:00      -27.942      -28.864        4.705       25.335       25.133       17.483      641.862      631.689      305.668        0.161        0.079       40.173       17.098        0.181      336.745        8.254      860.755
04/24/2013  00:54:00      -52.371      -33.460       -5.570       27.501       22.108       17.034      756.279      488.748      290.168        0.271        0.077       62.148       13.868        0.050      336.771        8.297      860.758
04/24/2013  00:55:00      -35.913      -35.393        0.759       30.050       16.902       19.418      902.989      285.661      377.065        0.205        0.078       50.422       18.418        0.133      336.720        8.214      860.769
04/24/2013  00:56:00      -49.513      -33.154       -7.183       21.567       11.519       13.052      465.138      132.680      170.366        0.219        0.038       59.588       14.076        0.056      336.747        8.257      860.771
04/24/2013  00:57:00      -53.728      -36.479       -6.038       16.108       11.352       10.570      259.464      128.868      111.725        0.238        0.025       64.941        9.503        0.021      336.777        8.307      860.787
04/24/2013  00:58:00      -67.060      -23.781       -9.868       10.676       10.431       10.012      113.986      108.816      100.234        0.274        0.016       71.152        7.225        0.010      336.785        8.320      860.788
04/24/2013  00:59:00      -65.487      -30.777      -12.032       10.177        7.823        7.505      103.569       61.200       56.318        0.280        0.011       72.359        3.087        0.002      336.810        8.361      860.787
04/24/2013  01:00:00      -58.146      -30.108      -10.223       14.484       13.118        8.913      209.789      172.073       79.447        0.243        0.023       65.478        5.033        0.006      336.789        8.327      860.798
04/24/2013  01:01:00      -42.436      -31.011       -7.713       11.719        8.584        7.946      137.345       73.681       63.144        0.155        0.014       52.560        5.683        0.012      336.816        8.372      860.789
04/24/2013  01:02:00      -47.291      -14.051       -7.997        7.787       12.966        7.559       60.642      168.130       57.145        0.139        0.014       49.334        3.481        0.005      336.844        8.419      860.793
04/24/2013  01:03:00      -48.367        1.989       -3.606       13.039        9.360        8.256      170.025       87.601       68.162        0.134        0.016       48.407        7.866        0.026      336.821        8.381      860.800
04/24/2013  01:04:00      -42.447       -6.341       -5.338       19.634       17.091        9.552      385.508      292.086       91.249        0.132        0.038       42.918        7.188        0.028      336.848        8.426      860.800
04/24/2013  01:05:00      -56.069      -15.142       -2.582       14.611       13.501        7.927      213.487      182.266       62.843        0.192        0.023       58.077        8.149        0.020      336.788        8.325      860.806
04/24/2013  01:06:00      -33.427      -13.970        3.549       25.004       16.602       12.395      625.203      275.624      153.641        0.119        0.053       36.229       12.684        0.123      336.704        8.186      860.822
04/24/2013  01:07:00      -31.838      -24.830       -0.471       19.730       14.355       11.477      389.268      206.077      131.715        0.118        0.036       40.376        6.975        0.030      336.755        8.270      860.825
04/24/2013  01:08:00      -27.544       -6.098       -9.048       10.263        7.690       14.715      105.328       59.144      216.524        0.063        0.019       28.211        7.590        0.072      336.632        8.066      860.824
04/24/2013  01:09:00      -16.119      -10.326      -13.450       12.441       10.496        5.387      154.776      110.160       29.017        0.042        0.015       19.142        2.712        0.020      336.641        8.080      860.837
04/24/2013  01:10:00      -19.330       -5.134       -4.610       10.749        7.440        6.549      115.548       55.350       42.890        0.032        0.011       20.000        5.865        0.086      336.622        8.052      860.830
04/24/2013  01:11:00      -48.781       -6.620       -2.625       15.483        9.066       10.128      239.738       82.187      102.580        0.143        0.021       49.228        1.760        0.001      336.666        8.122      860.820
04/24/2013  01:12:00      -38.530      -33.945       -2.117       32.576       20.532       11.726     1061.177      421.573      137.493        0.213        0.081       51.350       11.727        0.052      336.545        7.919      860.821
04/24/2013  01:13:00      -50.232      -37.130       -2.361       23.103       15.991       11.724      533.757      255.702      137.447        0.242        0.046       62.465        8.256        0.017      336.484        7.817      860.835
04/24/2013  01:14:00      -78.783      -42.186       -6.660       19.071       15.746       11.724      363.698      247.928      137.450        0.439        0.037       89.367        5.196        0.003      336.466        7.787      860.836
04/24/2013  01:15:00      -93.009      -36.647       -6.302       18.187       13.968       11.535      330.768      195.109      133.063        0.535        0.033       99.968        6.663        0.004      336.455        7.768      860.843
04/24/2013  01:16:00      -71.356      -30.204       -9.813       11.701       17.779       10.240      136.904      316.075      104.852        0.333        0.028       77.486        4.337        0.003      336.422        7.713      860.850
04/24/2013  01:17:00      -78.828      -22.775      -13.846        7.877       10.169        8.516       62.048      103.413       72.522        0.358        0.012       82.052        3.949        0.002      336.388        7.655      860.863
04/24/2013  01:18:00      -93.825      -25.408      -12.816       13.903        9.891        7.321      193.293       97.831       53.594        0.498        0.017       97.205        5.108        0.003      336.341        7.576      860.874
04/24/2013  01:19:00      -92.296      -13.620      -15.517       10.160       10.671        9.938      103.233      113.863       98.765        0.463        0.016       93.296        4.898        0.003      336.276        7.468      860.868
04/24/2013  01:20:00      -88.127      -25.790      -11.285       15.435       13.916       12.098      238.228      193.642      146.355        0.457        0.029       91.823        8.246        0.008      336.273        7.464      860.860
04/24/2013  01:21:00     -100.815      -28.151      -15.895       13.994        9.070        9.760      195.819       82.274       95.260        0.579        0.019      104.671        8.292        0.006      336.286        7.486      860.854
04/24/2013  01:22:00      -97.697      -25.380      -13.911       12.152       15.602       12.555      147.677      243.418      157.617        0.547        0.027      100.940        6.559        0.004      336.302        7.514      860.835
04/24/2013  01:23:00      -84.860      -26.285      -10.743       13.950       12.645        8.938      194.598      159.892       79.881        0.422        0.022       88.837        7.884        0.008      336.323        7.547      860.829
04/24/2013  01:24:00      -67.551      -22.725      -12.132        7.283        9.294        7.194       53.039       86.370       51.758        0.271        0.010       71.271        4.339        0.004      336.250        7.426      860.828
04/24/2013  01:25:00      -72.445      -10.626      -13.059       11.854       11.569        9.739      140.523      133.842       94.843        0.295        0.018       73.220        6.274        0.007      336.298        7.506      860.827
04/24/2013  01:26:00      -74.455       -5.756      -15.145       18.707       11.670       10.602      349.951      136.196      112.397        0.320        0.030       74.677       10.268        0.019      336.304        7.515      860.817
04/24/2013  01:27:00      -92.808      -13.823      -15.776       17.666       15.294       10.799      312.092      233.909      116.614        0.486        0.033       93.831        4.435        0.002      336.135        7.233      860.827
04/24/2013  01:28:00      -86.297      -22.995      -15.292       13.376       13.408        9.903      178.914      179.765       98.061        0.433        0.023       89.308        6.732        0.006      336.137        7.237      860.835
04/24/2013  01:29:00      -89.407      -20.216      -18.966        9.727       14.393        8.379       94.618      207.153       70.212        0.457        0.019       91.664        4.930        0.003      336.158        7.271      860.839
04/24/2013  01:30:00      -86.380      -22.479      -15.980       16.019       18.036       13.374      256.619      325.296      178.852        0.449        0.038       89.257        7.724        0.007      336.121        7.209      860.852
04/24/2013  01:31:00      -75.200      -44.855      -17.796       20.686       15.301       10.240      427.902      234.117      104.863        0.438        0.038       87.561        9.918        0.013      336.070        7.125      860.856
04/24/2013  01:32:00      -49.960      -38.341      -10.156       24.191       15.976       14.101      585.226      255.219      198.846        0.255        0.052       62.976       10.408        0.027      336.137        7.236      860.859
04/24/2013  01:33:00      -67.593      -43.630      -12.214       17.097       15.547        9.390      292.309      241.718       88.181        0.362        0.031       80.451        5.751        0.005      336.110        7.192      860.873
04/24/2013  01:34:00      -80.196      -33.944       -6.683       14.026       11.693        8.679      196.737      136.716       75.331        0.402        0.020       87.084        5.838        0.004      336.066        7.120      860.876
04/24/2013  01:35:00      -73.323      -40.073      -13.576       24.844       13.476        9.948      617.241      181.601       98.965        0.403        0.045       83.559        5.196        0.004      336.116        7.201      860.875
04/24/2013  01:36:00      -26.167      -34.484       10.185       37.357       24.273       16.174     1395.569      589.160      261.599        0.211        0.112       43.288       11.808        0.074      336.092        7.161      860.885
04/24/2013  01:37:00      -54.258      -37.740        4.093       39.841       20.400       16.783     1587.292      416.154      281.654        0.333        0.114       66.093       15.892        0.058      336.036        7.068      860.889
04/24/2013  01:38:00     -104.069      -51.098       -1.202       29.942       26.065       19.668      896.514      679.384      386.817        0.770        0.098      115.937       18.547        0.026      336.012        7.027      860.883
04/24/2013  01:39:00     -103.313      -52.867       -6.144       41.071       29.791       18.466     1686.862      887.492      340.986        0.821        0.146      116.053       16.083        0.019      336.019        7.039      860.895
04/24/2013  01:40:00     -111.880      -68.324       -3.721       28.612       24.386       21.004      818.671      594.656      441.164        0.953        0.093      131.093       10.432        0.006      335.981        6.976      860.892
04/24/2013  01:41:00      -91.278      -46.175       -1.449       30.834       30.822       22.929      950.709      950.021      525.725        0.645        0.121      102.292       18.601        0.033      335.956        6.936      860.896
04/24/2013  01:42:00     -114.052      -57.361       -5.238       20.010       18.825       14.880      400.398      354.389      221.412        0.865        0.049      127.664        5.923        0.002      336.006        7.018      860.914
04/24/2013  01:43:00     -100.700      -57.803       -5.677       30.911       23.760       19.006      955.489      564.541      361.236        0.770        0.094      116.110       15.657        0.018      335.961        6.942      860.917
04/24/2013  01:44:00      -85.443      -63.041       -1.794       45.771       41.155       26.637     2094.961     1693.756      709.511        0.789        0.225      106.183       26.901        0.064      335.950        6.925      860.912
04/24/2013  01:45:00      -70.765      -65.906        1.964       48.999       39.540       27.435     2400.912     1563.392      752.660        0.704        0.236       96.702       28.162        0.085      335.945        6.917      860.903
04/24/2013  01:46:00      -77.737      -81.104        4.008       48.442       31.915       25.507     2346.583     1018.562      650.630        0.833        0.201      112.343       19.894        0.031      335.940        6.908      860.902
04/24/2013  01:47:00      -83.405      -76.059       -1.868       41.699       36.301       22.925     1738.817     1317.766      525.550        0.816        0.179      112.878       18.885        0.028      335.971        6.959      860.914
04/24/2013  01:48:00      -56.950      -45.770       10.648       53.378       29.950       25.431     2849.180      896.981      646.757        0.492        0.220       73.063       28.603        0.153      335.870        6.791      860.916
04/24/2013  01:49:00      -99.804      -61.259       -9.504       34.559       19.865       16.111     1194.304      394.605      259.550        0.783        0.092      117.105       12.386        0.011      335.881        6.810      860.918
04/24/2013  01:50:00      -86.202      -29.665      -10.154       29.734       19.650       15.519      884.120      386.114      240.831        0.496        0.076       91.163       12.095        0.018      335.844        6.747      860.928
04/24/2013  01:51:00     -125.020      -31.657       -9.872       19.333       19.652       12.464      373.752      386.194      155.343        0.882        0.046      128.965        4.181        0.001      335.806        6.686      860.929
04/24/2013  01:52:00     -113.400      -48.315       -0.713       36.543       22.238       19.612     1335.356      494.549      384.616        0.870        0.111      123.263       21.220        0.030      335.791        6.660      860.922
04/24/2013  01:53:00     -110.099      -29.490       -7.093       22.943       20.410       12.082      526.376      416.586      145.980        0.707        0.054      113.980        7.913        0.005      335.776        6.637      860.937
04/24/2013  01:54:00     -117.282      -24.435       -8.417       24.514       23.470       14.434      600.933      550.859      208.340        0.789        0.068      119.800       10.451        0.008      335.728        6.555      860.942
04/24/2013  01:55:00     -121.324      -55.307      -14.776       22.801       31.652       16.311      519.893     1001.838      266.042        0.989        0.089      133.336       10.292        0.006      335.624        6.382      860.929
04/24/2013  01:56:00     -108.723      -61.965      -21.620       30.638       21.669       16.780      938.694      469.554      281.570        0.891        0.084      125.142       12.878        0.011      335.619        6.374      860.929
04/24/2013  01:57:00     -128.863      -52.037      -11.710       26.661       21.721       15.982      710.824      471.817      255.413        1.044        0.072      138.973       14.206        0.010      335.622        6.380      860.930
04/24/2013  01:58:00     -128.035      -55.509      -12.124       17.978       19.411       11.629      323.211      376.775      135.237        1.023        0.042      139.550        7.330        0.003      335.635        6.400      860.958
04/24/2013  01:59:00      -82.911      -47.142      -14.075       35.581       18.569       14.675     1265.996      344.809      215.356        0.556        0.091       95.376       15.034        0.025      335.683        6.480      860.983
04/24/2013  02:00:00      -81.414      -40.935       -7.345       32.832       31.370       17.794     1077.963      984.100      316.625        0.537        0.119       91.126       10.170        0.012      335.698        6.506      860.978
04/24/2013  02:01:00      -90.853      -38.804       -6.282       39.233       32.428       28.771     1539.222     1051.549      827.747        0.661        0.171       98.793       21.163        0.046      335.641        6.409      860.973
04/24/2013  02:02:00      -91.927      -24.035      -11.072       42.273       25.360       19.483     1787.023      643.155      379.606        0.598        0.140       95.017       12.051        0.016      335.547        6.254      860.984
04/24/2013  02:03:00     -114.006      -21.614       -6.670       36.846       27.376       19.351     1357.595      749.448      374.478        0.799        0.124      116.036       14.710        0.016      335.509        6.191      860.995
04/24/2013  02:04:00     -111.574      -37.281       -7.459       27.295       28.449       19.806      745.017      809.326      392.259        0.792        0.097      117.638        8.644        0.005      335.556        6.268      860.997
04/24/2013  02:05:00      -72.761      -31.453       -1.231       21.964       28.331       18.239      482.437      802.640      332.662        0.395        0.081       79.268       10.152        0.016      335.432        6.062      861.005
04/24/2013  02:06:00      -66.675      -31.469       -8.539       32.715       20.471       16.558     1070.239      419.059      274.182        0.364        0.088       73.728       16.033        0.047      335.573        6.296      861.007
04/24/2013  02:07:00      -80.712      -32.913      -15.464       26.773       18.097       15.259      716.789      327.516      232.847        0.456        0.064       87.165        9.638        0.012      335.533        6.230      861.018
04/24/2013  02:08:00      -72.389      -14.974      -15.634       23.619       16.301       12.445      557.859      265.710      154.884        0.334        0.049       73.921        7.375        0.010      335.508        6.187      861.020
04/24/2013  02:09:00      -90.747      -15.228      -14.451       22.602       18.894       15.456      510.839      356.976      238.873        0.489        0.055       92.015       12.226        0.018      335.482        6.144      861.019
04/24/2013  02:10:00      -47.237      -25.531       -6.540       32.622       21.272       14.207     1064.174      452.488      201.849        0.232        0.086       53.695       14.470        0.073      335.421        6.043      861.035
04/24/2013  02:11:00      -34.412      -19.206       -6.541       25.996       22.731       17.569      675.777      516.712      308.682        0.155        0.075       39.409       14.878        0.143      335.429        6.056      861.027
04/24/2013  02:12:00      -16.163      -25.201        3.760       22.452       21.150       21.618      504.106      447.330      467.329        0.116        0.071       29.939       16.732        0.312      335.409        6.024      861.038
04/24/2013  02:13:00      -23.076        4.355       -7.803       25.339       27.686       17.860      642.075      766.533      318.973        0.117        0.086       23.483       15.734        0.449      335.432        6.061      861.049
04/24/2013  02:14:00      -48.626       -5.118      -14.905       27.263       15.128       16.598      743.283      228.863      275.496        0.193        0.062       48.895       18.044        0.136      335.509        6.189      861.064
04/24/2013  02:15:00      -31.929        0.473       -3.820       24.480       21.218       12.094      599.249      450.184      146.276        0.111        0.060       31.933       13.642        0.183      335.496        6.167      861.075
04/24/2013  02:16:00      -63.402       16.210      -14.146       16.863       14.961        9.842      284.357      223.841       96.860        0.254        0.030       65.442        5.881        0.008      335.675        6.467      861.082
04/24/2013  02:17:00      -65.139       29.910      -11.203       13.882       18.350       10.384      192.698      336.714      107.832        0.295        0.032       71.678        6.748        0.009      335.937        6.903      861.110
04/24/2013  02:18:00      -54.920       12.648       -3.781       22.590       27.845       15.371      510.312      775.358      236.260        0.236        0.076       56.358        9.944        0.031      335.866        6.785      861.121
04/24/2013  02:19:00      -47.684       25.022      -11.398       15.832       15.882       14.844      250.655      252.238      220.352        0.188        0.036       53.851        7.967        0.022      335.935        6.899      861.141
04/24/2013  02:20:00      -40.388       39.632       -8.118       24.522       34.793       14.188      601.330     1210.539      201.306        0.264        0.101       56.585       14.647        0.067      336.098        7.171      861.148
04/24/2013  02:21:00      -37.680       74.674       -9.102       19.038       32.368       14.287      362.433     1047.665      204.111        0.435        0.081       83.642       10.562        0.016      336.364        7.616      861.153
04/24/2013  02:22:00      -20.111       92.898       -7.299       31.628       34.264       16.072     1000.305     1174.010      258.319        0.576        0.122       95.050       12.341        0.017      336.497        7.839      861.161
04/24/2013  02:23:00      -16.226      108.070       -7.356       24.826       35.653       20.013      616.354     1271.142      400.524        0.714        0.114      109.281       17.929        0.027      336.510        7.862      861.160
04/24/2013  02:24:00      -13.214      137.806      -13.981       19.418       24.172       18.745      377.042      584.287      351.384        1.034        0.066      138.438       12.971        0.009      336.474        7.801      861.178
04/24/2013  02:25:00        1.630      144.431      -17.926       16.004       14.372       10.109      256.126      206.547      102.194        1.087        0.028      144.441        6.837        0.002      336.462        7.780      861.183
04/24/2013  02:26:00        7.099      148.246      -17.541       10.653       16.577        9.298      113.478      274.803       86.457        1.140        0.024      148.416        8.144        0.003      336.495        7.836      861.194
04/24/2013  02:27:00        7.498      127.073      -15.823       11.156       17.426        6.121      124.465      303.667       37.473        0.846        0.023      127.294        2.275        0.000      336.484        7.817      861.213
04/24/2013  02:28:00       -1.404      107.053      -11.104       12.895       19.123        8.520      166.280      365.677       72.590        0.609        0.030      107.062        7.522        0.005      336.587        7.990      861.218
04/24/2013  02:29:00       -3.733       91.783      -13.116       14.582       14.527        8.000      212.623      211.023       63.994        0.455        0.024       91.858        4.660        0.003      336.537        7.905      861.225
04/24/2013  02:30:00        1.772       89.074      -13.103       14.998       16.048       10.016      224.949      257.546      100.315        0.435        0.029       89.091        5.647        0.004      336.467        7.789      861.240
04/24/2013  02:31:00       -6.570       81.471      -13.131       13.709       20.603        9.957      187.925      424.503       99.135        0.378        0.036       81.736        5.296        0.004      336.504        7.850      861.242
04/24/2013  02:32:00      -27.369       34.609       -5.627       23.185       24.358       14.162      537.549      593.328      200.571        0.165        0.067       44.123       15.345        0.121      336.396        7.671      861.242
04/24/2013  02:33:00       -7.610       19.827       -2.504       23.889       17.971       12.220      570.667      322.940      149.333        0.075        0.052       21.237        8.623        0.165      336.403        7.681      861.262
04/24/2013  02:34:00        7.813       54.113       -5.211       12.364       13.836       10.753      152.870      191.430      115.620        0.174        0.023       54.674       10.139        0.034      336.522        7.880      861.277
04/24/2013  02:35:00      -13.022       56.555      -11.518       25.020       19.756       11.366      625.977      390.316      129.186        0.232        0.057       58.035       12.391        0.046      336.542        7.914      861.287
04/24/2013  02:36:00      -68.004      -18.781      -11.294       15.050       11.763       10.793      226.503      138.369      116.489        0.279        0.024       70.549        7.792        0.012      336.256        7.436      861.283
04/24/2013  02:37:00      -66.742      -39.732       -6.525       15.355       16.806       11.068      235.768      282.427      122.508        0.336        0.032       77.674        4.359        0.003      336.125        7.216      861.278
04/24/2013  02:38:00      -87.402      -34.288      -12.966       14.531       19.672        9.906      211.145      386.998       98.137        0.484        0.035       93.887        5.746        0.004      336.198        7.338      861.277
04/24/2013  02:39:00      -72.044      -35.044      -12.644       15.978       20.254       11.235      255.294      410.214      126.234        0.368        0.040       80.115        5.286        0.004      336.138        7.238      861.277
04/24/2013  02:40:00      -82.550      -27.917       -1.961       16.763       35.591       14.173      280.984     1266.701      200.862        0.467        0.087       87.143       13.173        0.023      336.208        7.355      861.288
04/24/2013  02:41:00      -49.463       -2.511       -5.888       30.552       31.508       16.216      933.402      992.750      262.971        0.234        0.109       49.527       13.505        0.074      336.404        7.683      861.297
04/24/2013  02:42:00      -52.610        5.966       -9.154       23.368       33.012       14.383      546.081     1089.784      206.870        0.236        0.092       52.947        9.894        0.035      336.575        7.968      861.309
04/24/2013  02:43:00      -66.329       14.576       -9.617       30.648       27.197       14.248      939.318      739.669      203.019        0.329        0.094       67.911       12.716        0.035      336.688        8.158      861.316
04/24/2013  02:44:00     -106.577      102.845      -30.694       29.631       40.896       23.614      878.000     1672.500      557.625        1.299        0.155      148.107       22.899        0.024      336.698        8.174      861.323
04/24/2013  02:45:00     -121.781       88.234      -28.907       34.044       50.883       27.699     1158.993     2589.088      767.219        1.398        0.226      150.386       24.889        0.027      336.757        8.273      861.334
04/24/2013  02:46:00      -90.121       68.510      -22.403       37.281       48.556       21.118     1389.909     2357.664      445.961        0.875        0.210      113.205       23.524        0.043      336.687        8.157      861.329
04/24/2013  02:47:00     -119.050      103.385      -26.409       47.771       62.011       33.845     2282.080     3845.392     1145.507        1.641        0.364      157.675       42.753        0.074      336.721        8.212      861.332
04/24/2013  02:48:00     -100.559       64.911      -16.865       45.630       45.077       26.196     2082.087     2031.907      686.239        0.970        0.240      119.689       23.676        0.039      336.631        8.062      861.323
04/24/2013  02:49:00     -101.230       49.581      -12.812       37.539       31.186       22.709     1409.197      972.572      515.679        0.788        0.145      112.720       17.433        0.024      336.467        7.788      861.318
04/24/2013  02:50:00      -69.204        6.688       -6.435       21.109       33.406       14.448      445.597     1115.956      208.758        0.332        0.089       69.526       12.094        0.030      336.439        7.744      861.316
04/24/2013  02:51:00      -62.273      -26.452       -9.089       29.155       22.459       13.747      849.995      504.406      188.993        0.310        0.077       67.658       11.243        0.028      336.259        7.440      861.312
04/24/2013  02:52:00      -19.948      -28.009       10.312       35.631       25.515       19.214     1269.554      651.025      369.178        0.179        0.114       34.386       20.368        0.351      336.191        7.327      861.301
04/24/2013  02:53:00      -14.557      -31.228       13.273       30.986       25.698       21.931      960.118      660.362      480.958        0.173        0.105       34.454       21.082        0.374      336.282        7.478      861.292
04/24/2013  02:54:00       -6.517      -29.407       23.345       31.920       20.436       21.096     1018.872      417.612      445.056        0.167        0.094       30.120       19.208        0.407      336.197        7.335      861.278
04/24/2013  02:55:00      -39.723      -54.448        9.152       42.624       38.364       22.820     1816.846     1471.794      520.741        0.422        0.190       67.398       22.374        0.110      336.212        7.363      861.271
04/24/2013  02:56:00      -36.048      -60.097       -1.193       27.855       25.253       20.164      775.897      637.726      406.574        0.337        0.091       70.080       12.696        0.033      336.179        7.305      861.268
04/24/2013  02:57:00      -90.902      -45.762       -1.590       37.334       24.909       16.271     1393.806      620.450      264.755        0.632        0.114      101.771       16.506        0.026      336.067        7.119      861.257
04/24/2013  02:58:00     -101.260      -73.421       -0.159       48.488       33.439       17.951     2351.121     1118.139      322.249        0.972        0.190      125.077       18.878        0.023      335.910        6.858      861.249
04/24/2013  02:59:00      -42.997      -40.325       11.900       50.414       31.908       22.359     2541.565     1018.114      499.942        0.384        0.203       58.948       20.061        0.116      335.787        6.652      861.254
04/24/2013  03:00:00      -72.503      -78.210       -2.397       38.779       42.323       25.587     1503.801     1791.208      654.704        0.766        0.197      106.647       24.013        0.051      335.681        6.477      861.267
04/24/2013  03:01:00     -100.511      -91.745       -3.835       35.330       43.261       26.134     1248.223     1871.550      682.965        1.117        0.190      136.086       17.006        0.016      335.680        6.475      861.280
04/24/2013  03:02:00     -139.538     -109.652       -6.979       50.707       39.948       28.157     2571.153     1595.830      792.803        1.825        0.248      177.467       23.435        0.017      335.729        6.557      861.280
04/24/2013  03:03:00     -140.590     -110.098       -1.801       54.914       61.976       30.965     3015.558     3841.023      958.808        1.985        0.391      178.570       21.171        0.014      335.582        6.309      861.273
04/24/2013  03:04:00     -199.755     -166.403      -16.710       47.349       53.753       32.210     2241.910     2889.378     1037.511        3.702        0.308      259.985       21.186        0.007      335.447        6.082      861.268
04/24/2013  03:05:00     -184.213     -172.166      -19.088       79.896       65.244       40.813     6383.363     4256.745     1665.693        3.812        0.615      252.142       34.410        0.019      335.308        5.851      861.269
04/24/2013  03:06:00     -183.403     -132.404       -9.887       77.515       65.839       47.278     6008.633     4334.838     2235.200        3.192        0.629      226.202       40.487        0.032      335.205        5.680      861.257
04/24/2013  03:07:00     -111.539      -86.036       18.254      115.524       67.269       55.591    13345.694     4525.070     3090.383        2.056        1.048      140.865       60.524        0.185      335.180        5.640      861.243
04/24/2013  03:08:00      -78.264      -59.577       22.084      104.983       84.524       53.489    11021.455     7144.333     2861.122        1.559        1.051       98.360       52.868        0.289      334.991        5.328      861.231
04/24/2013  03:09:00     -128.182      -99.476        5.245      117.086       73.929       56.135    13709.099     5465.500     3151.118        2.434        1.116      162.254       55.648        0.118      334.926        5.219      861.219
04/24/2013  03:10:00     -151.149      -90.306        4.687      121.378       72.362       56.332    14732.658     5236.232     3173.251        2.708        1.157      176.071       55.967        0.101      334.945        5.251      861.230
04/24/2013  03:11:00     -195.206     -138.382      -10.332       79.044       83.021       44.508     6247.886     6892.417     1980.946        3.624        0.756      239.281       40.849        0.029      334.960        5.274      861.233
04/24/2013  03:12:00     -198.911     -159.342      -13.828       65.067       54.133       42.744     4233.769     2930.347     1827.059        3.707        0.450      254.864       37.885        0.022      335.039        5.403      861.252
04/24/2013  03:13:00     -178.694     -139.037       -0.900       98.354       72.677       42.733     9673.439     5281.908     1826.070        3.402        0.839      226.413       43.334        0.037      335.122        5.544      861.276
04/24/2013  03:14:00     -212.989     -132.214      -21.604       44.529       65.753       30.792     1982.812     4323.444      948.120        3.528        0.363      250.689       20.047        0.006      335.196        5.666      861.289
04/24/2013  03:15:00     -155.044      -64.443       -8.044       59.524       55.285       22.922     3543.149     3056.387      525.416        1.769        0.356      167.903       18.132        0.012      335.209        5.689      861.302
04/24/2013  03:16:00     -212.620      -77.192       -3.897       61.300       55.745       33.767     3757.681     3107.466     1140.231        2.959        0.400      226.199       28.826        0.016      335.217        5.703      861.318
04/24/2013  03:17:00     -162.396      -63.528       -8.054       76.257       48.603       39.738     5815.076     2362.209     1579.141        2.011        0.488      174.379       38.373        0.048      335.203        5.679      861.335
04/24/2013  03:18:00     -154.044      -29.147        2.144       62.510       60.084       29.884     3907.536     3610.121      893.073        1.650        0.421      156.777       30.548        0.038      335.147        5.589      861.344
04/24/2013  03:19:00     -162.389      -29.016        0.005       60.197       51.803       36.453     3623.725     2683.592     1328.819        1.742        0.382      164.961       34.501        0.044      335.126        5.553      861.361
04/24/2013  03:20:00     -135.587      -50.086       -0.030       61.904       45.395       25.783     3832.059     2060.741      664.774        1.372        0.328      144.543       22.488        0.024      335.075        5.468      861.396
04/24/2013  03:21:00     -125.181      -31.816        2.807       56.333       45.677       30.606     3173.460     2086.385      936.706        1.144        0.310      129.161       28.806        0.050      335.004        5.352      861.423
04/24/2013  03:22:00     -134.419      -37.028       -1.465       49.491       29.972       21.653     2449.379      898.333      468.841        1.163        0.191      139.426       22.225        0.025      334.970        5.295      861.447
04/24/2013  03:23:00     -112.450      -45.646       -5.796       48.740       34.567       26.307     2375.615     1194.906      692.078        0.951        0.213      121.361       29.430        0.059      335.006        5.354      861.475
04/24/2013  03:24:00     -100.029      -59.702       -3.533       48.558       46.260       25.545     2357.862     2139.989      652.550        0.937        0.258      116.491       25.409        0.048      335.061        5.445      861.500
04/24/2013  03:25:00     -103.927      -32.727       -2.907       33.258       31.990       23.108     1106.076     1023.358      533.970        0.727        0.133      108.958       19.834        0.033      335.036        5.404      861.501
04/24/2013  03:26:00     -118.520      -24.725       -0.638       33.936       34.535       20.924     1151.636     1192.687      437.809        0.872        0.139      121.072       19.402        0.026      335.034        5.401      861.515
04/24/2013  03:27:00      -96.594       -1.764       -7.867       40.450       28.200       17.470     1636.227      795.242      305.185        0.607        0.137       96.610       18.560        0.037      334.995        5.335      861.537
04/24/2013  03:28:00      -80.118       -4.010       -4.570       28.931       29.073       15.444      836.978      845.246      238.508        0.419        0.096       80.219       11.821        0.022      335.103        5.513      861.548
04/24/2013  03:29:00      -95.717      -17.110      -12.781       32.007       32.218       22.951     1024.430     1038.013      526.728        0.610        0.129       97.235       20.671        0.045      335.125        5.553      861.555
04/24/2013  03:30:00      -69.442      -44.935       -2.050       37.492       36.665       18.781     1405.615     1344.303      352.716        0.497        0.155       82.712       17.698        0.046      335.096        5.504      861.566
04/24/2013  03:31:00     -138.660      -58.030       -6.589       50.766       29.747       24.468     2577.215      884.884      598.682        1.335        0.203      150.313       24.287        0.026      335.038        5.409      861.570
04/24/2013  03:32:00     -108.471      -36.469       -8.982       40.481       23.214       20.226     1638.718      538.875      409.098        0.788        0.129      114.437       15.493        0.018      335.079        5.475      861.568
04/24/2013  03:33:00      -91.555      -35.133       -7.291       35.966       30.315       18.985     1293.540      918.978      360.436        0.612        0.129       98.065       13.638        0.019      335.134        5.568      861.583
04/24/2013  03:34:00     -132.427      -33.677      -12.698       28.269       25.559       19.093      799.120      653.248      364.525        1.032        0.091      136.642        7.665        0.003      335.177        5.638      861.589
04/24/2013  03:35:00      -94.239      -45.489       -2.840       34.403       32.303       20.265     1183.551     1043.460      410.686        0.680        0.132      104.643       15.974        0.023      335.148        5.590      861.584
04/24/2013  03:36:00     -134.440      -36.207      -11.658       24.223       27.383       15.069      586.738      749.805      227.063        1.054        0.078      139.230       12.226        0.008      335.191        5.661      861.574
04/24/2013  03:37:00     -137.591      -38.424      -13.626       24.955       22.685       15.042      622.763      514.594      226.253        1.098        0.068      142.856        9.154        0.004      335.214        5.699      861.567
04/24/2013  03:38:00     -108.673      -30.374      -10.660       30.081       24.820       17.686      904.884      616.011      312.810        0.734        0.092      112.838       15.691        0.019      335.212        5.695      861.569
04/24/2013  03:39:00      -74.725      -38.422       -2.352       18.560       19.603       13.996      344.487      384.268      195.882        0.399        0.046       84.024        9.218        0.012      335.243        5.745      861.585
04/24/2013  03:40:00      -85.861        7.153       -3.223       28.531       24.044       12.531      814.009      578.101      157.014        0.449        0.077       86.158       12.555        0.021      335.221        5.710      861.587
04/24/2013  03:41:00      -74.413      -25.599       -4.287       22.759       17.663       13.649      517.992      311.992      186.307        0.361        0.051       78.693       12.451        0.025      335.331        5.893      861.599
04/24/2013  03:42:00      -77.071      -44.034       -0.497       17.396       29.791       14.559      302.609      887.519      211.962        0.464        0.070       88.764       10.652        0.014      335.287        5.819      861.599
04/24/2013  03:43:00      -61.593      -43.115        5.303       32.329       28.124       18.672     1045.182      790.953      348.640        0.393        0.109       75.183       16.165        0.046      335.318        5.872      861.614
04/24/2013  03:44:00     -103.356      -18.862       -5.954       32.237       25.293       15.318     1039.208      639.757      234.654        0.649        0.096      105.063       12.977        0.015      335.322        5.876      861.629
04/24/2013  03:45:00     -125.218       11.154      -16.388       43.903       38.465       20.315     1927.437     1479.594      412.684        0.995        0.191      125.713       16.179        0.017      335.191        5.660      861.638
04/24/2013  03:46:00     -110.915       16.871      -12.916       25.729       39.579       19.732      661.977     1566.462      389.336        0.769        0.131      112.191       14.270        0.016      335.107        5.522      861.652
04/24/2013  03:47:00     -119.220        1.761       -9.866       46.711       35.085       20.746     2181.885     1230.964      430.391        0.908        0.192      119.233       19.455        0.027      335.073        5.465      861.672
04/24/2013  03:48:00     -103.208       -3.522      -17.501       26.465       39.017       19.601      700.413     1522.292      384.184        0.679        0.130      103.268       18.155        0.031      335.033        5.399      861.678
04/24/2013  03:49:00      -81.225       -4.230      -14.072       28.995       29.080       17.343      840.718      845.672      300.763        0.440        0.099       81.335        7.683        0.009      335.178        5.640      861.686
04/24/2013  03:50:00      -61.986        1.771      -12.573       23.938       23.397       19.635      573.038      547.430      385.518        0.275        0.075       62.011       10.528        0.029      335.180        5.643      861.693
04/24/2013  03:51:00      -58.864      -21.340      -10.652       21.105       20.636       13.103      445.408      425.854      171.694        0.254        0.052       62.613        7.880        0.016      335.176        5.635      861.690
04/24/2013  03:52:00      -69.826      -24.061       -6.550       21.868       16.200       11.715      478.201      262.447      137.245        0.319        0.044       73.856        3.175        0.002      335.189        5.658      861.687
04/24/2013  03:53:00      -63.019      -30.176       -9.008       29.220       14.442       11.961      853.783      208.582      143.059        0.308        0.060       69.872       12.220        0.031      335.083        5.482      861.709
04/24/2013  03:54:00      -78.533      -27.938       -7.597       22.185       16.164       10.525      492.182      261.269      110.784        0.393        0.043       83.354        6.073        0.005      334.960        5.278      861.715
04/24/2013  03:55:00      -63.367      -42.772       -5.253       17.443       18.234       12.740      304.261      332.464      162.311        0.334        0.040       76.452        7.897        0.011      334.999        5.342      861.733
04/24/2013  03:56:00      -25.248      -15.563        2.525       35.864       19.289       17.801     1286.258      372.077      316.867        0.143        0.099       29.660       22.268        0.564      334.892        5.164      861.766
04/24/2013  03:57:00      -40.636      -25.260        9.030       37.096       16.638       15.973     1376.108      276.830      255.128        0.214        0.095       47.848       20.662        0.186      334.962        5.280      861.787
04/24/2013  03:58:00      -83.795      -18.153       -7.822       24.355       21.021       15.952      593.170      441.874      254.470        0.435        0.064       85.738        9.905        0.013      334.879        5.143      861.804
04/24/2013  03:59:00      -88.687      -27.093      -12.027       22.619       30.346       15.809      511.634      920.862      249.939        0.521        0.084       92.733       11.891        0.016      334.907        5.190      861.816
04/24/2013  04:00:00     -110.861      -26.137      -19.146       19.357       21.331       14.779      374.693      454.990      218.418        0.719        0.052      113.900        6.657        0.003      334.891        5.163      861.810
04/24/2013  04:01:00      -61.211      -47.537       -0.536       55.426       34.787       23.328     3072.095     1210.112      544.197        0.542        0.241       77.502       20.066        0.067      334.812        5.030      861.813
04/24/2013  04:02:00     -102.755      -54.174       -0.141       47.376       32.613       21.889     2244.478     1063.594      479.128        0.864        0.189      116.161       15.820        0.019      334.792        4.998      861.832
04/24/2013  04:03:00      -72.950      -62.888       -6.608       42.058       32.729       24.973     1768.909     1071.189      623.671        0.639        0.173       96.315       21.126        0.048      334.866        5.120      861.844
04/24/2013  04:04:00      -93.490      -39.838      -12.424       35.532       26.726       16.108     1262.520      714.267      259.463        0.636        0.112      101.625       15.095        0.022      334.904        5.184      861.858
04/24/2013  04:05:00      -85.638      -13.926       -3.670       24.755       23.553       14.864      612.833      554.732      220.939        0.446        0.069       86.763       12.503        0.021      334.936        5.239      861.854
04/24/2013  04:06:00      -92.904      -12.977       -2.799       34.301       25.560       16.051     1176.528      653.333      257.624        0.545        0.104       93.806       13.080        0.019      334.761        4.947      861.860
04/24/2013  04:07:00     -113.695      -29.365      -10.486       25.255       22.997       14.096      637.831      528.845      198.708        0.763        0.068      117.426        7.827        0.004      334.960        5.278      861.867
04/24/2013  04:08:00     -107.773      -41.660       -5.767       20.179       16.993       10.440      407.209      288.759      108.984        0.709        0.040      115.544        9.158        0.006      335.017        5.372      861.855
04/24/2013  04:09:00     -115.991      -45.402      -14.612       16.158       16.923       15.710      261.066      286.377      246.814        0.826        0.040      124.560        7.598        0.004      335.081        5.478      861.842
04/24/2013  04:10:00      -84.205      -47.135       -7.808       21.406       14.553       14.267      458.209      211.792      203.556        0.512        0.044       96.499       11.116        0.013      334.950        5.261      861.838
04/24/2013  04:11:00      -61.136      -41.309       -3.657       42.563       18.243       14.044     1811.587      332.809      197.223        0.390        0.117       73.784       15.060        0.042      335.008        5.357      861.846
04/24/2013  04:12:00      -65.406      -36.631       -1.615       29.108       22.822       13.248      847.266      520.866      175.516        0.358        0.077       74.965       14.301        0.036      334.946        5.254      861.850
04/24/2013  04:13:00      -90.240      -38.189       -8.120       14.668       15.120        9.758      215.137      228.618       95.209        0.510        0.027       97.989        5.555        0.003      335.002        5.348      861.861
04/24/2013  04:14:00      -91.652      -32.550      -15.687        9.597       10.341        8.221       92.111      106.946       67.579        0.499        0.013       97.261        1.965        0.000      335.035        5.403      861.872
04/24/2013  04:15:00      -71.162      -24.438       -3.692       10.811       11.973        7.947      116.874      143.346       63.147        0.300        0.016       75.241        4.069        0.003      335.088        5.489      861.878
04/24/2013  04:16:00      -71.669      -20.903       -3.858        9.931        8.531        6.078       98.634       72.783       36.943        0.290        0.010       74.656        2.491        0.001      335.061        5.446      861.887
04/24/2013  04:17:00      -71.035      -13.175       -9.359       19.313       12.123        7.826      373.001      146.960       61.251        0.294        0.029       72.246        7.248        0.010      335.151        5.593      861.897
04/24/2013  04:18:00      -73.042       -2.325       -9.276       17.874        8.175        6.809      319.473       66.829       46.356        0.293        0.022       73.079        6.287        0.007      335.092        5.497      861.919
04/24/2013  04:19:00      -59.415       -7.800      -11.929       12.611       10.935        8.760      159.027      119.564       76.736        0.204        0.018       59.925        6.189        0.011      335.078        5.476      861.929
04/24/2013  04:20:00      -57.396      -20.665       -7.938       10.619        8.263        7.672      112.774       68.273       58.852        0.201        0.012       61.003        2.959        0.002      335.027        5.391      861.925
04/24/2013  04:21:00      -46.973      -14.338      -10.837        9.143        7.481        9.364       83.596       55.961       87.681        0.138        0.011       49.113        4.004        0.007      335.025        5.386      861.925
04/24/2013  04:22:00      -43.149      -18.708      -12.001        9.397        7.020        7.442       88.297       49.286       55.381        0.127        0.010       47.030        2.807        0.004      335.041        5.412      861.930
04/24/2013  04:23:00      -49.903      -15.224      -10.427        8.667        8.225        6.101       75.116       67.657       37.225        0.151        0.009       52.174        2.697        0.003      335.002        5.347      861.931
04/24/2013  04:24:00      -42.849      -12.405       -4.065        8.062       12.198        8.069       64.998      148.783       65.113        0.114        0.014       44.609        3.174        0.005      335.051        5.429      861.930
04/24/2013  04:25:00      -28.335       -7.607       -5.452        8.562       12.835        6.716       73.311      164.731       45.100        0.059        0.014       29.338        3.027        0.011      335.072        5.465      861.928
04/24/2013  04:26:00      -42.258       -5.340       -4.497       14.784       10.852        7.066      218.556      117.767       49.922        0.111        0.019       42.595        6.462        0.023      335.101        5.513      861.926
04/24/2013  04:27:00      -49.035      -13.501       -5.456        9.303       10.884        6.780       86.537      118.457       45.971        0.143        0.013       50.859        4.667        0.008      335.061        5.446      861.931
04/24/2013  04:28:00      -49.608      -16.969       -3.263       16.014       11.439        9.135      256.461      130.861       83.457        0.162        0.024       52.430        6.388        0.015      334.942        5.249      861.937
04/24/2013  04:29:00      -79.743      -31.762       -6.404       19.923       15.841       12.531      396.940      250.944      157.031        0.411        0.040       85.835        6.873        0.006      334.946        5.253      861.925
04/24/2013  04:30:00      -89.776      -57.481       -1.917       28.796       23.287       20.103      829.212      542.306      404.134        0.657        0.089      106.601       11.450        0.012      334.781        4.979      861.910
04/24/2013  04:31:00      -95.142      -55.164       -3.128       22.808       24.805       16.180      520.194      615.268      261.786        0.675        0.070      109.977       10.057        0.008      334.743        4.915      861.921
04/24/2013  04:32:00      -51.386      -43.034        2.179       38.094       22.832       18.382     1451.147      521.294      337.905        0.340        0.116       67.025       14.733        0.048      334.791        4.997      861.953
04/24/2013  04:33:00      -64.851      -31.308       -3.854       24.884       21.497        9.891      619.208      462.112       97.836        0.319        0.059       72.012        6.308        0.008      334.739        4.910      861.974
04/24/2013  04:34:00      -66.795      -37.878        2.967       38.724       23.889       16.491     1499.563      570.697      271.939        0.412        0.117       76.787       14.551        0.036      334.810        5.028      861.978
04/24/2013  04:35:00      -43.976      -33.366       -8.252       35.698       22.472       15.687     1274.337      504.987      246.090        0.257        0.101       55.202       10.968        0.039      334.844        5.084      861.986
04/24/2013  04:36:00      -32.525       -5.552        1.045       24.623       29.346       14.942      606.276      861.195      223.249        0.139        0.085       32.995       13.152        0.159      334.809        5.027      862.003
04/24/2013  04:37:00        6.899       15.523       13.729       12.382        7.810       11.431      153.317       61.003      130.665        0.041        0.017       16.987        7.127        0.176      334.700        4.846      862.040
04/24/2013  04:38:00      -26.731        9.396       -7.121       23.228        9.232        8.490      539.555       85.233       72.087        0.078        0.035       28.335        9.994        0.124      334.725        4.889      862.066
04/24/2013  04:39:00        3.534       -3.455        6.044       10.207        7.297       10.065      104.176       53.253      101.305        0.016        0.013        4.943        8.723        3.114      334.766        4.956      862.089
04/24/2013  04:40:00       35.114       38.266       14.238       13.229       21.164       13.404      174.998      447.913      179.677        0.185        0.040       51.935        9.919        0.036      334.584        4.653      862.121
04/24/2013  04:41:00        2.328        7.233       22.262       24.878       27.720       14.823      618.923      768.399      219.736        0.108        0.080        7.598       18.024        5.627      334.475        4.473      862.138
04/24/2013  04:42:00      -13.064        4.430        5.889       12.743       15.511        9.926      162.390      240.593       98.529        0.036        0.025       13.795        8.546        0.384      334.559        4.612      862.132
04/24/2013  04:43:00      -46.080        2.557       -5.825       12.784       12.630        6.830      163.441      159.523       46.645        0.127        0.018       46.151        4.664        0.010      334.700        4.845      862.142
04/24/2013  04:44:00      -46.692        0.949       -7.601        9.566       11.398        7.226       91.500      129.923       52.219        0.126        0.014       46.702        3.902        0.007      334.685        4.821      862.159
04/24/2013  04:45:00      -20.225       -3.793       -3.548       12.299        7.031        5.201      151.268       49.440       27.055        0.033        0.011       20.578        4.574        0.049      334.740        4.911      862.176
04/24/2013  04:46:00       -2.054       10.137        5.615        8.509        7.490        8.720       72.410       56.101       76.045        0.017        0.010       10.343        7.671        0.550      334.799        5.010      862.191
04/24/2013  04:47:00       35.485        4.385        3.038       13.443        7.540       10.143      180.708       56.850      102.885        0.081        0.017       35.755        5.189        0.021      334.752        4.932      862.221
04/24/2013  04:48:00       40.503        5.926       10.896       24.346       18.865       14.064      592.729      355.897      197.785        0.147        0.057       40.934       15.701        0.147      334.628        4.725      862.241
04/24/2013  04:49:00       46.425        0.091        9.484       20.575       11.845       18.282      423.326      140.300      334.246        0.157        0.045       46.425       13.222        0.081      334.647        4.759      862.249
04/24/2013  04:50:00       37.791       31.654       26.180       20.053       20.606       20.067      402.132      424.594      402.689        0.217        0.061       49.296       15.071        0.093      334.588        4.661      862.267
04/24/2013  04:51:00       68.720       24.229       21.696       25.557       25.580       18.814      653.185      654.348      353.949        0.372        0.083       72.866       12.200        0.028      334.689        4.828      862.281
04/24/2013  04:52:00       53.306       31.700       12.585       24.357       23.845       21.425      593.240      568.573      459.011        0.281        0.081       62.019       16.797        0.073      334.572        4.633      862.302
04/24/2013  04:53:00       33.888       17.682        9.411        9.883       11.819       11.661       97.676      139.678      135.969        0.096        0.019       38.224        7.400        0.037      334.405        4.357      862.302
04/24/2013  04:54:00       36.613       26.594        5.054        9.635        8.564        9.966       92.835       73.346       99.326        0.117        0.013       45.252        5.886        0.017      334.357        4.276      862.304
04/24/2013  04:55:00       47.275       29.671        1.080        8.304        9.725        4.687       68.949       94.570       21.966        0.165        0.009       55.815        2.961        0.003      334.521        4.549      862.305
04/24/2013  04:56:00       49.946       34.415        5.784       10.690        6.521        6.561      114.272       42.522       43.046        0.196        0.010       60.655        4.501        0.006      334.645        4.754      862.321
04/24/2013  04:57:00       47.304       32.646        7.539        6.029        6.819        5.214       36.345       46.505       27.182        0.174        0.006       57.475        1.700        0.001      334.755        4.940      862.320
04/24/2013  04:58:00       29.663       32.092       -0.327       10.234        5.118        3.666      104.727       26.192       13.440        0.103        0.007       43.701        3.822        0.008      334.808        5.028      862.314
04/24/2013  04:59:00       -3.385       31.461       -1.339       11.055        6.513        5.399      122.206       42.414       29.147        0.060        0.010       31.642        4.911        0.024      334.798        5.006      862.300
04/24/2013  05:00:00      -28.415       16.643       -3.766       11.201        9.221        6.748      125.455       85.036       45.538        0.068        0.013       32.930        5.465        0.028      334.637        4.741      862.287
04/24/2013  05:01:00      -28.511        2.365       -6.130        7.120        9.648        4.703       50.691       93.078       22.116        0.051        0.008       28.609        4.235        0.022      334.659        4.776      862.299
04/24/2013  05:02:00      -40.452      -12.288       -4.965       15.484       11.100        7.610      239.743      123.215       57.917        0.112        0.021       42.277        4.831        0.013      334.677        4.806      862.310
04/24/2013  05:03:00      -85.541      -13.556      -11.837       19.765        9.295        8.259      390.654       86.398       68.215        0.409        0.027       86.609        2.317        0.001      334.531        4.567      862.310
04/24/2013  05:04:00      -66.911       -2.333      -11.763       34.626       10.907       14.598     1198.995      118.973      213.107        0.308        0.077       66.951       15.348        0.053      334.410        4.365      862.321
04/24/2013  05:05:00      -31.044        5.312        1.930       17.595       14.276        7.299      309.572      203.805       53.281        0.078        0.028       31.496        5.284        0.028      334.414        4.373      862.342
04/24/2013  05:06:00      -33.647       12.665       -5.273        7.745        5.974        6.277       59.978       35.686       39.403        0.073        0.007       35.951        4.924        0.019      334.627        4.726      862.359
04/24/2013  05:07:00      -57.245       13.313      -13.307       12.258       10.470        6.419      150.247      109.621       41.205        0.197        0.015       58.772        5.283        0.008      334.623        4.717      862.366
04/24/2013  05:08:00      -71.512      -11.656      -15.896       11.477       15.392        6.998      131.731      236.910       48.973        0.296        0.021       72.456        4.831        0.004      334.436        4.408      862.364
04/24/2013  05:09:00      -67.451      -13.428      -12.596       14.841       12.597        8.349      220.244      158.682       69.699        0.267        0.022       68.775        6.824        0.010      334.343        4.252      862.382
04/24/2013  05:10:00      -75.343      -21.241       -7.773       26.024       19.614       14.434      677.230      384.706      208.349        0.373        0.064       78.280       15.819        0.041      334.400        4.349      862.411
04/24/2013  05:11:00      -51.985       -9.818        1.721       23.303       29.502       15.572      543.019      870.390      242.483        0.223        0.083       52.904       12.749        0.058      334.430        4.399      862.430
04/24/2013  05:12:00      -86.265       -9.571      -12.499       20.982       17.698       10.728      440.251      313.216      115.087        0.428        0.043       86.795        9.478        0.012      334.460        4.448      862.441
04/24/2013  05:13:00      -71.752      -26.554       -8.161       22.347       26.592       14.799      499.391      707.124      219.001        0.367        0.071       76.507       12.805        0.028      334.354        4.272      862.450
04/24/2013  05:14:00        0.291      -46.872        5.066       28.381       18.765       16.206      805.481      352.118      262.644        0.182        0.071       46.873       13.872        0.088      334.412        4.368      862.471
04/24/2013  05:15:00      -51.692      -48.767       -5.499       24.722       13.904       11.697      611.174      193.329      136.812        0.301        0.047       71.066        8.569        0.015      334.407        4.359      862.492
04/24/2013  05:16:00      -86.922      -37.450       -7.356       21.892       11.515       12.624      479.276      132.589      159.360        0.489        0.039       94.647        9.677        0.010      334.477        4.474      862.482
04/24/2013  05:17:00     -110.714      -50.428       -1.407       23.516       23.489       15.317      553.012      551.739      234.623        0.807        0.067      121.657       11.895        0.010      334.458        4.445      862.461
04/24/2013  05:18:00     -102.837      -28.114       -5.695       21.747       23.094       17.382      472.918      533.311      302.149        0.635        0.065      106.611       11.374        0.011      334.359        4.280      862.463
04/24/2013  05:19:00      -69.067      -43.397        2.236       36.512       19.866       15.675     1333.130      394.650      245.712        0.432        0.099       81.569       16.886        0.043      334.345        4.257      862.467
04/24/2013  05:20:00      -12.261      -40.754       -4.750       15.495       16.730       15.840      240.084      279.889      250.905        0.130        0.039       42.559       12.500        0.086      334.537        4.575      862.484
04/24/2013  05:21:00      -83.204      -38.389        0.743       54.346       26.475       15.707     2953.487      700.939      246.699        0.615        0.195       91.633       22.691        0.061      334.517        4.542      862.474
04/24/2013  05:22:00     -140.404      -59.686       -1.671       21.641       27.679       14.958      468.352      766.143      223.756        1.237        0.073      152.563        8.913        0.003      334.439        4.412      862.457
04/24/2013  05:23:00     -109.472      -42.679       -6.506       20.409       21.146       14.310      416.513      447.156      204.766        0.746        0.053      117.497       10.826        0.008      334.273        4.137      862.458
04/24/2013  05:24:00      -75.478      -35.923        1.229       33.060       19.582       18.776     1092.938      383.455      352.554        0.441        0.091       83.591       19.846        0.056      334.253        4.103      862.464
04/24/2013  05:25:00     -103.915      -35.393       -9.983       18.235       19.805       13.574      332.532      392.247      184.252        0.653        0.045      109.777       10.321        0.009      334.274        4.140      862.466
04/24/2013  05:26:00      -94.502      -29.907       -4.358       24.912       20.847       15.971      620.600      434.593      255.083        0.558        0.066       99.121       13.581        0.019      334.254        4.106      862.464
04/24/2013  05:27:00      -94.249      -30.840        2.708       28.867       23.571       14.660      833.289      555.576      214.910        0.572        0.080       99.166       12.524        0.016      334.267        4.126      862.473
04/24/2013  05:28:00      -87.661      -39.035       10.213       45.836       30.078       16.807     2100.902      904.686      282.484        0.630        0.164       95.959       18.655        0.038      334.277        4.144      862.491
04/24/2013  05:29:00     -105.710      -47.515       -2.854       17.314       23.650       14.739      299.768      559.339      217.238        0.726        0.054      115.897       10.183        0.008      334.226        4.060      862.503
04/24/2013  05:30:00     -111.589      -28.601      -13.611       19.273       15.585       11.413      371.437      242.895      130.252        0.710        0.037      115.196        9.715        0.007      334.133        3.904      862.520
04/24/2013  05:31:00     -100.971      -17.567       -8.423       30.925       19.891       18.251      956.351      395.645      333.086        0.613        0.084      102.488       16.390        0.026      334.048        3.764      862.542
04/24/2013  05:32:00     -125.098      -37.055       -3.399       34.190       26.387       16.298     1168.986      696.269      265.624        0.958        0.107      130.471       13.912        0.011      333.966        3.629      862.563
04/24/2013  05:33:00     -148.764      -48.223      -11.049       27.630       29.286       20.345      763.421      857.654      413.918        1.331        0.102      156.385       17.932        0.013      333.942        3.588      862.581
04/24/2013  05:34:00     -118.516      -21.255       -5.073       57.490       24.696       23.472     3305.080      609.905      550.926        0.949        0.223      120.407       26.713        0.049      333.842        3.422      862.588
04/24/2013  05:35:00     -134.364      -21.524       -8.087       34.577       39.361       22.126     1195.587     1549.254      489.561        1.091        0.162      136.077       17.502        0.017      333.694        3.176      862.597
04/24/2013  05:36:00     -109.759       -7.651       -2.700       52.444       34.522       26.407     2750.417     1191.763      697.338        0.838        0.232      110.026       28.632        0.068      333.790        3.334      862.605
04/24/2013  05:37:00     -146.496      -22.386      -13.245       39.025       28.808       24.744     1522.944      829.893      612.256        1.255        0.148      148.196       24.190        0.027      333.775        3.309      862.599
04/24/2013  05:38:00     -172.114       -8.022       -2.562       47.714       31.594       26.211     2276.630      998.203      687.031        1.683        0.198      172.301       29.269        0.029      333.814        3.373      862.611
04/24/2013  05:39:00     -177.433      -26.405      -11.896       29.793       27.426       20.146      887.641      752.183      405.877        1.718        0.102      179.387       15.393        0.007      333.849        3.433      862.623
04/24/2013  05:40:00     -170.972      -42.748      -11.572       44.091       41.866       24.317     1944.037     1752.764      591.327        1.774        0.214      176.235       25.514        0.021      333.907        3.529      862.616
04/24/2013  05:41:00     -107.974      -31.572       -9.185       56.571       37.444       26.289     3200.310     1402.075      691.099        0.902        0.265      112.495       26.958        0.057      333.921        3.553      862.617
04/24/2013  05:42:00     -123.919       -6.813       -3.219       41.883       33.105       26.386     1754.181     1095.934      696.213        0.948        0.177      124.107       25.545        0.042      333.866        3.462      862.614
04/24/2013  05:43:00     -133.032       -5.257       -9.260       42.776       33.735       20.547     1829.814     1138.027      422.176        1.060        0.170      133.136       19.961        0.022      333.946        3.595      862.616
04/24/2013  05:44:00     -140.201       18.391      -17.258       29.073       26.926       20.922      845.212      724.999      437.716        1.115        0.100      141.402        7.555        0.003      333.927        3.563      862.611
04/24/2013  05:45:00     -164.252      -18.140      -10.405       47.393       34.647       27.201     2246.075     1200.422      739.890        1.580        0.209      165.251       22.417        0.018      333.897        3.512      862.608
04/24/2013  05:46:00     -180.247       -9.213      -16.231       36.192       30.911       21.352     1309.860      955.515      455.911        1.778        0.136      180.483       18.777        0.011      333.951        3.602      862.610
04/24/2013  05:47:00     -116.342      -12.269        2.351       51.629       50.894       29.500     2665.534     2590.186      870.276        0.991        0.306      116.987       29.871        0.065      333.876        3.477      862.631
04/24/2013  05:48:00     -180.629       11.332      -23.581       46.437       49.681       20.915     2156.385     2468.163      437.423        1.919        0.253      180.984       18.020        0.010      333.967        3.627      862.646
04/24/2013  05:49:00     -124.466      -36.749      -15.164       40.598       33.732       26.213     1648.218     1137.822      687.121        1.027        0.174      129.777       22.547        0.030      333.998        3.681      862.640
04/24/2013  05:50:00     -155.055      -44.526      -15.246       30.419       31.796       18.318      925.332     1010.986      335.555        1.426        0.114      161.322       11.200        0.005      333.926        3.560      862.636
04/24/2013  05:51:00     -120.462      -12.332       -5.277       32.878       39.113       18.280     1080.931     1529.808      334.176        0.882        0.147      121.091       14.137        0.014      334.049        3.766      862.643
04/24/2013  05:52:00     -161.548       11.602      -14.490       28.656       29.553       18.309      821.180      873.404      335.237        1.424        0.101      161.964        8.434        0.003      334.085        3.824      862.662
04/24/2013  05:53:00     -143.296       22.813      -15.651       32.686       40.043       22.893     1068.358     1603.413      524.098        1.225        0.160      145.101       15.963        0.012      334.101        3.851      862.678
04/24/2013  05:54:00     -154.059      -25.832      -12.357       26.469       43.996       23.919      700.589     1935.666      572.109        1.388        0.160      156.209       17.312        0.012      334.070        3.800      862.706
04/24/2013  05:55:00     -166.579      -40.337       -9.113       33.146       46.207       20.088     1098.637     2135.120      403.527        1.655        0.182      171.393       17.561        0.010      333.967        3.628      862.719
04/24/2013  05:56:00     -138.238      -36.725       -5.767       44.806       36.809       24.729     2007.576     1354.924      611.510        1.223        0.199      143.033       23.599        0.027      333.983        3.655      862.750
04/24/2013  05:57:00     -159.442       14.927       -6.443       47.383       34.948       22.086     2245.190     1221.363      487.794        1.482        0.198      160.140       20.739        0.017      333.973        3.639      862.788
04/24/2013  05:58:00     -131.236       -2.135       -9.021       53.200       44.732       27.312     2830.199     2000.938      745.972        1.144        0.279      131.254       26.083        0.039      333.989        3.666      862.784
04/24/2013  05:59:00     -163.213       24.452      -18.212       35.402       43.699       25.910     1253.273     1909.599      671.305        1.570        0.192      165.035       13.573        0.007      334.098        3.845      862.806
04/24/2013  06:00:00      -99.922      -11.288       -5.792       52.548       39.294       25.863     2761.323     1544.021      668.894        0.756        0.249      100.558       22.827        0.052      334.018        3.714      862.815
04/24/2013  06:01:00     -112.993      -50.355       -7.196       39.489       46.982       26.043     1559.395     2207.272      678.253        0.990        0.222      123.706       20.846        0.028      334.119        3.883      862.823
04/24/2013  06:02:00     -113.333      -30.961       -6.357       40.857       44.315       26.182     1669.272     1963.786      685.495        0.908        0.216      117.486       20.542        0.031      334.067        3.796      862.817
04/24/2013  06:03:00     -140.535       -4.301       -9.731       64.727       42.146       25.580     4189.554     1776.302      654.324        1.324        0.331      140.600       25.910        0.034      333.949        3.598      862.825
04/24/2013  06:04:00     -164.000       32.667      -11.728       44.137       41.148       21.059     1948.095     1693.119      443.481        1.609        0.204      167.222       16.186        0.009      334.041        3.752      862.830
04/24/2013  06:05:00     -208.925       70.460      -14.777       49.218       34.389       27.690     2422.456     1182.613      766.709        2.660        0.219      220.487       23.339        0.011      334.289        4.159      862.820
04/24/2013  06:06:00     -138.732       24.128      -13.991       40.858       42.369       26.689     1669.372     1795.149      712.282        1.210        0.209      140.814       15.136        0.012      334.133        3.904      862.818
04/24/2013  06:07:00     -171.955       33.594      -19.766       50.825       44.288       24.175     2583.216     1961.404      584.445        1.811        0.256      175.206       16.432        0.009      334.064        3.788      862.828
04/24/2013  06:08:00     -143.444       14.724      -15.716       41.696       35.847       23.207     1738.551     1285.029      538.582        1.230        0.178      144.198       11.494        0.006      334.068        3.795      862.849
04/24/2013  06:09:00     -133.285      -32.504      -12.983       40.508       38.966       27.882     1640.887     1518.330      777.416        1.146        0.197      137.191       17.129        0.016      333.923        3.557      862.858
04/24/2013  06:10:00     -123.829        7.756      -18.643       79.104       43.772       26.104     6257.404     1915.954      681.413        1.230        0.443      124.072       21.248        0.029      333.913        3.539      862.859
04/24/2013  06:11:00     -140.182       14.947      -14.562       55.549       40.552       34.176     3085.723     1644.437     1168.017        1.299        0.295      140.976       28.304        0.040      333.883        3.490      862.871
04/24/2013  06:12:00     -116.769      -11.516       -8.967       42.026       42.439       27.709     1766.220     1801.042      767.814        0.909        0.217      117.336       22.278        0.036      333.936        3.578      862.889
04/24/2013  06:13:00     -108.413       -4.521      -15.088       39.826       35.601       18.674     1586.141     1267.405      348.711        0.760        0.160      108.507       18.178        0.028      333.947        3.597      862.897
04/24/2013  06:14:00      -35.099       -4.844        1.911       43.380       31.562       20.096     1881.816      996.152      403.860        0.227        0.164       35.431       22.389        0.399      333.858        3.450      862.917
04/24/2013  06:15:00      -23.714      -27.980       11.152       35.900       27.674       21.372     1288.830      765.871      456.775        0.199        0.126       36.678       14.702        0.161      333.858        3.450      862.934
04/24/2013  06:16:00      -61.590      -23.954       -6.168       37.708       29.059       18.736     1421.903      844.431      351.028        0.351        0.131       66.085       15.589        0.056      333.864        3.460      862.942
04/24/2013  06:17:00      -62.084       10.522       -7.674       28.397       20.810       16.264      806.389      433.043      264.529        0.276        0.075       62.970        8.988        0.020      334.019        3.716      862.935
04/24/2013  06:18:00      -33.114       -4.373       -8.348       19.619       18.663        9.977      384.891      348.322       99.548        0.101        0.042       33.402        7.604        0.052      334.046        3.760      862.949
04/24/2013  06:19:00      -78.033      -31.294       -8.609       26.938       23.161       16.249      725.629      536.419      264.039        0.433        0.076       84.075       13.065        0.024      333.868        3.465      862.966
04/24/2013  06:20:00      -66.194      -28.861      -13.038       35.403       29.470       17.753     1253.381      868.463      315.184        0.391        0.122       72.213       15.628        0.047      333.904        3.525      862.985
04/24/2013  06:21:00       -6.305      -43.315        3.458       35.260       20.553       25.187     1243.247      422.426      634.372        0.211        0.115       43.772       16.364        0.140      333.883        3.490      862.999
04/24/2013  06:22:00      -93.753      -56.846      -12.850       29.458       26.090       15.311      867.789      680.680      234.440        0.698        0.089      109.641        8.738        0.006      333.812        3.371      863.016
04/24/2013  06:23:00      -58.400      -73.362        1.485       34.050       47.120       31.268     1159.421     2220.254      977.671        0.658        0.218       93.769       26.283        0.079      333.861        3.454      863.023
04/24/2013  06:24:00      -52.547      -69.453       -0.426       48.370       30.973       30.286     2339.684      959.313      917.240        0.590        0.211       87.092       29.069        0.111      333.871        3.470      863.027
04/24/2013  06:25:00      -57.896      -28.384        6.535       31.806       37.777       19.442     1011.635     1427.091      378.003        0.351        0.141       64.480       17.341        0.072      333.887        3.499      863.039
04/24/2013  06:26:00     -118.426       -7.162      -17.614       27.139       18.403       16.951      736.518      338.671      287.323        0.787        0.068      118.642       15.350        0.017      333.837        3.414      863.040
04/24/2013  06:27:00     -128.256      -18.238      -15.915       22.999       20.184       16.501      528.976      407.385      272.290        0.912        0.060      129.546       13.290        0.011      333.839        3.416      863.025
04/24/2013  06:28:00     -108.918      -41.150      -11.996       29.039       29.489       17.422      843.238      869.581      303.537        0.786        0.101      116.433       10.606        0.008      333.936        3.578      863.010
04/24/2013  06:29:00      -97.657      -39.964      -17.623       26.133       31.407       19.696      682.937      986.424      387.913        0.675        0.103      105.518       14.015        0.018      334.046        3.760      862.996
04/24/2013  06:30:00     -125.380      -18.720      -18.260       24.802       24.393       15.310      615.119      595.042      234.396        0.892        0.072      126.770       12.555        0.010      334.036        3.742      863.003
04/24/2013  06:31:00     -121.405       -5.843      -18.435       19.288       23.838       16.565      372.026      568.246      274.391        0.816        0.061      121.545       10.268        0.007      333.930        3.568      863.022
04/24/2013  06:32:00     -135.236      -18.539      -19.452       38.157       23.143       15.661     1455.984      535.576      245.278        1.062        0.112      136.501       18.564        0.018      333.906        3.530      863.041
04/24/2013  06:33:00     -100.507      -44.338      -12.133       50.157       27.656       26.002     2515.726      764.844      676.108        0.808        0.198      109.852       28.707        0.068      334.037        3.745      863.060
04/24/2013  06:34:00      -88.987      -55.904       -4.911       46.795       27.636       22.225     2189.739      763.764      493.952        0.726        0.172      105.090       16.137        0.024      334.074        3.806      863.072
04/24/2013  06:35:00     -117.838      -26.126      -21.997       32.080       24.562       14.500     1029.116      603.277      210.262        0.845        0.092      120.700       13.937        0.013      334.075        3.808      863.083
04/24/2013  06:36:00      -87.000      -38.354      -12.983       30.694       24.198       22.684      942.116      585.553      514.574        0.562        0.102       95.079       15.585        0.027      334.145        3.924      863.087
04/24/2013  06:37:00     -114.921      -22.684      -20.281       32.681       28.580       20.243     1068.038      816.791      409.761        0.821        0.115      117.138       13.246        0.013      334.172        3.970      863.095
04/24/2013  06:38:00      -83.266      -21.448      -22.417       19.217       20.390       20.500      369.295      415.733      420.268        0.455        0.060       85.984       10.352        0.014      334.208        4.028      863.099
04/24/2013  06:39:00      -92.518      -13.836      -11.549       35.426       29.753       22.883     1255.030      885.216      523.642        0.577        0.133       93.547       15.948        0.029      334.182        3.985      863.115
04/24/2013  06:40:00     -134.840      -20.298      -13.036       30.195       19.139       16.607      911.712      366.297      275.783        1.016        0.078      136.359       14.340        0.011      334.142        3.920      863.128
04/24/2013  06:41:00     -136.890      -41.203      -14.955       19.900       23.171       17.716      396.003      536.905      313.862        1.095        0.062      142.957        9.530        0.004      334.199        4.015      863.134
04/24/2013  06:42:00      -95.012      -30.483      -12.167       44.123       20.931       14.527     1946.862      438.127      211.025        0.635        0.130       99.782       18.119        0.033      334.260        4.115      863.128
04/24/2013  06:43:00     -131.284      -19.432      -16.599       27.335       25.982       22.089      747.227      675.058      487.943        0.990        0.096      132.714       16.695        0.016      334.206        4.026      863.125
04/24/2013  06:44:00     -125.587        4.527      -13.318       38.125       22.477       19.139     1453.515      505.219      366.302        0.915        0.116      125.669       12.637        0.010      334.162        3.952      863.132
04/24/2013  06:45:00     -117.625        2.351       -1.997       38.952       29.378       18.817     1517.292      863.065      354.075        0.829        0.137      117.648       18.608        0.025      334.183        3.988      863.125
04/24/2013  06:46:00      -88.120      -21.039      -10.960       28.889       29.397       17.174      834.585      864.164      294.963        0.516        0.100       90.597       13.660        0.023      334.251        4.101      863.124
04/24/2013  06:47:00      -77.689      -61.366       -6.660       27.177       21.821       17.980      738.579      476.155      323.286        0.569        0.077       99.002       14.694        0.022      334.330        4.231      863.125
04/24/2013  06:48:00      -80.554      -35.673       -4.038       38.423       23.172       17.966     1476.308      536.942      322.764        0.506        0.117       88.100       16.241        0.034      334.421        4.384      863.139
04/24/2013  06:49:00      -67.223      -21.484       -6.350       27.692       24.559       15.074      766.838      603.139      227.232        0.331        0.080       70.573       15.343        0.047      334.482        4.484      863.155
04/24/2013  06:50:00      -58.892      -20.457      -12.773       20.194       15.757       10.739      407.787      248.292      115.322        0.241        0.039       62.344        6.010        0.009      334.530        4.564      863.158
04/24/2013  06:51:00      -83.012      -48.842       -9.257       19.956       17.318       14.710      398.234      299.907      216.382        0.514        0.046       96.315        8.275        0.007      334.574        4.634      863.169
04/24/2013  06:52:00     -111.541      -40.190      -14.851       24.003       18.802       14.802      576.127      353.499      219.087        0.771        0.057      118.561       11.288        0.009      334.610        4.696      863.174
04/24/2013  06:53:00      -94.838      -34.741       -8.195       42.263       31.994       19.397     1786.145     1023.630      376.247        0.673        0.159      101.001       14.390        0.020      334.613        4.700      863.174
04/24/2013  06:54:00      -58.022      -44.045        0.703       53.469       18.689       22.371     2858.921      349.290      500.442        0.451        0.185       72.846       30.782        0.179      334.635        4.737      863.182
04/24/2013  06:55:00      -48.930      -21.665       -4.427       21.310       23.504       14.749      454.103      552.435      217.543        0.205        0.061       53.512       13.444        0.063      334.675        4.805      863.177
04/24/2013  06:56:00      -87.139       -9.511      -15.195       19.416       13.566       10.555      376.978      184.040      111.415        0.429        0.034       87.656        8.557        0.010      334.632        4.733      863.191
04/24/2013  06:57:00      -86.917      -32.608       -8.602       17.348       19.089       11.877      300.942      364.409      141.060        0.475        0.040       92.832        7.791        0.007      334.733        4.900      863.200
04/24/2013  06:58:00     -121.369      -34.169       -5.713       28.570       21.031       15.744      816.244      442.284      247.858        0.872        0.075      126.087       10.869        0.007      334.683        4.817      863.203
04/24/2013  06:59:00      -90.576      -26.955      -14.518       38.972       20.907       17.495     1518.850      437.105      306.083        0.570        0.113       94.501       14.588        0.024      334.767        4.956      863.216
04/24/2013  07:00:00      -98.513        7.581       -1.690       29.940       22.255       20.850      896.406      495.286      434.708        0.580        0.091       98.804       17.280        0.031      334.676        4.805      863.248
04/24/2013  07:01:00      -92.701        1.670      -17.026       24.104       18.829       15.471      581.010      354.522      239.340        0.503        0.059       92.716        4.774        0.003      334.797        5.007      863.269
04/24/2013  07:02:00      -71.591      -11.776      -11.249       16.235       14.472        9.339      263.584      209.426       87.223        0.298        0.028       72.553        5.438        0.006      334.873        5.133      863.284
04/24/2013  07:03:00      -84.705       -9.504      -17.014       13.760        9.188        8.358      189.345       84.410       69.863        0.395        0.017       85.236        4.673        0.003      334.933        5.234      863.298
04/24/2013  07:04:00      -57.203      -32.325       -9.800       12.637       14.084        8.393      159.691      198.354       70.449        0.242        0.021       65.704        4.640        0.005      335.024        5.383      863.313
04/24/2013  07:05:00      -89.460      -29.814       -9.561       14.942       11.846       10.812      223.250      140.323      116.903        0.473        0.024       94.297        7.741        0.007      335.121        5.547      863.321
04/24/2013  07:06:00      -58.670      -18.158        2.228       33.714       15.081       13.986     1136.638      227.427      195.601        0.267        0.078       61.415       15.713        0.065      335.285        5.816      863.346
04/24/2013  07:07:00      -27.369      -17.070       -0.189       14.092       12.379        9.420      198.595      153.235       88.727        0.074        0.022       32.256        5.755        0.032      335.369        5.957      863.375
04/24/2013  07:08:00      -41.080       -7.202        1.108        8.966       10.962        7.791       80.391      120.173       60.699        0.100        0.013       41.707        6.111        0.021      335.402        6.011      863.407
04/24/2013  07:09:00      -28.945      -17.765        1.100       15.450       20.425       11.026      238.709      417.183      121.567        0.097        0.039       33.962        8.394        0.061      335.492        6.162      863.418
04/24/2013  07:10:00      -41.243      -12.158       -1.629       11.146       14.836        8.019      124.243      220.092       64.302        0.113        0.020       42.997        6.447        0.022      335.511        6.195      863.420
04/24/2013  07:11:00      -31.006        3.271       -0.538       15.072        9.688        9.886      227.153       93.850       97.730        0.070        0.021       31.178        8.831        0.080      335.558        6.271      863.428
04/24/2013  07:12:00      -23.955       -0.370       -7.014       11.050        7.637        7.409      122.113       58.320       54.889        0.043        0.012       23.958        4.914        0.042      335.531        6.228      863.438
04/24/2013  07:13:00      -26.472        0.937       -0.809       11.371       10.842        4.556      129.309      117.546       20.756        0.048        0.013       26.488        3.850        0.021      335.567        6.289      863.443
04/24/2013  07:14:00       -2.683       13.045        8.157       19.367       15.912       11.408      375.065      253.177      130.135        0.050        0.038       13.319       11.177        0.704      335.757        6.604      863.468
04/24/2013  07:15:00        4.558       27.182       33.907       19.092       20.048       17.826      364.522      401.936      317.771        0.150        0.054       27.561       13.711        0.247      336.020        7.044      863.480
04/24/2013  07:16:00        6.457       29.487       16.244       15.468       13.802       22.874      239.256      190.504      523.228        0.106        0.048       30.186       14.768        0.239      335.806        6.685      863.476
04/24/2013  07:17:00       39.473       34.579        2.730       26.181       22.147       15.577      685.429      490.509      242.646        0.209        0.071       52.476        7.742        0.022      335.701        6.511      863.472
04/24/2013  07:18:00       39.846       32.940        4.638       19.471       13.154       12.783      379.127      173.022      163.412        0.170        0.036       51.699        8.913        0.030      335.666        6.452      863.472
04/24/2013  07:19:00       24.174       18.858        2.915       11.950        8.197       12.435      142.801       67.196      154.621        0.066        0.018       30.660        6.908        0.051      335.724        6.548      863.466
04/24/2013  07:20:00       42.493       31.156        8.152       16.600       13.581       15.863      275.556      184.456      251.626        0.178        0.036       52.692       11.231        0.045      335.869        6.790      863.466
04/24/2013  07:21:00       66.338       58.928        3.781       24.144       19.622       23.266      582.930      385.036      541.323        0.470        0.075       88.731       13.819        0.024      335.803        6.680      863.473
04/24/2013  07:22:00       51.024       78.277       33.296       30.802       26.397       31.060      948.752      696.797      964.710        0.622        0.131       93.439       15.881        0.029      335.880        6.809      863.491
04/24/2013  07:23:00        3.815       -0.294       37.735       18.204       39.979       21.275      331.370     1598.353      452.615        0.191        0.119        3.826       24.488       40.963      336.128        7.222      863.505
04/24/2013  07:24:00       12.541       14.509       14.422       18.795       30.506       23.021      353.270      930.601      529.984        0.119        0.091       19.177       16.629        0.752      336.055        7.101      863.501
04/24/2013  07:25:00        3.714       40.173        1.980       20.146       20.626       17.906      405.850      425.418      320.615        0.139        0.058       40.344       11.293        0.078      335.937        6.903      863.487
04/24/2013  07:26:00       17.759       28.383        8.986       19.851       14.457       15.623      394.055      209.010      244.069        0.102        0.042       33.481       11.242        0.113      335.950        6.925      863.478
04/24/2013  07:27:00       66.537       54.154        5.158       15.753       14.870       14.577      248.150      221.119      212.492        0.403        0.034       85.790       10.234        0.014      335.682        6.479      863.492
04/24/2013  07:28:00      102.227      100.171       40.427       36.811       37.446       40.647     1355.059     1402.181     1652.213        1.326        0.220      143.125       19.785        0.019      335.847        6.753      863.533
04/24/2013  07:29:00      133.114       95.992       17.070       53.725       41.995       31.821     2886.427     1763.565     1012.590        1.644        0.283      164.115       12.752        0.006      335.628        6.388      863.565
04/24/2013  07:30:00       15.826       39.174       40.323       34.817       32.449       26.970     1212.190     1052.951      727.395        0.320        0.150       42.250       15.076        0.127      336.121        7.210      863.580
04/24/2013  07:31:00       38.626       63.582       -0.602       27.676       21.785       24.858      765.937      474.590      617.929        0.370        0.093       74.395        6.781        0.008      335.722        6.546      863.581
04/24/2013  07:32:00       93.774       56.158        9.402       24.007       24.462       19.359      576.353      598.385      374.762        0.679        0.077      109.304       12.225        0.013      335.644        6.417      863.583
04/24/2013  07:33:00       64.527       38.108       -0.434       28.299       22.522       20.603      800.847      507.248      424.500        0.367        0.087       74.940        8.569        0.013      335.656        6.436      863.579
04/24/2013  07:34:00       41.280       20.305       -1.995       24.677       17.291       16.863      608.975      298.987      284.349        0.166        0.060       46.003       16.071        0.122      335.834        6.731      863.578
04/24/2013  07:35:00       22.807       13.553        7.514       16.824       17.265       13.255      283.037      298.072      175.706        0.076        0.038       26.530        6.037        0.052      335.972        6.962      863.563
04/24/2013  07:36:00       34.361       51.088       32.379       31.282       30.816       26.040      978.533      949.629      678.064        0.372        0.130       61.568       21.709        0.124      336.123        7.214      863.574
04/24/2013  07:37:00       -7.451       19.862       57.185       16.931       29.277       15.692      286.673      857.155      246.246        0.255        0.070       21.214       12.558        0.350      336.604        8.017      863.592
04/24/2013  07:38:00        2.435       13.082       45.171       19.457       22.983       11.419      378.570      528.226      130.402        0.163        0.052       13.307       11.165        0.704      336.642        8.081      863.587
04/24/2013  07:39:00      -13.448       -8.278       -6.392       14.155       11.337       11.514      200.368      128.528      132.573        0.038        0.023       15.792        7.290        0.213      336.217        7.371      863.569
04/24/2013  07:40:00        1.451       30.558       -4.988       18.056       21.481       18.458      326.005      461.454      340.688        0.104        0.056       30.592       12.754        0.174      336.153        7.264      863.561
04/24/2013  07:41:00       10.193       54.693       -6.188       31.677       30.114       15.020     1003.405      906.875      225.605        0.263        0.107       55.635        6.834        0.015      336.287        7.489      863.557
04/24/2013  07:42:00      -16.698       62.091       -7.269       23.246       23.980       19.421      540.384      575.018      377.184        0.284        0.075       64.297       12.793        0.040      336.369        7.625      863.548
04/24/2013  07:43:00       -5.477       13.347       13.621       20.479       21.781       17.818      419.382      474.421      317.477        0.080        0.061       14.427       17.312        1.440      336.852        8.432      863.533
04/24/2013  07:44:00       13.802       35.071       14.646       22.644       23.548       18.487      512.765      554.521      341.785        0.152        0.070       37.689       18.363        0.237      336.731        8.231      863.552
04/24/2013  07:45:00       31.529       45.056        5.429       18.871       19.160       18.798      356.131      367.117      353.368        0.206        0.054       54.992        3.230        0.003      336.352        7.596      863.568
04/24/2013  07:46:00       41.645       36.556       22.468       19.382       22.663       15.332      375.645      513.609      235.074        0.235        0.056       55.414        8.424        0.023      336.512        7.864      863.586
04/24/2013  07:47:00       25.638       46.976       38.808       26.843       25.323       22.926      720.552      641.236      525.606        0.313        0.094       53.517       13.931        0.068      336.733        8.233      863.607
04/24/2013  07:48:00       17.430       41.132       17.696       27.465       19.581       23.713      754.306      383.432      562.324        0.200        0.085       44.673       11.789        0.070      336.781        8.314      863.621
04/24/2013  07:49:00       19.643       70.924       -0.703       21.139       25.368       19.054      446.864      643.523      363.063        0.343        0.073       73.594       17.675        0.058      336.607        8.023      863.622
04/24/2013  07:50:00       46.116       49.643        9.062       20.073       14.719       17.320      402.927      216.641      299.984        0.280        0.046       67.758        9.925        0.021      336.517        7.872      863.625
04/24/2013  07:51:00       40.289       40.856       10.502       23.583       15.989       18.401      556.161      255.659      338.603        0.228        0.058       57.380       13.168        0.053      336.541        7.911      863.636
04/24/2013  07:52:00       34.182       46.011       12.584       37.847       16.985       16.298     1432.432      288.487      265.629        0.271        0.099       57.319        9.474        0.027      336.678        8.142      863.635
04/24/2013  07:53:00       70.542       52.806        6.929       17.013       16.808       25.576      289.448      282.519      654.109        0.452        0.061       88.117        6.150        0.005      336.557        7.941      863.642
04/24/2013  07:54:00        4.981       69.948       64.923       28.326       32.621       33.092      802.345     1064.146     1095.112        0.605        0.148       70.125       19.624        0.078      336.963        8.617      863.660
04/24/2013  07:55:00       -0.905       25.398       64.434       18.582       33.275       18.024      345.283     1107.248      324.866        0.329        0.089       25.414       17.783        0.490      337.399        9.347      863.667
04/24/2013  07:56:00       25.036       70.193       73.567       36.251       34.292       30.181     1314.148     1175.916      910.896        0.718        0.170       74.525       30.969        0.173      336.858        8.442      863.666
04/24/2013  07:57:00       76.231       58.928       37.783       35.763       20.952       31.336     1279.006      438.981      981.968        0.670        0.135       96.351       24.729        0.066      336.620        8.044      863.669
04/24/2013  07:58:00       60.639       30.067       21.184       28.519       21.905       30.069      813.326      479.834      904.166        0.361        0.110       67.684       13.445        0.039      336.715        8.203      863.680
04/24/2013  07:59:00       76.060       57.900       47.466       55.940       49.002       40.743     3129.250     2401.176     1659.991        0.929        0.360       95.590       35.422        0.137      336.860        8.445      863.695
04/24/2013  08:00:00       21.658       60.527       52.317       39.209       30.308       36.101     1537.325      918.598     1303.276        0.531        0.188       64.285       30.816        0.230      336.943        8.583      863.707
04/24/2013  08:01:00       17.667       36.706       35.532       23.436       39.144       24.978      549.261     1532.253      623.882        0.281        0.135       40.737       23.799        0.341      337.022        8.716      863.706
04/24/2013  08:02:00       20.032       34.662       26.713       23.259       33.690       24.020      540.968     1134.989      576.969        0.228        0.113       40.034       16.980        0.180      337.198        9.011      863.694
04/24/2013  08:03:00       -1.106       40.726       67.598       19.731       41.021       22.102      389.319     1682.695      488.487        0.439        0.128       40.741       23.443        0.331      337.488        9.493      863.688
04/24/2013  08:04:00        4.807       42.683       75.335       23.848       38.234       18.476      568.734     1461.837      341.352        0.495        0.119       42.953       18.873        0.193      337.395        9.339      863.697
04/24/2013  08:05:00        7.809       11.283       52.185       31.743       25.601       37.793     1007.601      655.434     1428.305        0.300        0.155       13.722       23.511        2.936      337.495        9.507      863.687
04/24/2013  08:06:00       11.322       39.553       66.192       29.477       42.357       24.842      868.866     1794.109      617.105        0.468        0.164       41.141       24.369        0.351      337.624        9.724      863.694
04/24/2013  08:07:00        1.651       24.735       72.325       17.966       34.971       18.984      322.783     1222.964      360.403        0.388        0.095       24.790       19.986        0.650      337.713        9.872      863.698
04/24/2013  08:08:00       28.790        1.521       37.118       43.365       40.266       42.659     1880.498     1621.358     1819.759        0.376        0.266       28.830       34.859        1.462      337.457        9.444      863.704
04/24/2013  08:09:00       52.714       66.417       49.031       43.959       28.546       28.612     1932.385      814.883      818.632        0.658        0.178       84.794       15.846        0.035      337.143        8.918      863.706
04/24/2013  08:10:00       87.969       60.862       -0.594       44.032       25.006       35.937     1938.850      625.279     1291.461        0.765        0.193      106.971       32.043        0.090      336.949        8.594      863.699
04/24/2013  08:11:00       62.266       51.774        2.838       43.727       29.599       27.217     1912.089      876.123      740.759        0.505        0.176       80.979       23.007        0.081      337.219        9.045      863.702
04/24/2013  08:12:00       21.596       48.264       47.047       34.161       36.921       46.315     1166.985     1363.195     2145.093        0.484        0.234       52.876       25.314        0.229      337.471        9.468      863.719
04/24/2013  08:13:00       81.742       80.113       67.647       40.012       31.974       29.611     1600.965     1022.358      876.806        1.059        0.175      114.455       17.922        0.025      337.061        8.782      863.733
04/24/2013  08:14:00       14.566       61.244       71.010       29.223       26.914       18.988      853.978      724.370      360.531        0.547        0.097       62.952       17.493        0.077      337.392        9.336      863.746
04/24/2013  08:15:00       40.679       45.257       13.143       15.793       18.396       19.884      249.416      338.414      395.371        0.243        0.049       60.852        8.892        0.021      337.098        8.841      863.746
04/24/2013  08:16:00        4.823       18.772       24.222       20.659       20.663       34.540      426.814      426.971     1193.030        0.150        0.102       19.381       19.587        1.021      337.627        9.728      863.749
04/24/2013  08:17:00       13.858       87.645       92.242       40.900       45.875       28.956     1672.813     2104.523      838.434        1.050        0.231       88.734       27.851        0.099      337.549        9.598      863.741
04/24/2013  08:18:00       20.073       66.309       74.381       34.531       62.485       46.176     1192.385     3904.341     2132.244        0.878        0.361       69.281       49.438        0.509      337.278        9.145      863.753
04/24/2013  08:19:00       41.787      -33.553       15.582       74.759       82.031       41.251     5588.914     6729.145     1701.665        0.856        0.701       53.591       50.113        0.874      337.716        9.878      863.753
04/24/2013  08:20:00       21.049       -1.472       46.158       38.997       79.444       53.269     1520.736     6311.368     2837.639        0.662        0.533       21.101       48.299        5.239      337.805       10.027      863.745
04/24/2013  08:21:00       52.700      -25.407       26.823       51.125       69.183       54.071     2613.760     4786.262     2923.640        0.723        0.516       58.505       46.788        0.640      337.717        9.879      863.733
04/24/2013  08:22:00        7.538       78.517      104.114       36.643       44.867       32.437     1342.678     2013.005     1052.161        1.073        0.220       78.878       34.101        0.187      337.631        9.736      863.739
04/24/2013  08:23:00       -0.427       33.146       82.823       35.851       68.403       43.928     1285.286     4678.940     1929.676        0.792        0.395       33.149       46.034        1.929      337.798       10.016      863.735
04/24/2013  08:24:00       54.833       75.731       86.578       61.342       52.962       47.248     3762.862     2804.979     2232.394        1.252        0.440       93.498       37.104        0.157      337.661        9.787      863.733
04/24/2013  08:25:00      104.848       74.369       54.834       52.836       41.566       43.666     2791.609     1727.769     1906.749        1.298        0.321      128.545       25.341        0.039      337.520        9.549      863.742
04/24/2013  08:26:00       13.999       48.457       77.746       39.972       51.831       37.950     1597.761     2686.419     1440.186        0.716        0.286       50.438       28.352        0.316      337.972       10.309      863.741
04/24/2013  08:27:00       32.392       42.364       57.600       54.579       38.890       36.061     2978.910     1512.408     1300.364        0.598        0.290       53.329       34.954        0.430      337.942       10.257      863.741
04/24/2013  08:28:00       14.254       68.734       84.082       46.250       56.894       39.438     2139.062     3236.954     1555.366        0.946        0.347       70.197       29.544        0.177      338.085       10.498      863.748
04/24/2013  08:29:00       54.472       76.835       55.882       40.970       35.587       46.325     1678.528     1266.453     2146.044        0.854        0.255       94.185       28.837        0.094      337.617        9.713      863.754
04/24/2013  08:30:00       54.738       71.817       66.795       52.235       44.851       46.561     2728.446     2011.604     2167.911        0.976        0.345       90.299       38.508        0.182      337.589        9.666      863.748
04/24/2013  08:31:00       21.453      107.119      130.168       57.864       61.206       42.939     3348.210     3746.183     1843.777        1.891        0.447      109.246       43.534        0.159      337.845       10.094      863.744
04/24/2013  08:32:00       61.438        9.107       60.752       65.371       61.479       43.963     4273.407     3779.650     1932.766        0.877        0.499       62.110       39.113        0.397      337.794       10.008      863.742
04/24/2013  08:33:00       25.987        7.155       43.575       40.559       76.094       38.982     1644.999     5790.369     1519.576        0.579        0.448       26.954       43.994        2.664      338.070       10.472      863.735
04/24/2013  08:34:00       12.660       36.611       44.944       43.986       45.299       30.745     1934.752     2052.044      945.284        0.423        0.247       38.738       25.596        0.437      338.428       11.072      863.742
04/24/2013  08:35:00       87.771       69.278       21.043       47.886       40.474       39.367     2293.042     1638.170     1549.794        0.921        0.274      111.818       25.241        0.051      337.957       10.282      863.747
04/24/2013  08:36:00       91.120       55.220       37.431       54.385       39.372       41.110     2957.683     1550.143     1690.062        0.947        0.310      106.547       31.343        0.087      337.941       10.256      863.743
04/24/2013  08:37:00      170.073      121.561       82.831       75.638       56.308       68.175     5721.099     3170.637     4647.780        3.205        0.677      209.050       53.513        0.066      337.764        9.954      863.740
04/24/2013  08:38:00      144.204       85.513       81.602       89.982       60.152       64.956     8096.807     3618.226     4219.267        2.535        0.797      167.652       47.629        0.081      337.758        9.947      863.742
04/24/2013  08:39:00       61.688       72.053       92.373       57.633       35.230       37.054     3321.619     1241.144     1373.009        1.173        0.297       94.853       14.990        0.025      337.921       10.222      863.746
04/24/2013  08:40:00       82.467       21.502       68.723       95.107      126.764       62.553     9045.358    16069.059     3912.816        2.050        1.451       85.224       69.447        0.664      338.082       10.492      863.751
04/24/2013  08:41:00       66.210       72.501       45.897       84.523       45.324       41.899     7144.136     2054.258     1755.494        1.135        0.548       98.185       44.956        0.210      337.964       10.294      863.756
04/24/2013  08:42:00       66.870       43.070       74.475       76.949       67.663       60.069     5921.091     4578.240     3608.259        1.299        0.705       79.540       54.144        0.463      338.256       10.783      863.774
04/24/2013  08:43:00      115.021       53.932       74.455       91.703       64.174       53.790     8409.458     4118.288     2893.406        1.855        0.771      127.038       28.680        0.051      338.070       10.471      863.786
04/24/2013  08:44:00       64.324      -74.597       15.767       59.494       93.161       48.234     3539.486     8678.954     2326.521        1.224        0.727       98.500       54.380        0.305      338.266       10.800      863.803
04/24/2013  08:45:00       47.633       50.007       44.006       53.117       66.888       57.712     2821.377     4474.065     3330.673        0.866        0.531       69.063       47.090        0.465      338.354       10.950      863.811
04/24/2013  08:46:00      155.453      114.787       48.732       88.259       71.097       77.703     7789.633     5054.737     6037.764        2.930        0.944      193.240       58.748        0.092      338.342       10.927      863.807
04/24/2013  08:47:00      155.420      130.944      108.789       97.712       73.016       72.880     9547.694     5331.400     5311.512        3.666        1.010      203.228       63.734        0.098      338.144       10.593      863.793
04/24/2013  08:48:00       24.050      106.761      127.551       55.990       66.166       41.186     3134.865     4377.893     1696.321        1.873        0.460      109.437       36.938        0.114      338.491       11.178      863.789
04/24/2013  08:49:00        1.711       41.986       90.774       28.639       86.043       44.771      820.217     7403.469     2004.438        1.011        0.511       42.021       55.705        1.757      338.642       11.434      863.786
04/24/2013  08:50:00      141.629      107.170       70.881      103.809       69.623       63.188    10776.324     4847.365     3992.737        2.809        0.981      177.607       58.319        0.108      338.029       10.401      863.777
04/24/2013  08:51:00      134.742       71.894       27.053       89.625       63.206       54.648     8032.651     3995.058     2986.416        1.953        0.751      152.723       30.413        0.040      338.156       10.615      863.778
04/24/2013  08:52:00       72.883      -25.087       15.058       76.156      116.002       47.540     5799.766    13456.503     2260.022        1.384        1.076       77.080       37.132        0.232      338.372       10.978      863.775
04/24/2013  08:53:00       71.797      -10.513       51.044       73.375       70.837       54.981     5383.901     5017.941     3022.953        1.065        0.671       72.563       52.916        0.532      338.812       11.718      863.759
04/24/2013  08:54:00       37.831       17.114       33.661       48.351       59.057       52.733     2337.861     3487.757     2780.817        0.573        0.430       41.521       38.464        0.858      338.648       11.443      863.767
04/24/2013  08:55:00      147.822       80.757       20.368       85.301       52.657       48.625     7276.268     2772.783     2364.344        2.060        0.621      168.443       22.130        0.017      338.436       11.085      863.770
04/24/2013  08:56:00      186.816      119.152       33.508       63.360       51.743       45.558     4014.483     2677.344     2075.488        2.949        0.438      221.580       14.632        0.004      338.014       10.374      863.763
04/24/2013  08:57:00      119.161       82.879       39.846       65.538       48.862       49.259     4295.183     2387.538     2426.407        1.588        0.455      145.149       26.655        0.034      338.286       10.834      863.742
04/24/2013  08:58:00      182.693      134.564       57.884       79.768       58.173       63.083     6362.871     3384.069     3979.521        3.428        0.686      226.901       43.958        0.038      338.207       10.698      863.746
04/24/2013  08:59:00       23.479       11.614       60.627       44.716       73.207       60.255     1999.522     5359.229     3630.625        0.767        0.549       26.194       47.361        3.269      338.278       10.821      863.742
04/24/2013  09:00:00       42.703       50.436       84.494       64.788       61.763       55.875     4197.464     3814.623     3121.974        1.132        0.557       66.085       49.134        0.553      338.425       11.068      863.734
04/24/2013  09:01:00      133.832       98.895      101.766       91.030       63.498       70.422     8286.424     4031.945     4959.200        2.766        0.864      166.407       47.408        0.081      338.207       10.699      863.733
04/24/2013  09:02:00      153.695      126.378       78.564       79.200       57.875       61.096     6272.645     3349.567     3732.712        2.956        0.668      198.981       43.571        0.048      338.272       10.809      863.721
04/24/2013  09:03:00       93.448       73.626       66.013       54.738       56.534       40.176     2996.290     3196.049     1614.116        1.316        0.390      118.968       29.493        0.061      338.279       10.821      863.710
04/24/2013  09:04:00       53.292      -10.410       46.505       63.685       80.227       46.167     4055.793     6436.447     2131.427        0.886        0.631       54.299       46.842        0.744      338.516       11.220      863.684
04/24/2013  09:05:00       13.597      -20.321       56.415       51.509       77.130       50.182     2653.164     5949.005     2518.245        0.745        0.556       24.451       25.967        1.128      338.768       11.644      863.683
04/24/2013  09:06:00       44.586       -7.801       55.657       56.596       60.254       44.133     3203.137     3630.563     1947.744        0.696        0.439       45.263       42.770        0.893      338.921       11.901      863.667
04/24/2013  09:07:00       25.360     -110.263       23.310       50.735       70.947       44.387     2574.051     5033.428     1970.201        1.146        0.479      113.142       26.366        0.054      338.691       11.514      863.647
04/24/2013  09:08:00       32.753       54.298      101.257       73.392       77.757       77.952     5386.450     6046.155     6076.564        1.589        0.875       63.412       74.044        1.363      338.767       11.642      863.631
04/24/2013  09:09:00       53.398       29.100       98.462       78.183       92.496       69.031     6112.633     8555.509     4765.219        1.641        0.972       60.812       58.512        0.926      339.064       12.142      863.625
04/24/2013  09:10:00      122.666      -61.833       56.167      101.325      199.689      115.872    10266.825    39875.854    13426.246        4.278        3.178      137.369      147.568        1.154      338.417       11.050      863.617
04/24/2013  09:11:00       84.851     -136.301      -27.036       48.595       61.387       42.042     2361.461     3768.414     1767.500        1.720        0.395      160.554       30.152        0.035      338.524       11.234      863.599
04/24/2013  09:12:00       42.002       44.533       76.030       60.835       59.435       45.021     3700.887     3532.466     2026.887        0.939        0.463       61.215       41.541        0.461      338.845       11.773      863.581
04/24/2013  09:13:00       56.265      -55.860       28.528       56.161       85.395       42.652     3154.017     7292.353     1819.230        0.968        0.613       79.285       51.651        0.424      338.911       11.884      863.567
04/24/2013  09:14:00      106.090       70.409       33.171       88.098       62.740       42.668     7761.327     3936.332     1820.531        1.541        0.676      127.329       22.889        0.032      338.925       11.907      863.554
04/24/2013  09:15:00       63.009       62.776       49.883       93.701       72.330       43.317     8779.909     5231.602     1876.370        1.314        0.794       88.944       37.830        0.181      339.011       12.052      863.548
04/24/2013  09:16:00       41.820       16.455       74.575       44.267       77.911       45.182     1959.579     6070.200     2041.404        0.882        0.504       44.941       36.793        0.670      339.428       12.753      863.539
04/24/2013  09:17:00       84.711      -64.874       51.039      105.782      143.142       73.185    11189.901    20489.668     5356.040        2.550        1.852      106.699       97.283        0.831      339.269       12.488      863.520
04/24/2013  09:18:00       98.414       74.372       64.985       98.141      125.598       43.732     9631.731    15774.849     1912.455        2.337        1.366      123.355       40.154        0.106      338.958       11.963      863.524
04/24/2013  09:19:00      126.615       42.958       58.166      136.268      131.167       64.224    18569.083    17204.803     4124.658        3.057        1.995      133.704       47.351        0.125      338.892       11.851      863.521
04/24/2013  09:20:00      115.907      -95.069       54.330       90.798      144.639       81.523     8244.367    20920.413     6645.956        3.061        1.791      149.908       92.445        0.380      339.227       12.414      863.523
04/24/2013  09:21:00      123.314       20.523      100.716      107.595      149.569       79.555    11576.583    22370.806     6328.997        3.302        2.014      125.010       90.438        0.523      339.358       12.635      863.514
04/24/2013  09:22:00      169.415      130.760      115.714      164.768       88.322      105.478    27148.595     7800.777    11125.526        5.262        2.304      214.008      104.882        0.240      339.270       12.486      863.517
04/24/2013  09:23:00      169.799      130.495      100.414      135.224       95.136      105.046    18285.479     9050.886    11034.583        4.715        1.919      214.151       85.112        0.158      339.005       12.039      863.529
04/24/2013  09:24:00       66.403       52.721       80.917       82.437       86.492       57.979     6795.928     7480.849     3361.582        1.568        0.882       84.787       41.442        0.239      339.226       12.413      863.520
04/24/2013  09:25:00       73.961       90.121       89.378       99.275       94.489       76.524     9855.575     8928.090     5855.967        2.310        1.232      116.585       64.531        0.306      339.487       12.853      863.545
04/24/2013  09:26:00      236.983      123.237       69.446       92.633       84.647       79.979     8580.831     7165.061     6396.640        4.915        1.107      267.111       39.891        0.022      338.999       12.029      863.540
04/24/2013  09:27:00      229.221      127.037       39.488      109.715      107.487       69.385    12037.339    11553.367     4814.280        4.932        1.420      262.070       62.059        0.056      339.055       12.124      863.517
04/24/2013  09:28:00      258.248      113.655       96.042      161.230      115.670       93.784    25995.122    13379.490     8795.435        6.849        2.409      282.151       54.221        0.037      339.182       12.338      863.511
04/24/2013  09:29:00      250.831      169.428       92.304      157.677      126.938      130.150    24862.137    16113.331    16938.911        7.902        2.896      302.691       96.480        0.102      338.863       11.800      863.500
04/24/2013  09:30:00      268.154      131.775       60.334      150.087      115.663      100.112    22526.194    13378.035    10022.474        6.941        2.296      298.783       91.442        0.094      338.843       11.767      863.488
04/24/2013  09:31:00      149.543       90.258       35.865      138.724       89.868       70.706    19244.425     8076.266     4999.390        3.205        1.616      174.670       58.111        0.111      339.147       12.279      863.477
04/24/2013  09:32:00      207.670       95.214       60.854      145.845       82.285       80.057    21270.839     6770.812     6409.156        4.517        1.723      228.457       63.097        0.076      339.164       12.307      863.481
04/24/2013  09:33:00      145.524      123.923      152.080      137.368      109.970      105.241    18870.059    12093.383    11075.761        5.084        2.102      191.139       77.902        0.166      338.882       11.833      863.470
04/24/2013  09:34:00      239.843      141.006       76.631      183.720      111.220      101.549    33753.077    12369.908    10312.265        6.985        2.822      278.222       74.704        0.072      339.084       12.172      863.461
04/24/2013  09:35:00      107.496      -41.130       42.287       95.430      122.638       75.678     9106.860    15040.078     5727.115        2.245        1.494      115.096       90.314        0.616      339.388       12.685      863.497
04/24/2013  09:36:00      149.202     -122.721       10.497      112.441      203.880       70.256    12642.872    41567.136     4935.841        4.828        2.957      193.188       91.094        0.222      339.309       12.551      863.475
04/24/2013  09:37:00      150.454      124.950       86.756      100.457       98.540       81.545    10091.614     9710.148     6649.582        3.611        1.323      195.574       57.791        0.087      339.543       12.945      863.487
04/24/2013  09:38:00      261.926      144.961       55.290      147.392      115.507       98.774    21724.321    13341.889     9756.338        6.874        2.241      299.365       40.383        0.018      339.040       12.098      863.469
04/24/2013  09:39:00      297.317      160.381       73.392      163.815      117.105       92.679    26835.284    13713.604     8589.425        8.431        2.457      337.816       79.664        0.056      339.019       12.062      863.468
04/24/2013  09:40:00      354.718      186.643       70.737      180.487      174.005      126.882    32575.493    30277.811    16099.065       12.229        3.948      400.825       67.273        0.028      338.914       11.887      863.432
04/24/2013  09:41:00      322.031      125.175       69.413      175.358      131.555      107.638    30750.434    17306.842    11586.045        9.191        2.982      345.504       88.960        0.066      338.866       11.805      863.462
04/24/2013  09:42:00      139.158      109.888      125.213      168.033      108.459      105.136    28235.250    11763.357    11053.620        4.907        2.553      177.314       81.236        0.210      339.251       12.453      863.448
04/24/2013  09:43:00       47.911       23.139       53.913      106.700       89.706       66.021    11384.879     8047.197     4358.816        1.476        1.190       53.206       61.730        1.346      339.660       13.145      863.444
04/24/2013  09:44:00      184.170       99.198       36.178      147.618      118.980       80.485    21791.051    14156.349     6477.763        4.374        2.121      209.186       57.510        0.076      339.220       12.403      863.430
04/24/2013  09:45:00      304.762      153.529       70.466      172.003      127.702       87.131    29585.132    16307.890     7591.743        8.744        2.674      341.250       65.738        0.037      339.126       12.243      863.417
04/24/2013  09:46:00      309.567      196.671       26.732      180.674      130.653       93.445    32643.254    17070.120     8731.898        9.682        2.922      366.758       32.267        0.008      339.063       12.137      863.421
04/24/2013  09:47:00      342.549      166.911       48.116      171.225      120.743       99.541    29318.044    14578.895     9908.486       10.065        2.690      381.050       61.241        0.026      339.104       12.206      863.364
04/24/2013  09:48:00      323.764      158.659       76.463      210.779      134.142      129.532    44427.931    17994.104    16778.429       10.751        3.960      360.549      122.848        0.116      339.200       12.367      863.393
04/24/2013  09:49:00      225.651      156.278       92.547      162.093      147.653      115.107    26274.146    21801.536    13249.701        7.260        3.066      274.483      106.800        0.151      339.184       12.341      863.429
04/24/2013  09:50:00      271.986      160.934       93.650      139.964      125.117      114.878    19589.798    15654.364    13197.018        7.853        2.422      316.031       83.847        0.070      338.993       12.019      863.441
04/24/2013  09:51:00      137.677      120.538      140.502      127.725      130.731      104.086    16313.641    17090.535    10833.811        4.872        2.212      182.987       97.438        0.284      339.040       12.099      863.435
04/24/2013  09:52:00      268.552      162.876      108.339      165.685      125.998      106.364    27451.472    15875.527    11313.288        8.250        2.732      314.084       85.121        0.073      339.174       12.324      863.399
04/24/2013  09:53:00      272.647      190.358      134.695      121.312       97.917      110.430    14716.492     9587.817    12194.694        8.260        1.825      332.525       91.063        0.075      339.320       12.569      863.386
04/24/2013  09:54:00      167.577      153.002      130.145      125.534       98.266      103.015    15758.777     9656.180    10612.144        5.222        1.801      226.918       85.947        0.143      339.483       12.844      863.400
04/24/2013  09:55:00       69.495       65.940      108.164       94.737      114.854       75.443     8975.190    13191.430     5691.638        2.436        1.393       95.800       67.285        0.493      339.675       13.169      863.392
04/24/2013  09:56:00       42.896       11.781       86.241       68.230       88.512       51.720     4655.288     7834.409     2674.908        1.229        0.758       44.484       33.134        0.555      339.790       13.365      863.385
04/24/2013  09:57:00      206.493      154.339      132.891      198.236      141.924      106.863    39297.515    20142.485    11419.641        7.747        3.543      257.798       72.027        0.078      339.597       13.037      863.381
04/24/2013  09:58:00      240.191      130.941       76.217      154.680      131.806       95.226    23926.052    17372.728     9068.064        6.550        2.518      273.564       72.226        0.070      339.011       12.049      863.399
04/24/2013  09:59:00      382.982      251.225       42.489      168.339      142.957       89.151    28338.171    20436.639     7947.905       13.415        2.836      458.028       33.152        0.005      339.186       12.343      863.376
04/24/2013  10:00:00      292.108      161.101       72.585      150.991      118.299       93.550    22798.254    13994.540     8751.606        8.104        2.277      333.587       83.513        0.063      339.060       12.132      863.345
04/24/2013  10:01:00      220.141      200.718      137.593      156.677      110.821      107.377    24547.560    12281.221    11529.900        7.801        2.418      297.909       88.353        0.088      339.315       12.562      863.337
04/24/2013  10:02:00      212.822      152.412      121.988      180.672      137.232      135.788    32642.204    18832.657    18438.288        7.664        3.496      261.768      107.598        0.169      339.361       12.639      863.302
04/24/2013  10:03:00      255.929      194.545      103.512      184.058      145.440      127.992    33877.383    21152.804    16381.883        9.272        3.571      321.477       89.747        0.078      339.563       12.979      863.292
04/24/2013  10:04:00      292.413      171.929       36.107      162.613      150.237       83.813    26442.846    22571.029     7024.537        8.619        2.802      339.213       61.451        0.033      339.156       12.294      863.337
04/24/2013  10:05:00      254.456      144.228       27.796      116.740       81.637       83.465    13628.326     6664.573     6966.448        5.679        1.363      292.489       53.515        0.033      339.227       12.412      863.315
04/24/2013  10:06:00      210.328      144.211       95.161      148.273       95.700       77.402    21984.986     9158.529     5991.129        5.560        1.857      255.019       72.822        0.082      339.788       13.359      863.279
04/24/2013  10:07:00      254.290      164.853      104.911      206.467      135.885      131.618    42628.682    18464.807    17323.220        9.061        3.921      303.051      118.193        0.152      339.610       13.060      863.284
04/24/2013  10:08:00      249.139      117.559      153.960      191.758      170.811      122.575    36771.035    29176.228    15024.512        9.027        4.049      275.482      120.253        0.191      339.245       12.444      863.282
04/24/2013  10:09:00      322.696      228.007       82.519      146.178       96.365       90.495    21368.001     9286.222     8189.324       10.088        1.942      395.121       73.995        0.035      339.194       12.358      863.309
04/24/2013  10:10:00      329.116      148.626       33.755      206.826      133.287       94.019    42777.064    17765.509     8839.544       10.045        3.469      361.119       88.626        0.060      339.383       12.676      863.303
04/24/2013  10:11:00      223.136      144.183       53.778      141.825       97.665       87.418    20114.432     9538.479     7641.933        5.537        1.865      265.666       73.773        0.077      339.559       12.972      863.333
04/24/2013  10:12:00      176.636       79.089       54.389      115.408       92.714       82.022    13319.089     8595.937     6727.600        3.452        1.432      193.534       56.453        0.085      339.768       13.326      863.321
04/24/2013  10:13:00       91.410       95.318      116.417      117.055      128.038       91.195    13701.865    16393.818     8316.471        3.470        1.921      132.066       94.961        0.517      339.994       13.705      863.276
04/24/2013  10:14:00      214.145      141.121      103.542      127.882      107.286      112.362    16353.787    11510.205    12625.127        5.848        2.024      256.463       66.197        0.067      339.734       13.268      863.274
04/24/2013  10:15:00       30.214       33.445       69.293       63.624      102.177       62.839     4048.044    10440.157     3948.735        1.263        0.922       45.072       57.111        1.606      340.066       13.829      863.292
04/24/2013  10:16:00       57.774       42.361       32.792       84.995       60.875       42.163     7224.068     3705.800     1777.722        0.945        0.635       71.640       26.437        0.136      339.943       13.622      863.277
04/24/2013  10:17:00      217.004      120.151       61.696      176.370      104.511       91.817    31106.506    10922.520     8430.293        5.789        2.523      248.047       77.653        0.098      339.884       13.521      863.276
04/24/2013  10:18:00      363.422      189.387       71.955      154.248      132.610      107.072    23792.487    17585.332    11464.318       11.297        2.642      409.809       93.578        0.052      339.296       12.529      863.264
04/24/2013  10:19:00      140.940       87.844       84.050      143.717      129.674       82.237    20654.708    16815.228     6762.955        3.943        2.212      166.074       62.281        0.141      339.531       12.926      863.261
04/24/2013  10:20:00      252.976      160.246       72.431      134.122      125.025       93.690    17988.577    15631.285     8777.787        6.865        2.120      299.459       41.792        0.019      339.629       13.090      863.267
04/24/2013  10:21:00      236.383      160.095       95.433      164.471       92.681       84.060    27050.646     8589.767     7066.027        6.665        2.135      285.495       65.935        0.053      339.589       13.023      863.258
04/24/2013  10:22:00      207.986      134.053       43.826      177.674      151.773       86.301    31567.985    23035.052     7447.926        6.259        3.103      247.443       59.644        0.058      339.755       13.304      863.235
04/24/2013  10:23:00      156.150      183.252      150.552      175.881      119.824      110.162    30934.024    14357.776    12135.730        6.902        2.871      240.757       93.496        0.151      339.903       13.552      863.207
04/24/2013  10:24:00      302.480      164.497       94.611      166.292      120.117      108.376    27652.983    14428.103    11745.429        9.065        2.691      344.316       92.329        0.072      339.752       13.297      863.222
04/24/2013  10:25:00      241.914      117.979       89.929      155.992      118.343      102.737    24333.477    14005.129    10554.822        6.470        2.445      269.149       86.446        0.103      339.870       13.496      863.233
04/24/2013  10:26:00      252.604      160.568       97.580      212.007      162.501      152.952    44946.769    26406.565    23394.377        9.691        4.737      299.317      126.375        0.178      339.686       13.185      863.226
04/24/2013  10:27:00      267.244      164.897       73.190      164.877      117.157      103.531    27184.480    13725.857    10718.634        7.779        2.581      314.022       40.977        0.017      339.675       13.169      863.253
04/24/2013  10:28:00      321.124      173.332       48.287      171.137      145.507      100.613    29287.803    21172.388    10122.929        9.803        3.029      364.917       63.858        0.031      339.655       13.134      863.217
04/24/2013  10:29:00      365.803      211.299       64.170      165.444      119.042      105.322    27371.636    14171.067    11092.791       11.760        2.632      422.444       72.114        0.029      339.471       12.825      863.242
04/24/2013  10:30:00      221.254      118.720      159.671      152.525      122.631      100.104    23263.808    15038.343    10020.865        6.842        2.416      251.093       76.228        0.092      339.852       13.465      863.237
04/24/2013  10:31:00      283.883      139.667       82.401      156.656      151.748      105.358    24541.052    23027.537    11100.377        8.277        2.933      316.380       84.873        0.072      339.558       12.972      863.234
04/24/2013  10:32:00      445.082      219.570      100.468      188.817      141.357      106.131    35651.982    19981.886    11263.867       16.164        3.345      496.296       78.033        0.025      339.416       12.731      863.239
04/24/2013  10:33:00      247.720      133.346       92.277      156.659      142.497      140.279    24542.036    20305.311    19678.230        7.608        3.226      281.330       92.037        0.107      339.519       12.904      863.217
04/24/2013  10:34:00      205.632      204.850      180.689      199.699      153.401      119.723    39879.712    23531.812    14333.604        9.731        3.887      290.256      105.269        0.132      339.926       13.589      863.186
04/24/2013  10:35:00      257.752      146.584      126.351      185.949      129.659      113.986    34577.167    16811.455    12992.887        8.412        3.219      296.518      102.692        0.120      339.795       13.371      863.203
04/24/2013  10:36:00      212.525      190.061      179.972      175.968      136.109      148.846    30964.772    18525.748    22155.166        9.265        3.582      285.114      135.469        0.226      339.572       12.995      863.226
04/24/2013  10:37:00      283.265      271.247      171.633      161.377      109.683      127.422    26042.683    12030.274    16236.264       11.878        2.715      392.192       87.769        0.050      339.519       12.903      863.229
04/24/2013  10:38:00      245.759      175.360      178.645      146.716      128.458      109.529    21525.594    16501.569    11996.659        8.653        2.501      301.908       99.876        0.109      339.734       13.267      863.230
04/24/2013  10:39:00      286.192      175.866       35.500      138.253       98.352       84.286    19113.776     9673.181     7104.170        7.499        1.795      335.909       29.645        0.008      339.782       13.347      863.237
04/24/2013  10:40:00      294.434      132.035       93.203      158.225      193.243      124.205    25035.083    37342.718    15426.793        9.529        3.890      322.684       89.400        0.077      339.704       13.217      863.230
04/24/2013  10:41:00      291.265      183.103       58.215      156.859      134.736      101.373    24604.884    18153.832    10276.499        8.738        2.652      344.038       64.889        0.036      340.026       13.759      863.208
04/24/2013  10:42:00      166.356      105.179      123.834      141.674      114.861      109.151    20071.661    13192.954    11914.019        4.962        2.259      196.817       66.528        0.114      340.177       14.014      863.225
04/24/2013  10:43:00      131.585       74.810      125.925      139.956      125.896       96.436    19587.735    15849.745     9299.856        4.174        2.237      151.364       93.692        0.383      340.093       13.873      863.198
04/24/2013  10:44:00      284.353      192.919      161.242      177.408      132.552      131.496    31473.669    17570.047    17291.327       10.519        3.317      343.620      103.946        0.092      340.024       13.756      863.214
04/24/2013  10:45:00      336.312      105.456       77.472      211.438      145.313      110.162    44706.119    21115.854    12135.729       10.408        3.898      352.458       98.484        0.078      339.645       13.117      863.175
04/24/2013  10:46:00      240.135      153.375      103.456      171.802      133.606      112.899    29515.810    17850.656    12746.085        7.599        3.006      284.936       93.433        0.108      339.780       13.345      863.173
04/24/2013  10:47:00      275.545       82.957       81.899      221.537      155.656      119.991    49078.858    24228.883    14397.895        8.859        4.385      287.762      115.692        0.162      339.751       13.295      863.163
04/24/2013  10:48:00      126.181      157.193      174.880      150.881      127.191      105.876    22764.961    16177.539    11209.709        6.067        2.508      201.572       92.078        0.209      340.378       14.354      863.171
04/24/2013  10:49:00      223.993      189.325      182.642      206.676      142.565      147.734    42714.846    20324.734    21825.302       10.210        4.243      293.286      140.753        0.230      339.856       13.473      863.197
04/24/2013  10:50:00      213.008      181.336       93.683      132.611      107.355       90.850    17585.726    11525.147     8253.765        6.219        1.868      279.741       73.667        0.069      339.728       13.259      863.214
04/24/2013  10:51:00      153.637       79.924       50.161      102.394       56.822       59.877    10484.455     3228.782     3585.285        2.490        0.865      173.183       56.160        0.105      339.845       13.456      863.168
04/24/2013  10:52:00      133.799       76.358       96.023      133.129      119.334      117.033    17723.327    14240.663    13696.806        3.930        2.283      154.054       95.227        0.382      339.796       13.374      863.149
04/24/2013  10:53:00      148.981       56.729       82.552      124.738      183.694       97.545    15559.676    33743.522     9515.019        4.551        2.941      159.416       96.042        0.363      340.060       13.817      863.102
04/24/2013  10:54:00      175.984      177.510      160.807      157.629      121.084      114.923    24846.814    14661.364    13207.223        7.052        2.636      249.960      105.300        0.177      340.155       13.977      863.078
04/24/2013  10:55:00      245.721      138.226      115.998      157.015      117.536       89.517    24653.861    13814.646     8013.275        6.970        2.324      281.932       82.888        0.086      340.390       14.372      863.023
04/24/2013  10:56:00       61.107       86.325       88.960      117.742      120.284       89.552    13863.159    14468.159     8019.579        2.772        1.818      105.764       67.521        0.408      340.805       15.077      863.022
04/24/2013  10:57:00      162.900       39.983      120.255      126.847      149.364       92.903    16090.115    22309.568     8631.033        4.480        2.352      167.734       73.151        0.190      340.641       14.798      863.044
04/24/2013  10:58:00      179.107      -28.770       80.896      140.181      213.892      136.039    19650.701    45749.957    18506.702        6.166        4.195      181.403      158.289        0.761      340.183       14.025      863.045
04/24/2013  10:59:00       74.356       27.823       80.573       95.385       77.543       65.370     9098.218     6012.854     4273.177        1.609        0.969       79.391       59.989        0.571      340.470       14.513      863.034
04/24/2013  11:00:00      202.116      139.867       80.946      115.434      105.629       90.286    13324.933    11157.436     8151.571        4.979        1.632      245.792       62.254        0.064      340.638       14.793      863.020
04/24/2013  11:01:00      306.303      212.436      130.031      173.019      100.170      111.731    29935.549    10034.032    12483.844       10.415        2.623      372.761      103.169        0.077      340.478       14.523      862.988
04/24/2013  11:02:00      185.544      137.566      121.148      164.014      122.300       89.744    26900.653    14957.253     8054.013        5.896        2.496      230.979       87.884        0.145      340.448       14.471      863.014
04/24/2013  11:03:00      123.427       94.050       83.224       88.176       94.641       75.601     7774.974     8956.996     5715.478        2.672        1.122      155.176       57.432        0.137      340.472       14.515      863.008
04/24/2013  11:04:00      192.959       86.840      109.586      159.314      150.637      117.414    25380.869    22691.603    13785.943        5.931        3.093      211.600      110.179        0.271      340.300       14.222      862.977
04/24/2013  11:05:00      247.395      119.902      148.776      176.323      126.309      128.795    31089.633    15953.847    16588.153        8.066        3.182      274.920      106.680        0.151      339.885       13.523      862.970
04/24/2013  11:06:00      143.913       85.907      140.143      120.968      112.321       84.013    14633.268    12615.958     7058.219        4.101        1.715      167.604       77.665        0.215      340.117       13.915      862.946
04/24/2013  11:07:00      181.331      142.275      143.599      187.411      162.471      130.081    35123.039    26396.702    16921.050        7.608        3.922      230.485      127.350        0.305      340.419       14.424      862.929
04/24/2013  11:08:00      247.231      135.640      133.890      146.841      134.081      120.162    21562.293    17977.706    14438.928        7.570        2.699      281.995       93.173        0.109      340.481       14.529      862.935
04/24/2013  11:09:00      266.157      184.502      147.756      185.933      184.497      139.625    34571.266    34039.069    19495.006       10.739        4.405      323.852      121.337        0.140      340.282       14.191      862.980
04/24/2013  11:10:00      288.462      138.081       91.227      139.794       96.610      114.240    19542.492     9333.564    13050.729        7.625        2.096      319.808       77.490        0.059      340.039       13.780      862.978
04/24/2013  11:11:00      236.261      214.387      168.654      162.198      133.792      113.503    26308.099    17900.394    12882.820        9.365        2.855      319.031       98.294        0.095      339.965       13.657      862.971
04/24/2013  11:12:00      303.557      258.595      110.698      221.973      134.218      108.180    49271.863    18014.499    11702.858       12.511        3.949      398.771       91.070        0.052      340.369       14.339      862.949
04/24/2013  11:13:00      308.275      174.732      127.124      206.240      177.694      142.234    42534.905    31575.210    20230.501       11.801        4.717      354.351      119.981        0.115      340.406       14.401      862.916
04/24/2013  11:14:00      274.836      235.355      182.270      179.437      107.695      113.198    32197.714    11598.314    12813.681       11.037        2.830      361.838      104.558        0.083      340.419       14.423      862.949
04/24/2013  11:15:00      326.813      194.278      156.767      185.983      174.353      126.022    34589.600    30399.036    15881.588       12.498        4.044      380.198       97.629        0.066      340.325       14.265      862.964
04/24/2013  11:16:00      259.411      187.369      143.090      173.389      154.217      146.134    30063.751    23782.748    21355.269        9.902        3.760      320.002       96.429        0.091      340.415       14.417      862.972
04/24/2013  11:17:00      294.985      131.763       88.632      176.840      139.507      108.546    31272.531    19462.215    11782.212        8.736        3.126      323.075       79.387        0.060      340.113       13.906      862.969
04/24/2013  11:18:00      324.893      197.632       66.661      144.707      109.418      113.920    20940.049    11972.379    12977.763        9.746        2.295      380.281       77.329        0.041      340.185       14.029      862.935
04/24/2013  11:19:00      382.033      165.945      129.387      219.917      150.223      132.908    48363.354    22567.022    17664.463       13.939        4.430      416.517      118.060        0.080      340.431       14.442      862.962
04/24/2013  11:20:00      155.044      124.452      184.955      185.963      155.380      124.112    34582.326    24142.959    15403.700        7.392        3.706      198.814      119.870        0.364      340.327       14.269      862.990
04/24/2013  11:21:00      205.831       39.249      127.043      201.933      156.939      103.153    40777.078    24629.796    10640.479        6.803        3.802      209.540      119.065        0.323      340.219       14.086      862.991
04/24/2013  11:22:00      270.466      211.302      121.600      178.072      155.581      119.955    31709.706    24205.467    14389.209       10.143        3.515      343.221       82.186        0.057      340.463       14.498      862.990
04/24/2013  11:23:00      279.797      183.075       51.045      131.623      124.110      116.343    17324.607    15403.397    13535.733        8.033        2.313      334.370       57.792        0.030      340.304       14.228      863.003
04/24/2013  11:24:00      100.821       94.314       74.316      113.874       86.091       83.081    12967.257     7411.674     6902.522        2.593        1.364      138.058       53.566        0.151      340.559       14.662      863.009
04/24/2013  11:25:00      189.584      141.289       81.520      162.657      118.906      117.138    26457.310    14138.577    13721.213        5.842        2.716      236.442      100.886        0.182      340.615       14.756      863.019
04/24/2013  11:26:00      297.154      209.929       93.933      264.768      186.122      120.450    70102.268    34641.558    14508.240       13.020        5.963      363.828       27.791        0.006      340.521       14.596      862.959
04/24/2013  11:27:00      324.697      180.973      166.819      241.897      147.549      135.668    58514.237    21770.670    18405.676       13.233        4.935      371.725      118.968        0.102      340.551       14.646      862.921
04/24/2013  11:28:00      279.127      166.143      151.995      189.966      145.951      123.797    36087.184    21301.813    15325.595       10.065        3.636      324.831      104.848        0.104      340.410       14.408      863.005
04/24/2013  11:29:00      163.034       18.648       20.613      156.390      195.875       84.599    24457.823    38366.858     7156.939        4.865        3.499      164.097       55.324        0.114      340.405       14.401      863.023
04/24/2013  11:30:00       77.588       24.038       88.991       72.504      124.054       63.489     5256.819    15389.407     4030.797        1.959        1.234       81.227       63.538        0.612      340.464       14.502      862.989
04/24/2013  11:31:00      181.483      142.226       96.256      167.876      110.006      103.232    28182.293    12101.324    10656.917        5.667        2.547      230.574       85.931        0.139      340.473       14.515      863.000
04/24/2013  11:32:00      216.358      166.524      140.639      185.392      167.925      142.032    34370.189    28198.953    20173.018        8.851        4.137      273.022      111.758        0.168      340.489       14.542      862.966
04/24/2013  11:33:00      224.168      113.871       70.376      121.677      118.113       85.153    14805.358    13950.680     7251.071        5.208        1.800      251.431       57.392        0.052      340.586       14.706      862.993
04/24/2013  11:34:00      218.910      116.801       50.087      143.961       97.619       90.592    20724.880     9529.449     8206.981        5.126        1.923      248.122       64.226        0.067      340.470       14.509      862.971
04/24/2013  11:35:00      329.704      208.612      112.336      160.655      101.631      112.527    25809.883    10328.860    12662.330       10.681        2.440      390.159       93.406        0.057      340.222       14.090      862.937
04/24/2013  11:36:00      406.028      209.775       73.537      193.773      141.933      129.687    37548.032    20144.908    16818.819       14.438        3.726      457.016       65.668        0.021      340.326       14.267      862.904
04/24/2013  11:37:00      297.676      178.057      188.260      209.529      185.615      142.530    43902.217    34453.073    20314.742       12.719        4.934      346.865      136.175        0.154      340.719       14.928      862.872
04/24/2013  11:38:00      254.702      309.440      235.216      184.559      194.868      176.705    34061.853    37973.441    31224.564       15.959        5.163      400.782      155.763        0.151      340.220       14.086      862.903
04/24/2013  11:39:00      298.237      153.873      129.373      246.668      183.648      130.868    60845.262    33726.696    17126.385       12.051        5.585      335.592      127.548        0.144      340.521       14.596      862.910
04/24/2013  11:40:00      189.956      120.224      120.668      187.442      104.325      111.481    35134.486    10883.609    12428.097        6.176        2.922      224.804      102.229        0.207      340.709       14.913      862.931
04/24/2013  11:41:00      213.614      124.005       84.476      142.266       83.790       83.816    20239.519     7020.790     7025.139        5.121        1.714      246.999       81.717        0.109      340.872       15.190      862.937
04/24/2013  11:42:00      248.062      167.650       43.574      152.099      117.408       99.707    23134.041    13784.615     9941.554        6.919        2.343      299.402       62.173        0.043      340.794       15.059      862.935
04/24/2013  11:43:00      303.894      138.727       77.301      188.751      139.201      115.594    35626.845    19376.908    13362.057        9.295        3.418      334.061       91.893        0.076      340.379       14.356      862.926
04/24/2013  11:44:00      198.272      113.943       47.712      178.683      138.788       94.435    31927.622    19262.166     8917.879        5.733        3.005      228.681       66.231        0.084      340.645       14.805      862.891
04/24/2013  11:45:00      260.258      147.793      103.252      185.903      136.169       90.885    34559.886    18541.909     8260.006        8.079        3.068      299.294       87.415        0.085      340.831       15.121      862.868
04/24/2013  11:46:00      171.887      110.876      156.350      180.659      167.205      140.698    32637.761    27957.440    19796.001        7.332        4.020      204.545      140.677        0.473      340.952       15.326      862.872
04/24/2013  11:47:00      362.376      213.141       92.543      166.923      154.420      112.130    27863.131    23845.605    12573.147       12.478        3.214      420.411       65.565        0.024      340.910       15.253      862.897
04/24/2013  11:48:00      178.986       78.851       94.921      126.849      150.707       93.339    16090.754    22712.532     8712.209        4.738        2.376      195.585       99.080        0.257      340.668       14.844      862.901
04/24/2013  11:49:00      102.933      111.999      140.880      131.084       98.876       92.705    17183.103     9776.487     8594.270        3.926        1.778      152.115       91.553        0.362      340.671       14.850      862.855
04/24/2013  11:50:00      215.339      159.867      133.347      200.299      130.956      100.691    40119.545    17149.511    10138.601        7.854        3.370      268.194       81.054        0.091      340.758       14.997      862.845
04/24/2013  11:51:00      293.301      182.724      146.793      199.150      171.598      174.019    39660.917    29446.026    30282.534       12.016        4.969      345.563      137.455        0.158      340.656       14.824      862.842
04/24/2013  11:52:00      345.022      252.732      103.923      191.289      134.815      119.927    36591.625    18175.060    14382.470       13.142        3.457      427.684       78.319        0.034      340.566       14.671      862.889
04/24/2013  11:53:00      379.506      203.431       94.549      211.486      157.443      110.224    44726.472    24788.271    12149.231       13.799        4.083      430.592       84.084        0.038      340.701       14.899      862.884
04/24/2013  11:54:00      305.581      162.087       69.421      220.886      156.753      116.344    48790.708    24571.450    13535.904       10.567        4.345      345.907       98.065        0.080      340.634       14.787      862.857
04/24/2013  11:55:00      356.526      158.633       86.530      238.779      138.627      116.558    57015.600    19217.538    13585.685       12.477        4.491      390.225       98.591        0.064      340.491       14.546      862.810
04/24/2013  11:56:00      167.341       62.220      114.288      120.687      165.060      106.066    14565.416    27244.645    11249.906        4.899        2.653      178.534       74.875        0.176      341.124       15.616      862.843
04/24/2013  11:57:00      213.538       17.524       99.665      159.842      188.664      114.993    25549.625    35594.000    13223.380        6.509        3.718      214.256      101.623        0.225      341.079       15.539      862.869
04/24/2013  11:58:00      171.538       32.482      159.980      194.371      183.327      138.595    37780.261    33608.803    19208.590        7.332        4.530      174.586      136.658        0.613      340.739       14.964      862.892
04/24/2013  11:59:00      237.009       57.848      113.473      174.305      178.705      109.605    30382.264    31935.527    12013.311        7.335        3.717      243.966      102.080        0.175      340.744       14.973      862.868
04/24/2013  12:00:00      162.830      123.869      136.743      149.183      108.234       84.935    22255.561    11714.502     7213.882        5.086        2.059      204.590       61.905        0.092      340.610       14.748      862.882
04/24/2013  12:01:00      254.052      121.488       67.076      136.314      105.839       93.358    18581.484    11201.924     8715.701        6.114        1.925      281.606       71.097        0.064      340.638       14.793      862.814
04/24/2013  12:02:00      391.408      222.649      152.867      235.606      186.055      160.210    55510.076    34616.404    25667.365       17.094        5.790      450.303      146.752        0.106      340.626       14.773      862.757
04/24/2013  12:03:00      182.408      198.624      192.903      167.567      146.147      118.742    28078.741    21358.876    14099.681        8.672        3.177      269.674       97.754        0.131      340.831       15.121      862.795
04/24/2013  12:04:00      201.105      184.508       61.182      138.857      104.841       92.819    19281.155    10991.723     8615.380        5.855        1.944      272.922       70.442        0.067      340.615       14.754      862.826
04/24/2013  12:05:00      166.405      172.123      154.867      152.804      109.489       92.028    23348.924    11987.870     8469.094        6.254        2.190      239.410       83.044        0.120      340.911       15.255      862.841
04/24/2013  12:06:00      185.321      155.695      168.438      149.342      164.294      129.255    22303.034    26992.456    16706.740        7.647        3.300      242.043      114.447        0.224      340.404       14.398      862.790
04/24/2013  12:07:00      310.213      149.993      110.138      168.097      159.402      113.091    28256.524    25408.985    12789.593        9.864        3.323      344.572       91.301        0.070      340.642       14.801      862.761
04/24/2013  12:08:00      338.522      196.385      191.284      239.114      178.068      128.579    57175.481    31708.234    16532.533       14.756        5.271      391.362      119.859        0.094      340.827       15.112      862.757
04/24/2013  12:09:00      317.822      253.179      167.419      196.102      132.783      153.636    38455.961    17631.373    23603.966       13.640        3.985      406.338      129.251        0.101      340.786       15.044      862.797
04/24/2013  12:10:00      268.889      206.009      142.358      173.064      132.992      141.216    29951.301    17686.947    19941.917       10.128        3.379      338.735      104.243        0.095      340.658       14.827      862.835
04/24/2013  12:11:00      308.601      170.118       57.460      197.429      112.376      110.334    38978.398    12628.368    12173.517        9.562        3.189      352.384      101.058        0.082      340.510       14.577      862.790
04/24/2013  12:12:00      150.735      165.870      114.406      179.002      131.791      137.660    32041.769    17368.863    18950.147        6.583        3.418      224.129       98.519        0.193      340.989       15.387      862.791
04/24/2013  12:13:00      310.656      212.291      238.275      215.871      182.356      163.616    46600.356    33253.771    26770.233       15.246        5.331      376.264      136.126        0.131      340.486       14.535      862.748
04/24/2013  12:14:00      276.662      192.558      111.043      174.144      116.399      119.654    30326.097    13548.653    14317.194        9.206        2.910      337.077       92.196        0.075      340.905       15.245      862.719
04/24/2013  12:15:00      291.721      199.356      114.220      224.057      170.947      119.545    50201.398    29222.944    14290.941       11.578        4.686      353.333      101.554        0.083      340.993       15.395      862.730
04/24/2013  12:16:00      280.570      167.641      138.756      206.135      159.824      136.137    42491.520    25543.827    18533.242       10.630        4.328      326.838      105.931        0.105      340.736       14.961      862.726
04/24/2013  12:17:00      133.066       -3.538       92.571      135.882      202.142      124.510    18463.847    40861.272    15502.633        5.054        3.741      133.113      130.768        0.965      341.048       15.488      862.710
04/24/2013  12:18:00      115.956      116.808      171.373      142.222      188.584      119.987    20227.108    35564.003    14396.936        6.331        3.509      164.590      114.883        0.487      340.934       15.294      862.688
04/24/2013  12:19:00      162.166      122.192       59.916      140.668      111.938      103.732    19787.372    12530.029    10760.273        4.394        2.154      203.049       77.871        0.147      340.507       14.573      862.690
04/24/2013  12:20:00       91.770       78.149       54.679       93.576       74.008       52.003     8756.513     5477.131     2704.293        1.722        0.847      120.536       33.699        0.078      341.226       15.790      862.658
04/24/2013  12:21:00      338.374      212.624       38.703      158.882      126.330       87.752    25243.528    15959.188     7700.403       10.504        2.445      399.633       80.006        0.040      341.056       15.501      862.650
04/24/2013  12:22:00      234.416      144.478      129.500      199.712      184.503      143.489    39884.928    34041.502    20589.139        9.354        4.726      275.363      120.208        0.191      340.984       15.380      862.605
04/24/2013  12:23:00      235.691      169.681      181.077      247.059      168.804      134.806    61038.294    28494.860    18172.602       11.240        5.385      290.417      123.946        0.182      341.152       15.663      862.598
04/24/2013  12:24:00      426.223      215.196      133.246      247.247      144.279      124.086    61131.023    20816.557    15397.351       17.152        4.867      477.468      115.957        0.059      340.643       14.802      862.623
04/24/2013  12:25:00      312.563      180.824       92.200      254.940      199.346      105.559    64994.263    39738.666    11142.729       12.736        5.794      361.099       75.383        0.044      340.950       15.321      862.650
04/24/2013  12:26:00      301.475      134.733       65.755      177.711      156.828       91.679    31581.312    24595.144     8404.959        8.896        3.229      330.212       44.238        0.018      340.786       15.045      862.652
04/24/2013  12:27:00      193.989      143.375      166.234      190.287      135.262      119.099    36209.013    18295.898    14184.518        7.724        3.434      241.222      102.553        0.181      340.761       15.002      862.598
04/24/2013  12:28:00      109.523      121.199      154.367      145.005      111.308       84.676    21026.518    12389.517     7170.072        4.554        2.029      163.354       86.848        0.283      340.926       15.281      862.573
04/24/2013  12:29:00      324.793      166.971       65.993      189.117      118.622      124.504    35765.341    14071.291    15501.274       10.152        3.267      365.199       98.513        0.073      340.848       15.149      862.573
04/24/2013  12:30:00      382.066      191.131       93.617      166.965      151.497      125.973    27877.362    22951.323    15869.120       12.897        3.335      427.207      101.384        0.056      340.893       15.224      862.568
04/24/2013  12:31:00      154.082       53.340       96.257      137.698      152.831       99.993    18960.620    23357.409     9998.688        4.407        2.616      163.053       61.353        0.142      341.083       15.546      862.515
04/24/2013  12:32:00       93.754       69.573       90.212      109.077      108.103       69.061    11897.738    11686.190     4769.491        2.506        1.418      116.749       66.518        0.325      341.293       15.904      862.527
04/24/2013  12:33:00      203.288      131.410       64.101      175.536      110.154       93.358    30812.811    12134.009     8715.691        5.717        2.583      242.063       74.852        0.096      341.008       15.421      862.526
04/24/2013  12:34:00      324.132      237.600      163.335      278.722      152.147      150.442    77686.215    23148.563    22632.681       15.580        6.173      401.889      161.012        0.161      340.783       15.039      862.490
04/24/2013  12:35:00      270.267      131.720       87.669      198.471      118.597       88.592    39390.694    14065.204     7848.628        7.968        3.065      300.657       92.474        0.095      340.719       14.930      862.486
04/24/2013  12:36:00      145.943       77.441       96.997      144.643      137.110       80.018    20921.724    18799.065     6402.803        4.140        2.306      165.216       70.185        0.180      340.931       15.290      862.440
04/24/2013  12:37:00      174.632      -17.022       53.249      143.691      208.643       81.119    20647.183    43531.865     6580.366        5.218        3.538      175.460       85.595        0.238      341.124       15.618      862.397
04/24/2013  12:38:00      347.141      245.090       69.074      188.261      141.200      128.190    35442.164    19937.332    16432.751       12.856        3.591      424.942       70.163        0.027      341.034       15.463      862.420
04/24/2013  12:39:00      375.730      237.420       50.612      184.127      137.086       97.673    33902.866    18792.486     9540.017       13.116        3.112      444.456       35.257        0.006      340.845       15.143      862.374
04/24/2013  12:40:00      362.770      238.449       57.337      162.390      132.195      111.927    26370.417    17475.599    12527.580       12.405        2.819      434.120       71.194        0.027      341.205       15.752      862.323
04/24/2013  12:41:00      433.807      214.720       84.049      228.657      142.699      116.277    52284.112    20363.068    13520.232       16.374        4.308      484.038       69.536        0.021      341.092       15.562      862.305
04/24/2013  12:42:00      409.690      203.374       63.630      202.576      158.054      113.270    41036.969    24980.924    12830.084       14.604        3.942      457.391       89.253        0.038      340.874       15.193      862.316
04/24/2013  12:43:00      390.347      213.651       53.444      193.694      153.516      108.898    37517.422    23567.080    11858.793       13.689        3.647      444.992       75.487        0.029      341.171       15.695      862.362
04/24/2013  12:44:00      376.490      194.455       64.193      180.653      118.890       99.074    32635.328    14134.729     9815.746       12.012        2.829      423.742       64.929        0.023      340.674       14.854      862.359
04/24/2013  12:45:00      452.898      282.807       46.033      200.913      165.850      106.547    40365.953    27506.204    11352.291       18.320        3.961      533.944       71.748        0.018      340.658       14.826      862.344
04/24/2013  12:46:00      285.880      147.549       27.166      145.140      138.803       75.999    21065.673    19266.195     5775.881        7.516        2.305      321.711       51.728        0.026      340.979       15.369      862.319
04/24/2013  12:47:00      327.878      215.609       73.799      210.786      138.491      104.172    44430.750    19179.783    10851.810       11.693        3.723      392.418       84.681        0.047      340.790       15.051      862.279
04/24/2013  12:48:00      362.412      197.895       52.596      157.970      143.816      116.936    24954.519    20683.094    13674.101       11.628        2.966      412.922       72.316        0.031      340.908       15.250      862.239
04/24/2013  12:49:00      300.079      152.169       54.653      176.858      139.229      103.106    31278.719    19384.609    10630.877        8.873        3.065      336.456       62.542        0.035      341.476       16.213      862.233
04/24/2013  12:50:00      361.636      216.729       72.777      160.535      141.282       84.920    25771.528    19960.742     7211.354       11.799        2.647      421.606       51.382        0.015      341.173       15.699      862.242
04/24/2013  12:51:00      426.344      235.553       99.919      227.684      157.979      110.709    51840.060    24957.325    12256.499       16.813        4.453      487.088       73.431        0.023      341.045       15.482      862.243
04/24/2013  12:52:00      309.624      178.366      141.646      220.568      199.143      127.664    48650.430    39658.084    16298.206       12.615        5.230      357.326      119.482        0.112      340.892       15.223      862.237
04/24/2013  12:53:00      220.522      187.271      168.921      188.849      150.219      116.194    35663.886    22565.622    13500.962        9.197        3.587      289.310       92.606        0.102      341.065       15.516      862.216
04/24/2013  12:54:00      282.983      175.864      106.525      182.386      128.251      129.371    33264.804    16448.303    16736.789        9.439        3.322      333.178       94.045        0.080      341.177       15.706      862.168
04/24/2013  12:55:00      240.854      158.397       41.364      146.639      127.364       97.334    21503.051    16221.539     9473.851        6.600        2.360      288.271       63.187        0.048      341.387       16.061      862.186
04/24/2013  12:56:00      259.831      177.672       63.256      206.880      123.682       96.454    42799.392    15297.159     9303.456        8.523        3.370      314.769       44.435        0.020      341.526       16.299      862.180
04/24/2013  12:57:00      348.143      247.880       84.990      178.411      136.591      138.902    31830.319    18657.064    19293.773       12.981        3.489      427.373       94.764        0.049      341.214       15.768      862.103
04/24/2013  12:58:00      366.722      247.130      151.267      180.492      149.136      103.371    32577.232    22241.668    10685.628       14.196        3.275      442.220       71.731        0.026      341.421       16.119      862.113
04/24/2013  12:59:00      350.811      228.999       66.645      153.522      137.371      115.601    23569.008    18870.927    13363.564       11.787        2.790      418.938      101.588        0.059      341.605       16.430      862.119
04/24/2013  13:00:00      217.555      146.043       59.957      199.104      129.048       92.929    39642.600    16653.426     8635.717        6.858        3.247      262.028       65.769        0.063      341.691       16.576      862.129
04/24/2013  13:01:00      344.933      164.051       82.788      231.082      150.329      108.283    53398.723    22598.954    11725.268       12.022        4.386      381.957       69.089        0.033      341.321       15.950      862.106
04/24/2013  13:02:00      386.570      229.037       77.574      234.989      152.557      133.427    55219.667    23273.505    17802.856       15.208        4.815      449.326      102.405        0.052      341.476       16.212      862.110
04/24/2013  13:03:00      244.273      199.329      123.335      233.505      178.175      127.999    54524.781    31746.167    16383.651       10.861        5.133      315.280      111.665        0.125      341.160       15.676      862.116
04/24/2013  13:04:00      264.256      207.956      118.907      214.182      137.677      124.323    45873.768    18954.958    15456.132       10.373        4.014      336.269       97.068        0.083      341.078       15.538      862.061
04/24/2013  13:05:00      258.583      164.580       22.127      175.764      124.167       81.208    30893.130    15417.488     6594.735        7.366        2.645      306.516       35.879        0.014      341.645       16.497      862.066
04/24/2013  13:06:00      146.413      132.215      130.539      167.050      134.945      103.914    27905.814    18210.076    10798.079        5.642        2.846      197.275       87.305        0.196      341.505       16.261      862.034
04/24/2013  13:07:00      182.389      183.082      162.630      164.501      141.699      116.098    27060.578    20078.652    13478.713        7.691        3.031      258.428       92.653        0.129      341.324       15.954      862.039
04/24/2013  13:08:00      130.880      117.143       90.513      164.251       99.159       93.917    26978.499     9832.584     8820.350        4.233        2.282      175.648       88.038        0.251      341.612       16.444      862.017
04/24/2013  13:09:00      123.109      192.123      200.688      171.238      138.339      126.513    29322.321    19137.797    16005.506        7.839        3.223      228.182      122.761        0.289      341.279       15.879      861.995
04/24/2013  13:10:00      490.294      265.159      106.385      243.847      193.929      153.177    59461.460    37608.575    23463.179       22.125        6.027      557.402      110.293        0.039      341.322       15.951      861.956
04/24/2013  13:11:00      464.157      199.662       47.819      210.421      165.817      128.498    44277.066    27495.305    16511.788       17.292        4.414      505.279       28.113        0.003      341.127       15.621      861.986
04/24/2013  13:12:00      237.682      176.376      102.479      181.647      160.268      120.160    32995.512    25685.981    14438.315        8.560        3.656      295.975       86.179        0.085      341.368       16.028      861.954
04/24/2013  13:13:00      281.988      194.977      125.111      206.409      174.181      158.280    42604.683    30338.963    25052.506       11.557        4.900      342.831      121.274        0.125      341.419       16.114      861.946
04/24/2013  13:14:00      263.642      138.244       55.741      186.169      123.276      104.098    34659.002    15196.955    10836.296        7.620        3.035      297.688       40.500        0.019      341.438       16.148      861.940
04/24/2013  13:15:00      167.133       82.362       58.001      110.416       98.236       77.099    12191.740     9650.342     5944.251        3.293        1.389      186.325       69.297        0.138      341.756       16.687      861.881
04/24/2013  13:16:00      114.974       58.126       79.200      136.375      139.275       98.710    18598.202    19397.402     9743.728        3.529        2.387      128.832       87.945        0.466      341.877       16.893      861.877
04/24/2013  13:17:00       52.455      -16.340       63.572       74.016      110.665       66.701     5478.314    12246.768     4449.012        1.461        1.109       54.941       50.987        0.861      342.053       17.192      861.904
04/24/2013  13:18:00      235.388      141.998      130.600      234.521      161.149      114.346    55000.024    25969.064    13074.917        9.332        4.702      274.902      102.826        0.140      341.676       16.550      861.908
04/24/2013  13:19:00      337.735      231.537      170.180      236.742      169.728      159.741    56046.943    28807.550    25517.083       15.348        5.519      409.480      122.526        0.090      341.090       15.559      861.900
04/24/2013  13:20:00      300.446      167.711       75.435      194.472      151.469       98.048    37819.497    22942.935     9613.493        9.722        3.519      344.086       77.952        0.051      341.418       16.113      861.903
04/24/2013  13:21:00      308.043      191.170       64.316      217.534      129.635      126.020    47321.206    16805.107    15881.084       10.777        4.000      362.542       75.131        0.043      341.470       16.202      861.890
04/24/2013  13:22:00      355.444      202.425       92.827      226.102      143.547      131.380    51122.268    20605.830    17260.716       13.244        4.449      409.043       88.961        0.047      341.500       16.252      861.910
04/24/2013  13:23:00      254.914      153.521      111.288      199.097      156.248      132.805    39639.775    24413.536    17637.054        9.130        4.085      297.573       84.751        0.081      341.277       15.875      861.935
04/24/2013  13:24:00      133.677      134.902      135.295      143.327      127.991      114.735    20542.670    16381.732    13164.132        5.222        2.504      189.916       89.790        0.224      341.430       16.133      861.878
04/24/2013  13:25:00      292.504      248.625      219.561      196.013      160.849      151.218    38421.107    25872.407    22866.864       14.135        4.358      383.892      116.507        0.092      341.477       16.214      861.870
04/24/2013  13:26:00      213.054       77.462      154.966      197.226      256.738      138.718    38898.025    65914.317    19242.756        9.971        6.203      226.698      163.755        0.522      341.188       15.725      861.893
04/24/2013  13:27:00      223.171      131.602      192.627      203.433      199.745      127.297    41385.186    39897.909    16204.512       10.084        4.874      259.084      123.894        0.229      341.504       16.259      861.789
04/24/2013  13:28:00      293.439      189.388       58.667      159.434      151.527      100.241    25419.089    22960.538    10048.279        9.191        2.921      349.249       61.758        0.031      341.500       16.252      861.842
04/24/2013  13:29:00      394.292      203.450       73.492      176.059      140.446       95.889    30996.631    19725.034     9194.635       13.108        2.996      443.687       75.621        0.029      341.302       15.917      861.852
04/24/2013  13:30:00      250.625      197.736       68.949      134.337       95.734       91.960    18046.445     9164.975     8456.551        7.116        1.783      319.238       33.913        0.011      341.193       15.732      861.838
04/24/2013  13:31:00      271.795      245.383       11.985      191.501      165.539      133.418    36672.444    27403.114    17800.450       10.804        4.094      366.177      107.706        0.087      341.310       15.930      861.777
04/24/2013  13:32:00      334.380      225.225       86.994      197.555      122.858      100.951    39027.874    15094.108    10191.188       11.720        3.216      403.158      100.029        0.062      341.549       16.336      861.774
04/24/2013  13:33:00      323.977      205.468       73.665      177.084      165.798      124.924    31358.687    27488.895    15606.055       11.351        3.723      383.638       62.752        0.027      341.495       16.245      861.757
04/24/2013  13:34:00      265.387      225.527       54.260      231.962      176.071      125.219    53806.372    31000.840    15679.879       11.234        5.024      348.271       87.845        0.064      341.339       15.980      861.738
04/24/2013  13:35:00      233.939      112.910      127.720      226.367      143.747      152.251    51241.837    20663.089    23180.304        8.942        4.754      259.762      112.883        0.189      341.500       16.252      861.743
04/24/2013  13:36:00      478.358      295.218       71.923      195.978      176.923       95.929    38407.231    31301.654     9202.411       20.002        3.946      562.121       18.344        0.001      341.296       15.906      861.778
04/24/2013  13:37:00      310.860      159.720       54.304      161.283      141.839       94.431    26012.330    20118.270     8917.297        9.006        2.752      349.491       17.252        0.002      341.591       16.407      861.761
04/24/2013  13:38:00       87.555       18.704       69.942      109.134      150.771       73.825    11910.330    22731.936     5450.059        2.649        2.005       89.531       53.782        0.361      341.835       16.822      861.712
04/24/2013  13:39:00      197.495      138.328      152.924      171.257      121.059      105.866    29329.037    14655.278    11207.646        6.835        2.760      241.120       92.124        0.146      341.727       16.637      861.695
04/24/2013  13:40:00      161.646       30.405      133.506      167.993      179.634       88.501    28221.622    32268.520     7832.460        5.659        3.416      164.481       92.468        0.316      341.867       16.877      861.678
04/24/2013  13:41:00      283.514     -136.391       65.148      185.577      250.508      133.315    34438.733    62754.097    17772.776       10.907        5.748      314.615      154.155        0.240      341.726       16.635      861.668
04/24/2013  13:42:00      167.963      190.126      209.892      182.709      179.166      123.297    33382.754    32100.328    15202.234        9.453        4.034      253.692      110.409        0.189      341.464       16.193      861.659
04/24/2013  13:43:00      235.348      115.981      176.303      177.616      221.280      153.366    31547.372    48964.642    23521.251       10.196        5.202      262.374      151.759        0.335      341.297       15.909      861.650
04/24/2013  13:44:00      180.903      100.814      124.268      168.408      181.129      117.107    28361.090    32807.707    13714.062        6.659        3.744      207.098      107.852        0.271      341.930       16.984      861.543
04/24/2013  13:45:00      223.226      186.367      107.987      180.071      127.759      101.128    32425.395    16322.331    10226.783        7.759        2.949      290.796       82.179        0.080      342.264       17.548      861.657
04/24/2013  13:46:00      271.537      178.479       92.514      193.364      129.634      109.433    37389.603    16804.992    11975.571        9.014        3.309      324.942       81.398        0.063      341.794       16.752      861.666
04/24/2013  13:47:00      346.338      209.236       58.250      147.296      102.164       88.529    21696.223    10437.486     7837.313       10.354        1.999      404.636       54.287        0.018      341.506       16.262      861.673
04/24/2013  13:48:00      142.591       99.551       74.438      142.795       95.331       77.474    20390.538     9087.984     6002.240        3.562        1.774      173.904       59.118        0.116      341.830       16.812      861.641
04/24/2013  13:49:00      232.454      159.690       95.993      177.222      108.315       97.251    31407.800    11732.226     9457.697        7.066        2.630      282.021       83.392        0.087      341.882       16.899      861.637
04/24/2013  13:50:00      299.153      159.963       91.796      198.592      131.214      135.118    39438.674    17217.082    18256.790        9.919        3.746      339.235      100.250        0.087      341.479       16.216      861.629
04/24/2013  13:51:00      203.453      -11.978      107.358      173.118      227.011      103.760    29969.746    51533.770    10766.061        7.265        4.613      203.805      105.465        0.268      341.719       16.625      861.635
04/24/2013  13:52:00      239.757      169.585      143.408      216.066      146.642      130.403    46684.406    21503.753    17004.874        9.598        4.260      293.671      116.291        0.157      341.336       15.975      861.637
04/24/2013  13:53:00      175.254      163.974      117.174      148.936      106.556      108.903    22181.972    11354.135    11859.767        5.835        2.270      240.003       92.337        0.148      341.119       15.608      861.657
04/24/2013  13:54:00       41.471       58.466       97.494       72.408       87.149       61.546     5242.882     7594.908     3787.862        1.563        0.831       71.680       56.356        0.618      341.384       16.059      861.599
04/24/2013  13:55:00      125.685      108.807       85.298      143.947       85.690       92.804    20720.831     7342.853     8612.656        3.579        1.834      166.240       76.780        0.213      341.240       15.814      861.560
04/24/2013  13:56:00      118.544       66.906       49.829      146.255      120.526       65.886    21390.429    14526.410     4340.985        3.063        2.013      136.122       56.440        0.172      341.692       16.581      861.547
04/24/2013  13:57:00      164.826      148.549      159.044      162.963      127.420      108.464    26556.965    16235.863    11764.490        6.453        2.728      221.889      101.250        0.208      341.632       16.477      861.588
04/24/2013  13:58:00      204.396      173.975      205.149      194.043      158.947      144.266    37652.809    25264.092    20812.654        9.891        4.186      268.412      129.411        0.232      341.430       16.132      861.561
04/24/2013  13:59:00      164.979      112.148      126.839      154.540      154.721      114.701    23882.484    23938.548    13156.403        5.842        3.049      199.487      104.750        0.276      341.742       16.663      861.547
04/24/2013  14:00:00      263.227      174.921       57.322      147.406      120.534      104.927    21728.566    14528.438    11009.676        7.521        2.363      316.047       84.740        0.072      341.694       16.581      861.533
04/24/2013  14:01:00      153.903      137.244      124.068      141.544      107.194       89.025    20034.594    11490.503     7925.506        4.867        1.973      206.209       83.593        0.164      341.667       16.535      861.505
04/24/2013  14:02:00      234.058       98.225       38.428      151.356      114.286       95.942    22908.760    13061.204     9204.894        5.553        2.259      253.834       64.121        0.064      341.471       16.203      861.480
04/24/2013  14:03:00      315.217      196.193       88.686      207.117      152.772      130.937    42897.605    23339.362    17144.435       11.453        4.169      371.286      121.925        0.108      341.549       16.338      861.471
04/24/2013  14:04:00      400.596      219.065      101.544      195.154      181.392      136.376    38085.274    32903.205    18598.436       15.416        4.479      456.581      101.785        0.050      341.468       16.198      861.442
04/24/2013  14:05:00      493.777      256.148       67.478      215.472      195.509      116.616    46428.329    38223.751    13599.233       20.610        4.913      556.262       78.203        0.020      341.555       16.346      861.452
04/24/2013  14:06:00      459.952      286.219       46.073      189.305      135.236      121.838    35836.201    18288.683    14844.553       18.227        3.448      541.735       72.829        0.018      341.272       15.866      861.451
04/24/2013  14:07:00      256.391      121.664       60.853      165.437       99.406       95.774    27369.301     9881.604     9172.607        6.532        2.321      283.793       66.468        0.055      341.641       16.491      861.452
04/24/2013  14:08:00      184.257      162.806      162.919      140.686      129.370      117.626    19792.529    16736.688    13835.944        6.867        2.518      245.879       99.386        0.163      341.459       16.182      861.429
04/24/2013  14:09:00       12.918       69.441       88.423       69.194       74.169       70.851     4787.794     5501.010     5019.836        1.405        0.765       70.632       57.432        0.661      341.772       16.716      861.407
04/24/2013  14:10:00       29.881        0.513       45.473       66.274      116.216       54.575     4392.278    13506.241     2978.445        1.191        1.044       29.886       58.066        3.775      342.137       17.334      861.364
04/24/2013  14:11:00      240.670      142.652      114.169      177.649      110.002      103.251    31558.996    12100.531    10660.744        7.280        2.716      279.771       97.713        0.122      341.759       16.691      861.370
04/24/2013  14:12:00      295.299      205.558      115.693      204.549      143.713      120.634    41840.213    20653.364    14552.520       10.993        3.852      359.799      111.283        0.096      341.549       16.334      861.358
04/24/2013  14:13:00      213.677      141.041      102.952      180.003      116.579       99.491    32400.904    13590.721     9898.506        6.601        2.795      256.028       66.691        0.068      341.473       16.206      861.356
04/24/2013  14:14:00      310.581      169.015       63.894      141.286      123.347      101.037    19961.612    15214.417    10208.560        8.724        2.269      353.591       62.267        0.031      341.592       16.408      861.315
04/24/2013  14:15:00      334.002      163.963       85.999      167.662      132.836      115.215    28110.490    17645.368    13274.548       10.242        2.952      372.077       90.070        0.059      341.825       16.804      861.280
04/24/2013  14:16:00      298.026      219.260      109.761      161.571      124.156      126.357    26105.191    15414.617    15966.109       10.320        2.874      369.992      103.560        0.078      341.992       17.086      861.304
04/24/2013  14:17:00      385.105      266.189       50.287      152.662      144.652      105.693    23305.777    20924.297    11170.957       13.853        2.770      468.148       64.281        0.019      341.700       16.591      861.281
04/24/2013  14:18:00      290.655      152.973       69.936      221.264      153.817       90.089    48957.869    23659.709     8116.046        9.674        4.037      328.453       49.226        0.022      341.627       16.470      861.265
04/24/2013  14:19:00      319.056      209.236       39.570      168.395      120.257      107.861    28356.888    14461.636    11633.892       10.079        2.723      381.544       54.217        0.020      341.613       16.444      861.246
04/24/2013  14:20:00      297.896      120.521       78.684      156.395      117.907      117.800    24459.548    13902.054    13876.905        8.084        2.612      321.352       67.560        0.044      342.007       17.111      861.260
04/24/2013  14:21:00      204.471      165.623      141.289      164.330      150.115      110.319    27004.328    22534.389    12170.225        7.544        3.085      263.134       90.430        0.118      341.560       16.355      861.269
04/24/2013  14:22:00      187.019      122.526       60.442      121.869      110.764       82.513    14852.130    12268.720     6808.399        4.378        1.696      223.582       61.250        0.075      341.959       17.030      861.272
04/24/2013  14:23:00      180.768      183.987      123.421      172.985       93.895      117.150    29923.845     8816.301    13724.132        6.710        2.623      257.931      117.549        0.208      342.001       17.103      861.289
04/24/2013  14:24:00      222.437      192.836      138.294      162.001      119.937      118.955    26244.336    14384.982    14150.293        8.027        2.739      294.387       98.553        0.112      341.684       16.565      861.272
04/24/2013  14:25:00      320.594      189.290       64.740      159.284      140.655      110.007    25371.379    19783.814    12101.493       10.002        2.863      372.306       58.693        0.025      341.648       16.502      861.267
04/24/2013  14:26:00      377.118      243.131       71.269      181.148      111.152      102.074    32814.429    12354.861    10419.110       13.099        2.779      448.699       72.204        0.026      341.386       16.058      861.284
04/24/2013  14:27:00      125.298      110.903      132.377      122.258      107.900       82.399    14947.091    11642.504     6789.594        3.944        1.669      167.329       68.749        0.169      341.420       16.118      861.262
04/24/2013  14:28:00      182.061      136.199       72.503      128.621       74.991       66.072    16543.279     5623.720     4365.546        4.174        1.327      227.368       49.328        0.047      341.916       16.958      861.211
04/24/2013  14:29:00      198.134      165.358       97.998      206.854      118.480       93.778    42788.655    14037.590     8794.349        7.090        3.281      258.070       90.807        0.124      341.970       17.050      861.207
04/24/2013  14:30:00      282.923      121.635       85.081      200.988      132.024      116.235    40396.188    17430.241    13510.663        8.669        3.567      307.962       93.533        0.092      341.831       16.812      861.185
04/24/2013  14:31:00      358.893      239.965       66.328      196.982      159.859       97.428    38801.821    25554.912     9492.131       13.230        3.692      431.726       60.019        0.019      341.707       16.604      861.178
04/24/2013  14:32:00      252.891      150.679       49.746      136.447      115.488       68.777    18617.755    13337.386     4730.211        6.290        1.834      294.377       22.835        0.006      341.673       16.547      861.172
04/24/2013  14:33:00      249.143      117.871       72.807      149.802      117.954       90.485    22440.593    13913.086     8187.621        6.289        2.227      275.619       64.505        0.055      341.844       16.836      861.166
04/24/2013  14:34:00      203.966      118.931       39.685       72.557       64.284       57.319     5264.578     4132.387     3285.446        3.500        0.634      236.107       29.188        0.015      341.989       17.082      861.172
04/24/2013  14:35:00      209.591      134.340       45.513      147.818      119.577       78.094    21850.307    14298.732     6098.640        5.314        2.112      248.949       22.257        0.008      342.192       17.428      861.142
04/24/2013  14:36:00      156.655      111.913       93.933      140.283      100.757       79.405    19679.314    10151.947     6305.208        4.101        1.807      192.524       53.987        0.079      342.421       17.817      861.116
04/24/2013  14:37:00      112.615      151.963      189.022      169.212      156.886      139.111    28632.694    24613.356    19351.849        7.204        3.630      189.143      113.934        0.363      341.769       16.709      861.138
04/24/2013  14:38:00      121.577      112.095       36.425       76.091       63.646       69.256     5789.785     4050.793     4796.449        2.165        0.732      165.367       33.097        0.040      342.009       17.118      861.130
04/24/2013  14:39:00      205.881      114.737       33.802      102.322       87.612       67.686    10469.792     7675.887     4581.363        3.971        1.136      235.694       51.238        0.047      342.076       17.229      861.082
04/24/2013  14:40:00      211.595      111.826       34.246       83.152       73.387       66.635     6914.338     5385.632     4440.182        3.759        0.837      239.327       25.989        0.012      342.188       17.420      861.075
04/24/2013  14:41:00      306.750      169.102       56.885      137.278      113.596       81.859    18845.328    12904.054     6700.951        8.218        1.923      350.273       54.796        0.024      341.874       16.886      861.104
04/24/2013  14:42:00      206.604      176.979      164.487      152.263      130.427      115.808    23184.124    17011.306    13411.553        7.732        2.680      272.041      100.711        0.137      342.018       17.131      861.100
04/24/2013  14:43:00      185.476      232.512      228.477      186.152      202.933      170.241    34652.457    41181.907    28981.833       12.272        5.241      297.428      160.639        0.292      341.708       16.605      861.064
04/24/2013  14:44:00       76.093      -95.673       42.295      102.349      157.217       85.504    10475.270    24717.285     7310.982        2.961        2.125      122.243       98.353        0.647      342.171       17.392      861.073
04/24/2013  14:45:00      283.230     -396.708      -19.313      151.325      172.526       92.032    22899.326    29765.229     8469.918       14.954        3.057      487.439      114.368        0.055      341.740       16.659      861.044
04/24/2013  14:46:00      292.096       63.695      102.713      208.176      234.089      139.296    43337.332    54797.647    19403.435       10.871        5.877      298.960      143.561        0.231      341.705       16.599      861.056
04/24/2013  14:47:00      140.710      122.720      137.106      128.710      118.134       79.524    16566.238    13955.579     6324.101        4.524        1.842      186.707       58.301        0.098      341.914       16.955      861.044
04/24/2013  14:48:00      175.410     -114.192       59.846      146.953      230.121      134.278    21595.120    52955.540    18030.506        6.997        4.629      209.305      159.728        0.582      342.146       17.350      861.025
04/24/2013  14:49:00      245.025     -236.692        0.755      137.136      200.006      134.600    18806.402    40002.383    18117.105        9.648        3.846      340.676      147.310        0.187      342.117       17.300      861.013
04/24/2013  14:50:00      302.535      -61.137       91.215      177.647      186.576      130.026    31558.582    34810.542    16906.755        9.341        4.164      308.650      145.219        0.221      341.752       16.680      861.008
04/24/2013  14:51:00      186.830       -4.781      119.392      148.291      174.939      115.947    21990.233    30603.638    13443.746        5.760        3.302      186.891      123.726        0.438      341.975       17.058      860.991
04/24/2013  14:52:00       91.403       61.854      100.663      132.582      119.597       91.334    17577.887    14303.330     8341.941        3.126        2.011      110.365       88.653        0.645      341.728       16.640      860.983
04/24/2013  14:53:00      186.839      -94.866       41.668      110.910      100.899       77.668    12301.011    10180.694     6032.291        3.707        1.426      209.543       70.619        0.114      341.902       16.934      860.971
04/24/2013  14:54:00      124.045       37.206       59.418      151.439      146.495       94.718    22933.647    21460.693     8971.517        3.682        2.668      129.504       73.787        0.325      342.280       17.576      860.959
04/24/2013  14:55:00      236.957       77.271      119.451      139.030      188.611      114.967    19329.434    35573.924    13217.366        7.224        3.406      249.237      120.183        0.233      341.865       16.871      860.943
04/24/2013  14:56:00      196.410      183.955      172.223      183.812      141.415      122.517    33786.756    19998.131    15010.419        8.542        3.440      269.102       94.081        0.122      342.017       17.130      860.923
04/24/2013  14:57:00      384.262      280.747      164.223      209.786      145.404      141.429    44010.272    21142.249    20002.253       16.928        4.258      475.895       93.253        0.038      341.986       17.076      860.925
04/24/2013  14:58:00      261.697      148.527       60.411      187.749      126.839       89.502    35249.724    16088.026     8010.600        7.676        2.967      300.907       48.260        0.026      341.692       16.577      860.943
04/24/2013  14:59:00      169.990        8.646      151.033      193.012      239.632      152.790    37253.714    57423.393    23344.751        8.488        5.901      170.210      143.113        0.707      342.028       17.147      860.944
04/24/2013  15:00:00       85.250      111.254      186.838      131.471      222.043      157.606    17284.561    49303.241    24839.708        7.297        4.571      140.160      171.209        1.492      341.806       16.772      860.902
04/24/2013  15:01:00      193.330      141.857       83.362      202.367      129.102      124.318    40952.396    16667.365    15455.070        6.875        3.654      239.791       85.015        0.126      341.968       17.046      860.930
04/24/2013  15:02:00      276.102      143.899       79.642      142.597      106.790      106.061    20333.957    11404.037    11249.005        7.313        2.149      311.351       82.134        0.070      341.928       16.979      860.942
04/24/2013  15:03:00      206.708       79.626       44.646      163.504      101.401       81.499    26733.708    10282.128     6642.149        4.735        2.183      221.514       31.524        0.020      341.817       16.790      860.927
04/24/2013  15:04:00       65.941       67.049       67.744       87.069       71.614       56.601     7580.942     5128.594     3203.706        1.467        0.796       94.041       51.596        0.301      341.976       17.062      860.859
04/24/2013  15:05:00       69.082      -12.337       40.363       57.368       54.355       38.638     3291.081     2954.412     1492.887        0.714        0.387       70.175       40.753        0.337      341.788       16.745      860.820
04/24/2013  15:06:00      185.032       29.464      146.695      182.816      232.578      152.466    33421.810    54092.563    23245.888        8.367        5.538      187.363      163.086        0.758      341.867       16.875      860.829
04/24/2013  15:07:00      180.370      219.936      219.344      157.089      150.640      113.719    24677.007    22692.397    12932.071        9.465        3.015      284.438      107.046        0.142      341.665       16.533      860.796
04/24/2013  15:08:00      156.994       73.955      181.235      192.027      255.175      150.137    36874.222    65114.146    22541.163        9.372        6.226      173.541      175.813        1.026      341.841       16.831      860.769
04/24/2013  15:09:00      139.186      161.384      164.575      135.470       84.970       73.332    18352.056     7219.930     5377.515        5.172        1.547      213.114       67.499        0.100      342.001       17.101      860.772
04/24/2013  15:10:00      109.613      111.914      108.291      118.876      108.306       92.350    14131.611    11730.263     8528.573        3.532        1.720      156.651       69.608        0.197      342.122       17.308      860.738
04/24/2013  15:11:00       78.805       62.883       82.453       99.650       84.885       76.568     9930.155     7205.391     5862.631        1.998        1.150      100.819       40.235        0.159      342.525       17.995      860.753
04/24/2013  15:12:00      156.386      101.809      179.557      161.894      186.003      119.085    26209.599    34597.274    14181.148        7.101        3.749      186.606      107.117        0.330      342.167       17.383      860.766
04/24/2013  15:13:00      138.861       73.308      138.093      161.847      160.760       90.633    26194.291    25843.738     8214.425        5.198        3.013      157.023       89.232        0.323      342.056       17.196      860.787
04/24/2013  15:14:00       57.367       62.970      117.361      124.043      139.604       99.194    15386.624    19489.403     9839.483        3.286        2.236       85.184       90.486        1.128      342.130       17.323      860.772
04/24/2013  15:15:00      264.306      194.022      106.631      154.560      116.305      107.657    23888.725    13526.822    11590.074        8.393        2.450      327.875       69.694        0.045      342.171       17.390      860.770
04/24/2013  15:16:00      419.805      205.771      109.483      175.910      159.079      111.334    30944.333    25306.108    12395.311       14.959        3.432      467.523       75.865        0.026      341.980       17.066      860.744
04/24/2013  15:17:00      304.842      142.019      113.030      215.781      145.109      126.646    46561.552    21056.673    16039.120       10.475        4.183      336.300      119.815        0.127      341.791       16.745      860.709
04/24/2013  15:18:00      441.322      283.498       48.170      140.024      136.735      122.213    19606.799    18696.520    14936.134       16.534        2.662      524.534       62.011        0.014      341.679       16.556      860.704
04/24/2013  15:19:00      208.333      114.300       84.992      122.751      100.592       86.740    15067.877    10118.751     7523.796        4.819        1.636      237.628       60.498        0.065      341.781       16.729      860.703
04/24/2013  15:20:00      124.408       25.668       38.172       79.260       57.566       43.740     6282.208     3313.806     1913.187        1.455        0.575      127.028       37.492        0.087      341.637       16.488      860.683
04/24/2013  15:21:00       83.930       64.247       59.098      118.548       62.543       56.696    14053.639     3911.569     3214.445        1.792        1.059      105.697       62.097        0.345      342.022       17.140      860.651
04/24/2013  15:22:00      159.678      102.162       38.400      125.847       83.708       73.656    15837.540     7007.069     5425.225        3.283        1.413      189.563       63.510        0.112      342.211       17.461      860.632
04/24/2013  15:23:00      137.913       90.294       76.668      159.038      105.396       94.028    25293.114    11108.376     8841.232        3.914        2.262      164.842       73.302        0.198      342.157       17.368      860.584
04/24/2013  15:24:00      208.526      160.405      183.670      170.712      134.053      131.802    29142.503    17970.272    17371.681        8.370        3.224      263.084      121.626        0.214      342.040       17.168      860.581
04/24/2013  15:25:00      224.329      157.784      146.931      176.793      140.797      100.354    31255.896    19823.822    10070.856        7.897        3.058      274.261       71.727        0.068      341.890       16.913      860.575
04/24/2013  15:26:00      298.682      183.645       71.618      156.602      123.817      141.736    24524.102    15330.649    20089.077        9.399        2.997      350.623      114.108        0.106      341.948       17.012      860.565
04/24/2013  15:27:00       50.147      158.768      167.379      105.219      107.377       95.352    11071.075    11529.797     9091.921        4.371        1.585      166.499       86.242        0.268      342.079       17.234      860.554
04/24/2013  15:28:00      181.663      109.739      120.191      125.004      115.041      103.006    15626.006    13234.514    10610.163        4.947        1.974      212.236       85.404        0.162      341.570       16.372      860.548
04/24/2013  15:29:00       60.190       88.494      112.950       91.627       91.378       70.972     8395.423     8349.998     5037.033        2.299        1.089      107.023       69.814        0.426      341.760       16.694      860.494
04/24/2013  15:30:00       -2.242       53.046       27.122       41.538       70.377       65.544     1725.439     4952.886     4296.070        0.726        0.549       53.093       47.814        0.811      341.820       16.796      860.467
04/24/2013  15:31:00      111.434       50.429       36.157       87.021       68.374       55.657     7572.653     4675.000     3097.709        1.580        0.767      122.313       44.174        0.130      341.774       16.719      860.482
04/24/2013  15:32:00      104.973       60.485       22.095       81.528       56.596       43.114     6646.773     3203.073     1858.851        1.343        0.585      121.152       21.273        0.031      342.119       17.304      860.443
04/24/2013  15:33:00      372.132      257.999       76.850      160.878      126.897      111.859    25881.794    16102.829    12512.465       13.271        2.725      452.819       91.899        0.041      341.983       17.072      860.423
04/24/2013  15:34:00      278.149      156.778      117.004      212.630      128.526      124.892    45211.341    16518.977    15598.112        9.647        3.866      319.290      113.737        0.127      341.981       17.069      860.408
04/24/2013  15:35:00      223.721      173.680      143.911      176.873      150.233      120.693    31284.031    22570.055    14566.784        8.466        3.421      283.224       91.408        0.104      341.784       16.734      860.405
04/24/2013  15:36:00      238.120      168.309       23.852      142.928       89.702       72.195    20428.427     8046.453     5212.077        5.964        1.684      291.597       40.206        0.019      341.947       17.010      860.382
04/24/2013  15:37:00      245.707      187.230       44.416      132.500       98.927       79.522    17556.333     9786.562     6323.796        6.553        1.683      308.913       36.813        0.014      341.996       17.093      860.344
04/24/2013  15:38:00       87.876       70.869       26.201       96.121       72.429       61.272     9239.252     5245.923     3754.250        1.583        0.912      112.892       20.860        0.034      342.184       17.414      860.321
04/24/2013  15:39:00      224.300      163.044       24.195       84.673       80.771       62.825     7169.435     6523.896     3947.011        4.756        0.882      277.298       43.976        0.025      341.989       17.079      860.302
04/24/2013  15:40:00      179.938      106.631       32.763      111.831       85.888       66.160    12506.258     7376.696     4377.114        3.454        1.213      209.160       50.529        0.058      342.167       17.384      860.301
04/24/2013  15:41:00      227.697      131.697       97.177      171.257      112.140       93.428    29328.896    12575.457     8728.815        6.462        2.532      263.040       68.986        0.069      342.450       17.864      860.305
04/24/2013  15:42:00       86.424      114.024      145.971      138.313      112.664       80.091    19130.555    12693.103     6414.578        4.000        1.912      143.076       71.310        0.248      342.201       17.444      860.287
04/24/2013  15:43:00      125.312       16.790       85.184      117.523      140.503       92.353    13811.659    19741.147     8529.069        3.265        2.104      126.432       81.036        0.411      342.041       17.173      860.267
04/24/2013  15:44:00      150.188      -62.626       37.913       95.418       99.867       62.288     9104.569     9973.340     3879.818        2.543        1.148      162.722       41.092        0.064      341.915       16.958      860.233
04/24/2013  15:45:00      292.471      150.872       36.695      227.815      145.048       74.927    51899.693    21038.986     5614.067        9.408        3.928      329.092       62.962        0.037      342.275       17.569      860.223
04/24/2013  15:46:00      229.377      134.259       34.857      121.317       96.876       77.198    14717.707     9385.042     5959.461        5.095        1.503      265.781       38.181        0.021      342.467       17.894      860.216
04/24/2013  15:47:00      145.512      156.427       -5.909      147.812      110.669       91.556    21848.435    12247.532     8382.411        4.407        2.124      213.643       70.485        0.109      342.380       17.746      860.199
04/24/2013  15:48:00      198.287       58.139       32.863      138.154      101.520       71.533    19086.439    10306.389     5116.909        3.914        1.725      206.635       56.557        0.075      342.672       18.243      860.206
04/24/2013  15:49:00      291.604      213.842      127.145      214.287      177.349      131.287    45918.948    31452.493    17236.195       12.075        4.730      361.609       82.647        0.052      342.378       17.744      860.181
04/24/2013  15:50:00      207.025      218.567      160.039      198.624      137.360      141.903    39451.407    18867.876    20136.503        9.733        3.923      301.049      131.114        0.190      342.328       17.657      860.126
04/24/2013  15:51:00      201.335      190.343      213.589      227.334      230.181      163.364    51680.839    52983.463    26687.826       12.684        6.568      277.068      170.293        0.378      342.286       17.585      860.095
04/24/2013  15:52:00      116.435      100.741      166.103      164.650      190.261      123.247    27109.715    36199.153    15189.845        6.488        3.925      153.967      121.654        0.624      342.280       17.578      860.148
04/24/2013  15:53:00      183.989      176.667      203.663      186.467      148.464       99.479    34769.999    22041.663     9896.086        8.661        3.335      255.075       89.663        0.124      342.003       17.107      860.181
04/24/2013  15:54:00      293.707      150.942      117.183      177.202      195.383      140.869    31400.568    38174.375    19844.136       10.608        4.471      330.223      124.972        0.143      341.907       16.944      860.171
04/24/2013  15:55:00      125.011       44.708      135.045      154.076      150.119       93.388    23739.379    22535.845     8721.392        4.542        2.750      132.765       87.493        0.434      342.074       17.227      860.150
04/24/2013  15:56:00      233.148      107.356      126.921      151.611      149.513      107.452    22985.936    22354.063    11545.860        6.943        2.844      256.678       93.123        0.132      342.019       17.133      860.138
04/24/2013  15:57:00       53.018       44.366       71.964       67.583       79.326       58.959     4567.519     6292.661     3476.187        1.214        0.717       69.132       35.949        0.270      342.303       17.618      860.117
04/24/2013  15:58:00      178.342      149.863      105.550      127.763      102.779       94.623    16323.437    10563.455     8953.553        5.062        1.792      232.948       90.007        0.149      341.914       16.955      860.088
04/24/2013  15:59:00      192.798       86.887       61.296      160.448      145.380       95.129    25743.445    21135.357     9049.603        5.219        2.796      211.472       82.777        0.153      342.071       17.221      860.053
04/24/2013  16:00:00      201.973       43.834       89.975      152.620      181.079      105.721    23292.974    32789.727    11176.894        5.902        3.363      206.675      111.778        0.293      342.144       17.346      860.039
04/24/2013  16:01:00      196.671      -34.173      113.748      161.407      212.323      114.160    26052.334    45080.924    13032.602        6.846        4.208      199.618      134.535        0.454      342.152       17.361      860.033
04/24/2013  16:02:00      138.987      146.524      147.558      146.933      133.807       82.764    21589.183    17904.296     6849.929        5.444        2.317      201.957       59.542        0.087      341.931       16.984      860.022
04/24/2013  16:03:00       90.530       89.510       63.522       80.203       59.939       69.530     6432.554     3592.665     4834.475        1.755        0.743      127.309       38.701        0.092      341.969       17.051      859.993
04/24/2013  16:04:00       97.110      -16.471       44.742      121.991      114.834       69.048    14881.879    13186.894     4767.563        2.226        1.642       98.497       79.772        0.656      342.446       17.859      859.986
04/24/2013  16:05:00      149.998      -51.908       54.217      135.340      115.223       89.652    18316.889    13276.239     8037.417        3.387        1.982      158.726       82.065        0.267      342.431       17.833      859.983
04/24/2013  16:06:00      214.344       86.505       71.704      174.666      122.906       94.019    30508.105    15106.003     8839.484        5.650        2.723      231.141       60.211        0.068      342.171       17.389      859.958
04/24/2013  16:07:00       65.735       60.848       81.740       90.881       84.225       69.010     8259.303     7093.833     4762.440        1.741        1.006       89.574       59.970        0.448      342.054       17.194      859.956
04/24/2013  16:08:00       96.446       -4.124       47.537       87.813       73.388       54.357     7711.209     5385.776     2954.651        1.381        0.803       96.534       48.978        0.257      342.186       17.420      859.944
04/24/2013  16:09:00      132.924     -122.876       45.714      133.726      158.088       74.700    17882.572    24991.830     5580.061        4.165        2.423      181.018       63.063        0.121      342.474       17.907      859.899
04/24/2013  16:10:00      217.212      117.847      130.660      157.161      158.174      110.217    24699.534    25018.938    12147.828        6.999        3.093      247.121       94.194        0.145      342.453       17.870      859.934
04/24/2013  16:11:00      252.969      172.558      116.816      209.706      139.264      123.188    43976.794    19394.515    15175.241        9.296        3.927      306.218      120.109        0.154      342.312       17.630      859.934
04/24/2013  16:12:00      340.490      235.360      178.722      172.002      134.755      146.495    29584.560    18158.956    21460.758       13.622        3.460      413.918      109.733        0.070      342.094       17.260      859.925
04/24/2013  16:13:00      222.492      130.400      105.533      169.736      124.334       94.420    28810.144    15458.829     8915.078        6.540        2.659      257.889       73.034        0.080      342.137       17.332      859.908
04/24/2013  16:14:00      283.190      173.977      126.977      200.374      130.779      120.720    40149.701    17103.220    14573.257        9.919        3.591      332.362      105.640        0.101      342.160       17.373      859.885
04/24/2013  16:15:00      227.864      181.998       86.964      161.292      134.940      111.694    26015.163    18208.835    12475.583        7.464        2.835      291.625      100.701        0.119      342.266       17.553      859.888
04/24/2013  16:16:00      262.546      136.792       98.897      196.454      115.799      101.098    38594.322    13409.331    10220.711        7.981        3.111      296.045       99.008        0.112      342.152       17.359      859.904
04/24/2013  16:17:00      216.858      131.790      120.063      207.673      133.322       99.767    43128.035    17774.655     9953.445        7.482        3.543      253.764       88.136        0.121      342.076       17.229      859.906
04/24/2013  16:18:00      271.947      189.037       32.806      133.621      111.078       96.492    17854.514    12338.272     9310.613        7.513        1.975      331.195       34.251        0.011      341.999       17.097      859.886
04/24/2013  16:19:00      272.303      164.229       50.173       91.644      109.732       86.035     8398.670    12041.208     7402.059        6.573        1.392      317.994       38.474        0.015      342.082       17.239      859.841
04/24/2013  16:20:00      200.545      167.236       63.633      140.804       91.243       90.293    19825.671     8325.273     8152.861        5.426        1.815      261.125       63.039        0.058      342.428       17.827      859.823
04/24/2013  16:21:00      177.791      108.446       44.487      126.547       88.882       76.957    16014.141     7900.058     5922.453        3.759        1.492      208.255       40.061        0.037      342.608       18.134      859.823
04/24/2013  16:22:00      273.493      135.261       69.869      177.164      143.146      105.723    31387.139    20490.870    11177.294        8.050        3.153      305.113       75.693        0.062      342.443       17.853      859.834
04/24/2013  16:23:00      380.519      182.172       62.077      167.240      143.634      114.184    27969.178    20630.735    13037.965       12.172        3.082      421.879       73.243        0.030      342.185       17.414      859.842
04/24/2013  16:24:00      266.812      140.121       64.151      176.719      150.994       91.613    31229.440    22799.215     8392.987        7.867        3.121      301.368       62.691        0.043      342.017       17.129      859.821
04/24/2013  16:25:00       59.066      -24.031       49.491       76.063      128.683       76.508     5785.508    16559.204     5853.458        1.735        1.410       63.767       91.415        2.055      342.165       17.382      859.811
04/24/2013  16:26:00       94.868      -36.118       22.608      116.617      147.972       67.302    13599.548    21895.646     4529.510        2.541        2.001      101.511       67.145        0.438      342.278       17.575      859.814
04/24/2013  16:27:00      146.597       20.935      124.192      189.428      149.977       95.258    35882.936    22493.205     9074.029        5.239        3.373      148.085      100.589        0.461      342.319       17.643      859.808
04/24/2013  16:28:00      361.124      201.650      101.117      136.598      121.207       98.750    18658.989    14691.227     9751.537       11.219        2.155      413.610       84.012        0.041      342.156       17.365      859.794
04/24/2013  16:29:00      301.204      154.564       68.087      169.170      130.297       94.307    28618.603    16977.207     8893.794        8.686        2.724      338.547       71.679        0.045      342.197       17.436      859.777
04/24/2013  16:30:00      262.191      147.775       38.615      141.446      110.241       93.643    20007.082    12153.027     8769.000        6.649        2.046      300.967       43.436        0.021      342.302       17.613      859.753
04/24/2013  16:31:00      149.820      113.462       54.028      111.001       96.067       75.238    12321.175     9228.775     5660.822        3.272        1.361      187.935       36.257        0.037      342.298       17.607      859.738
04/24/2013  16:32:00      233.596      132.010       62.120      168.413      111.734       80.570    28363.014    12484.542     6491.454        6.159        2.367      268.316       50.783        0.036      342.336       17.671      859.721
04/24/2013  16:33:00      278.058      119.223       98.838      175.472      124.712       96.962    30790.588    15553.022     9401.697        7.851        2.787      302.540       84.228        0.078      342.500       17.951      859.689
04/24/2013  16:34:00      120.221      -68.733       80.296      154.402      191.214      114.437    23839.885    36562.610    13095.924        4.955        3.675      138.482      128.423        0.860      342.406       17.791      859.671
04/24/2013  16:35:00      220.604       95.792       52.492      125.358      114.248       83.108    15714.674    13052.561     6906.897        4.813        1.784      240.504       51.503        0.046      342.721       18.325      859.679
04/24/2013  16:36:00      289.214      155.577       80.307      188.970      110.676      124.705    35709.710    12249.208    15551.387        8.889        3.176      328.404       86.787        0.070      342.554       18.042      859.716
04/24/2013  16:37:00      293.744      119.582       65.352      232.321      147.194      129.433    53973.233    21666.012    16752.795        9.861        4.620      317.152      114.808        0.131      342.285       17.584      859.719
04/24/2013  16:38:00      302.479      177.000       98.332      228.797      160.546      114.841    52347.995    25775.024    13188.507       11.188        4.566      350.461       95.991        0.075      342.045       17.177      859.730
04/24/2013  16:39:00      144.391      135.515       50.306      129.394       85.262       83.893    16742.754     7269.682     7038.097        3.639        1.553      198.023       57.780        0.085      342.219       17.474      859.737
04/24/2013  16:40:00      145.840      117.630      115.220      133.658       82.226       85.440    17864.557     6761.156     7300.063        4.015        1.596      187.366       80.695        0.185      342.078       17.232      859.719
04/24/2013  16:41:00      337.598      230.222       35.546      133.067      125.995       89.596    17706.694    15874.738     8027.376       10.491        2.080      408.625       76.252        0.035      342.206       17.450      859.703
04/24/2013  16:42:00      291.777      195.316       41.257      104.571       88.707       81.044    10935.013     7869.001     6568.075        7.517        1.269      351.116       20.767        0.003      342.072       17.222      859.682
04/24/2013  16:43:00      131.993       79.061       19.260      116.592       98.469       68.947    13593.594     9696.153     4753.658        2.604        1.402      153.860       58.107        0.143      342.386       17.758      859.652
04/24/2013  16:44:00      314.488      231.555       10.598      150.391      123.510       86.331    22617.388    15254.696     7453.089        9.897        2.266      390.539       52.948        0.018      342.266       17.552      859.646
04/24/2013  16:45:00      259.163      137.425       16.658       83.752       86.912       73.955     7014.323     7553.702     5469.381        5.318        1.002      293.345       48.728        0.028      342.173       17.394      859.612
04/24/2013  16:46:00       65.467       90.848       65.022      114.177       73.401       85.446    13036.293     5387.732     7300.948        2.124        1.286      111.979       77.277        0.476      342.168       17.388      859.558
04/24/2013  16:47:00      304.009      229.930       19.850      211.209      138.971      102.638    44609.358    19313.020    10534.628       11.005        3.723      381.169       78.470        0.042      342.364       17.718      859.547
04/24/2013  16:48:00      334.456      222.708      124.273      203.707      149.408      135.633    41496.505    22322.722    18396.196       12.954        4.111      401.820       93.905        0.055      342.309       17.624      859.506
04/24/2013  16:49:00       89.877      126.255       62.539      152.960       91.703       83.462    23396.867     8409.378     6965.873        3.334        1.939      154.978       42.759        0.076      342.401       17.785      859.507
04/24/2013  16:50:00      200.520      142.749       30.536      105.634       78.727       67.859    11158.613     6197.872     4604.906        4.174        1.098      246.141       36.716        0.022      342.647       18.202      859.515
04/24/2013  16:51:00      287.758      212.808       28.330      170.429      137.630      105.623    29045.971    18942.122    11156.301        9.401        2.957      357.899       68.343        0.036      342.444       17.855      859.521
04/24/2013  16:52:00      463.080      280.667       76.162      184.258      143.154      123.577    33950.866    20493.193    15271.262       18.435        3.486      541.495       41.249        0.006      342.191       17.424      859.489
04/24/2013  16:53:00      498.015      282.277       53.573      143.971      127.826      100.400    20727.600    16339.501    10080.251       18.885        2.357      572.451       56.975        0.010      342.239       17.506      859.519
04/24/2013  16:54:00      266.715      156.950      101.096      206.485      123.722      116.854    42636.194    15307.247    13654.762        8.878        3.580      309.468      123.749        0.160      342.125       17.313      859.542
04/24/2013  16:55:00      201.753       64.590       55.304      169.660      176.090       80.081    28784.639    31007.785     6412.915        5.706        3.310      211.840       55.249        0.068      342.322       17.647      859.533
04/24/2013  16:56:00      181.074      -68.231       53.025      128.553      123.734       79.644    16525.869    15310.219     6343.115        3.921        1.909      193.503       77.984        0.162      342.315       17.636      859.534
04/24/2013  16:57:00      253.699      116.748       49.890      112.531       83.445       81.240    12663.276     6963.140     6599.973        5.335        1.311      279.273       62.310        0.050      342.438       17.843      859.524
04/24/2013  16:58:00      172.739      -22.568       51.398      149.280      187.538      109.715    22284.469    35170.551    12037.392        5.123        3.475      174.207      112.562        0.417      342.105       17.279      859.523
04/24/2013  16:59:00      215.362      -98.051       18.684      134.755      107.390       86.444    18158.831    11532.716     7472.587        4.675        1.858      236.632       84.958        0.129      342.370       17.730      859.501
04/24/2013  17:00:00      163.832     -171.399       15.656      184.843      147.594       76.119    34166.854    21784.096     5794.039        5.909        3.087      237.104       66.447        0.079      342.633       18.177      859.493
04/24/2013  17:01:00      245.005     -304.000      -22.947      130.282      131.782       61.044    16973.369    17366.566     3726.310        9.551        1.903      390.440       56.493        0.021      342.445       17.856      859.470
04/24/2013  17:02:00      102.192      -93.652       21.977      101.268      127.044       90.372    10255.236    16140.135     8167.107        2.712        1.728      138.614       75.539        0.297      342.652       18.209      859.467
04/24/2013  17:03:00       92.348       56.971      112.220      121.481      117.003       76.385    14757.703    13689.684     5834.728        2.932        1.714      108.508       81.502        0.564      342.284       17.584      859.466
04/24/2013  17:04:00       35.789      -79.338       21.824       81.785      103.749       55.400     6688.758    10763.911     3069.169        1.428        1.026       87.036       50.778        0.340      342.668       18.237      859.481
04/24/2013  17:05:00      109.499     -197.050       -4.514       97.250      129.300       74.928     9457.530    16718.437     5614.183        4.131        1.590      225.430       79.769        0.125      342.523       17.990      859.476
04/24/2013  17:06:00      180.012      108.558       91.702      132.809       85.254       65.141    17638.166     7268.295     4243.392        4.087        1.457      210.212       51.141        0.059      342.277       17.570      859.484
04/24/2013  17:07:00      164.882       57.197       60.521      135.673      138.574       89.052    18407.215    19202.831     7930.174        3.982        2.277      174.521       70.746        0.164      342.350       17.694      859.505
04/24/2013  17:08:00      175.718      158.460      130.382      139.746      110.669      106.193    19528.954    12247.636    11276.867        5.801        2.153      236.614       95.368        0.162      342.181       17.407      859.524
04/24/2013  17:09:00      164.741      126.954      112.489      136.293      114.565       85.806    18575.870    13125.249     7362.593        4.748        1.953      207.983       75.204        0.131      342.121       17.306      859.499
04/24/2013  17:10:00       93.854      113.701      149.043      121.721      126.715      103.707    14815.936    16056.814    10755.154        4.278        2.081      147.433      111.048        0.567      342.179       17.404      859.486
04/24/2013  17:11:00      172.485       76.968       64.141      108.858       61.451       67.110    11849.997     3776.212     4503.804        2.996        1.007      188.879       44.800        0.056      342.195       17.432      859.492
04/24/2013  17:12:00      157.697       99.311       51.235      107.919       69.776       69.054    11646.487     4868.751     4768.451        2.932        1.064      186.363       50.453        0.073      342.258       17.539      859.468
04/24/2013  17:13:00      144.688      -16.770        9.655       74.844       83.248       52.817     5601.584     6930.274     2789.588        1.831        0.766      145.657       38.549        0.070      342.101       17.274      859.431
04/24/2013  17:14:00       96.486       96.427      130.454      123.708       99.866       86.128    15303.550     9973.179     7418.036        3.415        1.635      136.410       65.352        0.230      342.357       17.708      859.408
04/24/2013  17:15:00      210.820      156.073      166.369      267.837      138.398      151.088    71736.819    19154.077    22827.641       10.508        5.686      262.305      127.667        0.237      342.179       17.405      859.407
04/24/2013  17:16:00      340.706      259.268       80.924      200.386      121.900      117.040    40154.729    14859.580    13698.321       12.927        3.436      428.136       88.450        0.043      342.358       17.708      859.430
04/24/2013  17:17:00      301.581      191.412       44.179      174.044      131.989       97.109    30291.337    17421.066     9430.154        9.333        2.857      357.196       25.669        0.005      342.283       17.581      859.454
04/24/2013  17:18:00      282.991      175.465       39.338      142.654      108.602      100.445    20350.180    11794.329    10089.164        7.732        2.112      332.974       48.457        0.021      342.342       17.681      859.450
04/24/2013  17:19:00      168.069      154.727      124.600      130.485      124.671       94.313    17026.375    15542.740     8895.000        5.458        2.073      228.447       68.164        0.089      342.231       17.493      859.424
04/24/2013  17:20:00      131.946       64.236      103.994      123.827      125.782       90.691    15333.214    15821.114     8224.878        3.586        1.969      146.751       65.005        0.196      342.471       17.902      859.422
04/24/2013  17:21:00      309.367      157.438      111.644      224.809      162.167      136.267    50538.987    26298.204    18568.725       11.416        4.770      347.124      125.789        0.131      342.315       17.635      859.397
04/24/2013  17:22:00      352.363      199.367       66.918      140.655      129.811       98.071    19783.835    16851.001     9617.867       10.731        2.313      404.854       66.397        0.027      342.289       17.592      859.423
04/24/2013  17:23:00      345.503      172.831       51.727      175.595      163.778      104.765    30833.761    26823.136    10975.744       11.026        3.432      386.320       53.888        0.019      342.413       17.801      859.416
04/24/2013  17:24:00      496.543      263.553       70.351      183.649      136.667      110.568    33727.120    18677.980    12225.253       19.278        3.232      562.152       57.774        0.011      342.230       17.489      859.406
04/24/2013  17:25:00      227.412      152.341       16.569      130.106      113.307       86.358    16927.654    12838.446     7457.725        5.620        1.861      273.722       40.039        0.021      342.459       17.880      859.424
04/24/2013  17:26:00      384.185      219.448       43.625      168.019      137.302       84.691    28230.293    18851.734     7172.556       12.595        2.713      442.443       57.849        0.017      342.315       17.636      859.414
04/24/2013  17:27:00      173.428      100.277       68.037      115.816       90.750       69.456    13413.357     8235.529     4824.141        3.561        1.324      200.332       57.470        0.082      342.306       17.620      859.445
04/24/2013  17:28:00      102.645       69.180       91.678      124.871      133.292       79.019    15592.664    17766.712     6244.008        3.166        1.980      123.782       66.022        0.284      342.325       17.654      859.458
04/24/2013  17:29:00      109.695      117.098      130.685      117.501      109.672       80.549    13806.430    12028.038     6488.103        3.757        1.616      160.452       67.430        0.177      342.159       17.371      859.455
04/24/2013  17:30:00      119.052      130.106      119.328       86.504       77.402       58.821     7482.918     5991.001     3459.935        3.113        0.847      176.355       49.768        0.080      341.953       17.021      859.437
04/24/2013  17:31:00      126.498       81.147       18.077       66.031       45.779       55.892     4360.037     2095.700     3123.940        1.624        0.479      150.289       22.105        0.022      342.124       17.314      859.418
04/24/2013  17:32:00       54.338       18.421       28.509       74.734       59.991       40.751     5585.134     3598.978     1660.637        0.747        0.542       57.376       31.121        0.294      342.389       17.764      859.404
04/24/2013  17:33:00       14.219      -15.544       20.572       37.147       65.578       33.581     1379.916     4300.459     1127.701        0.384        0.340       21.066       27.100        1.655      342.379       17.748      859.397
04/24/2013  17:34:00      189.038      143.084       17.308      116.167       89.505       68.304    13494.663     8011.199     4665.498        4.133        1.309      237.084       29.160        0.015      342.212       17.462      859.389
04/24/2013  17:35:00       70.464      105.465       14.162       84.320       72.966       51.070     7109.800     5324.082     2608.166        1.566        0.752      126.839       46.986        0.137      342.161       17.375      859.392
04/24/2013  17:36:00      114.229      152.043        4.481      108.183       83.216       58.186    11703.623     6924.927     3385.636        2.910        1.101      190.172       56.479        0.088      342.288       17.588      859.394
04/24/2013  17:37:00      134.520       90.787       25.257       64.748       52.607       45.515     4192.288     2767.510     2071.622        1.800        0.452      162.289       38.790        0.057      342.138       17.336      859.406
04/24/2013  17:38:00       68.652       44.921       40.747       57.114       40.888       26.659     3261.952     1671.869      710.701        0.702        0.282       82.043       21.317        0.068      342.044       17.179      859.396
04/24/2013  17:39:00       17.079      -18.071        7.536       49.065       51.423       28.562     2407.419     2644.333      815.793        0.327        0.293       24.865       33.376        1.802      342.099       17.272      859.374
04/24/2013  17:40:00      110.275       82.759        2.047       78.286       65.347       55.596     6128.717     4270.184     3090.933        1.625        0.674      137.875       40.373        0.086      342.169       17.389      859.366
04/24/2013  17:41:00      302.933      206.363       56.236      213.421      135.350       92.471    45548.581    18319.632     8550.796       10.495        3.621      366.544       60.919        0.028      342.287       17.588      859.362
04/24/2013  17:42:00      320.489      202.000       52.112      146.469      100.728       96.320    21453.199    10146.191     9277.547        9.355        2.044      378.837       49.303        0.017      342.331       17.663      859.376
04/24/2013  17:43:00      261.999      136.321       59.968      111.100       98.570       73.680    12343.271     9715.988     5428.794        5.915        1.374      295.342       35.502        0.014      342.357       17.705      859.390
04/24/2013  17:44:00      131.260      113.506       97.635      110.880      102.354      107.157    12294.371    10476.392    11482.630        3.694        1.713      173.530       71.799        0.171      342.212       17.460      859.368
04/24/2013  17:45:00      255.147      148.353       93.855      185.897      106.195       93.389    34557.569    11277.344     8721.551        7.523        2.728      295.142       96.690        0.107      342.227       17.486      859.346
04/24/2013  17:46:00      270.522      185.947       86.227      131.999      127.803       90.276    17423.721    16333.524     8149.806        7.854        2.095      328.266       61.555        0.035      342.484       17.923      859.345
04/24/2013  17:47:00      152.179      176.313      148.547      129.169       83.241       78.879    16684.705     6929.055     6221.940        5.307        1.492      232.905       73.446        0.099      342.463       17.886      859.369
04/24/2013  17:48:00      167.325       72.128       32.851      100.040       93.609       68.511    10007.987     8762.605     4693.807        2.887        1.173      182.209       37.345        0.042      342.426       17.825      859.363
04/24/2013  17:49:00      310.739      219.770       69.556      126.479       95.098       79.653    15996.878     9043.579     6344.653        9.053        1.569      380.601       65.922        0.030      342.219       17.471      859.367
04/24/2013  17:50:00      293.906      132.453       58.058      136.850       96.509       76.954    18727.832     9313.982     5921.891        7.062        1.698      322.373       29.367        0.008      342.212       17.461      859.344
04/24/2013  17:51:00      105.223       61.724       34.278       97.970       71.036       61.212     9598.039     5046.109     3746.890        1.722        0.920      121.991       29.725        0.059      342.038       17.167      859.345
04/24/2013  17:52:00       90.503       46.489       14.515       79.600       52.506       46.219     6336.149     2756.846     2136.158        1.089        0.561      101.745       37.241        0.134      342.234       17.500      859.339
04/24/2013  17:53:00      224.872      182.374       52.472      113.500      108.694      102.864    12882.139    11814.472    10581.072        6.092        1.764      289.530       62.262        0.046      342.331       17.662      859.356
04/24/2013  17:54:00      351.525      203.246       53.927      103.814      111.100       91.855    10777.281    12343.320     8437.368        9.967        1.578      406.053       56.860        0.020      342.319       17.643      859.339
04/24/2013  17:55:00      336.778      203.279       52.805      166.342      135.966       99.471    27669.559    18486.758     9894.414       10.678        2.803      393.372       52.708        0.018      342.277       17.571      859.333
04/24/2013  17:56:00      287.246      153.537       54.213      177.174      116.960       81.396    31390.532    13679.666     6625.318        8.035        2.585      325.705       39.716        0.015      342.209       17.455      859.352
04/24/2013  17:57:00      288.461      203.499       32.859      156.730       98.035      112.821    24564.443     9610.790    12728.575        8.629        2.345      353.018       55.624        0.025      342.234       17.498      859.356
04/24/2013  17:58:00      337.523      179.778       40.953      139.025      117.370       85.063    19327.924    13775.769     7235.725        9.412        2.017      382.416       49.636        0.017      342.111       17.288      859.359
04/24/2013  17:59:00      284.362      131.412       45.820      159.717      118.335       80.881    25509.629    14003.111     6541.714        7.313        2.303      313.259       36.903        0.014      342.246       17.519      859.340
04/24/2013  18:00:00      225.544      158.491       20.777      132.240      101.347       92.919    17487.535    10271.210     8633.984        5.640        1.820      275.662       63.617        0.053      342.237       17.503      859.334
04/24/2013  18:01:00      188.639       90.090       74.324      151.745      104.169       93.237    23026.668    10851.089     8693.184        4.589        2.129      209.047       99.983        0.229      342.186       17.416      859.329
04/24/2013  18:02:00      230.293      149.268      127.491      172.084      113.437      109.336    29612.942    12868.019    11954.306        7.299        2.722      274.437       94.158        0.118      342.057       17.196      859.335
04/24/2013  18:03:00      142.947      128.100      108.039      113.225       97.865       89.255    12819.907     9577.480     7966.412        3.943        1.518      191.947       64.987        0.115      341.887       16.908      859.342
04/24/2013  18:04:00       94.735       88.305      118.858       98.066      141.438       83.864     9616.953    20004.704     7033.188        3.377        1.833      129.509       86.427        0.445      341.897       16.926      859.340
04/24/2013  18:05:00       77.268      -44.883       54.039       97.461      124.505       66.951     9498.581    15501.395     4482.485        2.019        1.474       89.358       66.936        0.561      342.176       17.401      859.299
04/24/2013  18:06:00       72.009       15.041       65.591       94.817      112.760       72.194     8990.317    12714.740     5211.902        1.831        1.346       73.564       47.095        0.410      342.164       17.381      859.279
04/24/2013  18:07:00      138.285       63.953      111.373      132.098      158.363       91.130    17449.955    25078.900     8304.655        4.321        2.542      152.357      108.054        0.503      341.981       17.069      859.262
04/24/2013  18:08:00      105.395      111.420       83.967      104.518       91.606       63.571    10923.978     8391.574     4041.320        2.696        1.168      153.370       46.164        0.091      342.157       17.368      859.268
04/24/2013  18:09:00       92.543       97.109       69.733      104.864       55.714       54.160    10996.468     3104.030     2933.267        1.994        0.852      134.143       54.756        0.167      342.057       17.199      859.277
04/24/2013  18:10:00      312.571      209.492      109.342      164.173       98.825       96.918    26952.902     9766.284     9393.136        9.982        2.306      376.281       68.279        0.033      342.341       17.680      859.255
04/24/2013  18:11:00      261.245      176.933       79.812      156.290      134.252       95.149    24426.422    18023.674     9053.377        7.870        2.575      315.523       68.936        0.048      342.189       17.421      859.267
04/24/2013  18:12:00      291.401      160.213       58.191      212.752      144.291      107.335    45263.434    20820.026    11520.722        9.577        3.880      332.540       88.447        0.071      342.168       17.387      859.276
04/24/2013  18:13:00      330.672      199.248       60.767      137.340      114.471      106.929    18862.335    13103.513    11433.718        9.806        2.170      386.061       87.190        0.051      342.149       17.354      859.293
04/24/2013  18:14:00      242.383      152.347       48.775      132.163       95.393       76.456    17467.162     9099.769     5845.520        5.837        1.621      286.285       61.679        0.046      342.310       17.627      859.283
04/24/2013  18:15:00      325.573      181.873       68.961      125.086      111.776       79.060    15646.453    12493.788     6250.437        8.910        1.720      372.928       40.942        0.012      342.175       17.397      859.281
04/24/2013  18:16:00      360.831      167.322       18.998      139.614      112.013       84.608    19492.163    12546.926     7158.522        9.887        1.960      397.738       40.252        0.010      342.127       17.316      859.290
04/24/2013  18:17:00      307.982      173.187       20.616      146.122      110.258       81.770    21351.535    12156.734     6686.374        8.272        2.010      353.336       47.744        0.018      342.079       17.233      859.283
04/24/2013  18:18:00      142.631      103.246       63.492      123.655      104.196       73.151    15290.553    10856.906     5351.117        3.326        1.575      176.078       67.080        0.145      342.031       17.155      859.279
04/24/2013  18:19:00      234.502      171.527       90.026      139.650       82.341       75.270    19502.167     6780.113     5665.619        6.223        1.597      290.539       48.054        0.027      342.132       17.324      859.277
04/24/2013  18:20:00      278.686      199.890      170.259      183.926      144.571      122.409    33828.837    20900.768    14983.960       10.815        3.486      342.960      100.381        0.086      341.975       17.056      859.265
04/24/2013  18:21:00      264.828       87.054       49.832      159.996      106.553       98.801    25598.665    11353.473     9761.554        6.345        2.336      278.770       78.480        0.079      342.046       17.178      859.281
04/24/2013  18:22:00       97.535       60.785       90.912       93.410      116.025       64.250     8725.448    13461.872     4128.078        2.389        1.316      114.925       43.822        0.145      341.990       17.085      859.289
04/24/2013  18:23:00      113.748       14.285       42.616       91.542      115.639       69.166     8380.026    13372.398     4783.980        2.074        1.327      114.642       45.159        0.155      341.956       17.028      859.268
04/24/2013  18:24:00      163.499       94.989       85.937      117.765       74.566       75.254    13868.679     5560.048     5663.160        3.411        1.255      189.089       68.138        0.130      341.887       16.909      859.265
04/24/2013  18:25:00      216.060      120.754       84.706      182.120      128.692      110.804    33167.705    16561.519    12277.472        6.521        3.100      247.515       91.650        0.137      341.924       16.973      859.263
04/24/2013  18:26:00      245.127      128.661       69.719      161.643       90.040       82.398    26128.570     8107.267     6789.443        6.125        2.051      276.841       88.252        0.102      341.912       16.951      859.251
04/24/2013  18:27:00      229.109       99.176       53.647      136.784      102.142       85.978    18709.791    10432.947     7392.140        5.086        1.827      249.653       67.273        0.073      342.157       17.367      859.250
04/24/2013  18:28:00      221.748      112.788       17.931      118.549       90.357       65.066    14053.909     8164.312     4233.569        4.433        1.323      248.784       37.009        0.022      342.183       17.412      859.273
04/24/2013  18:29:00      189.670      118.230       30.128      116.832       86.856       67.616    13649.621     7544.008     4571.868        3.831        1.288      223.502       52.891        0.056      342.247       17.520      859.270
04/24/2013  18:30:00      203.443      136.829       18.007       89.086       64.690       68.903     7936.241     4184.761     4747.625        3.865        0.843      245.176       29.751        0.015      342.058       17.199      859.260
04/24/2013  18:31:00      225.172      150.062       32.528       95.406       61.094       54.300     9102.306     3732.434     2948.471        4.503        0.789      270.594       46.164        0.029      342.073       17.224      859.253
04/24/2013  18:32:00      168.111       91.881       24.385       88.069       87.714       58.894     7756.135     7693.810     3468.546        2.810        0.946      191.582       29.016        0.023      342.141       17.341      859.260
04/24/2013  18:33:00      262.734      160.830       50.089       69.187       65.027       55.995     4786.858     4228.449     3135.414        5.477        0.608      308.051       33.439        0.012      342.215       17.465      859.260
04/24/2013  18:34:00      230.235      145.813       39.096      149.765      102.357       76.167    22429.483    10476.966     5801.462        5.724        1.935      272.524       23.125        0.007      342.165       17.380      859.265
04/24/2013  18:35:00      280.871      160.137       31.121       97.187      100.259       63.865     9445.276    10051.918     4078.727        6.453        1.179      323.315       42.422        0.017      342.054       17.191      859.253
04/24/2013  18:36:00      164.268       91.205       32.300       75.651       66.996       47.189     5723.024     4488.520     2226.820        2.439        0.622      187.889       26.263        0.020      342.062       17.206      859.252
04/24/2013  18:37:00      133.267       82.012       34.430       84.760       80.302       73.210     7184.238     6448.342     5359.694        2.233        0.950      156.480       25.260        0.026      342.038       17.165      859.243
04/24/2013  18:38:00      156.323      102.220       14.878      130.213       97.364       78.751    16955.488     9479.791     6201.698        3.387        1.632      186.778       51.909        0.077      342.098       17.268      859.242
04/24/2013  18:39:00      387.622      224.515       61.976      140.118      105.972       85.962    19632.925    11230.041     7389.537       12.137        1.913      447.949       42.488        0.009      342.046       17.177      859.242
04/24/2013  18:40:00      347.037      184.240       29.579      168.909      100.146       76.477    28530.410    10029.138     5848.729        9.982        2.220      392.911       44.749        0.013      342.083       17.241      859.252
04/24/2013  18:41:00      182.282      100.220       45.419      128.159       90.375       60.545    16424.616     8167.644     3665.679        3.679        1.413      208.016       53.110        0.065      341.968       17.047      859.267
04/24/2013  18:42:00      169.900       95.736       59.133      135.392       81.614       55.798    18331.051     6660.886     3113.448        3.481        1.405      195.016       51.932        0.071      341.845       16.840      859.279
04/24/2013  18:43:00      353.634      184.470       53.972      121.033       96.481       86.432    14649.088     9308.584     7470.525        9.671        1.571      398.856       38.163        0.009      342.016       17.127      859.275
04/24/2013  18:44:00      195.524      108.865       23.397      105.886       76.618       58.923    11211.851     5870.277     3471.906        3.559        1.028      223.788       37.124        0.028      341.967       17.045      859.266
04/24/2013  18:45:00      256.757      171.478       43.968      119.409       71.696       70.359    14258.466     5140.310     4950.342        6.080        1.217      308.754       24.563        0.006      342.001       17.102      859.258
04/24/2013  18:46:00      245.746      167.357       44.705      123.473       91.767       61.203    15245.667     8421.120     3745.797        5.890        1.371      297.321       58.855        0.039      342.045       17.176      859.254
04/24/2013  18:47:00      107.144       77.211       40.168       56.497       49.441       38.714     3191.889     2444.363     1498.764        1.309        0.357      132.065       14.175        0.012      342.000       17.103      859.263
04/24/2013  18:48:00      133.539       61.450       11.612       67.821       56.763       44.079     4599.633     3222.085     1942.984        1.575        0.488      146.999       18.725        0.016      342.074       17.229      859.275
04/24/2013  18:49:00       76.359       58.896       18.052       87.950       50.059       48.989     7735.165     2505.876     2399.920        1.113        0.632       96.433       25.907        0.072      342.131       17.324      859.270
04/24/2013  18:50:00      170.896       93.499       57.730      108.672       76.885       82.516    11809.707     5911.363     6808.877        3.290        1.226      194.801       58.688        0.091      341.953       17.021      859.265
04/24/2013  18:51:00      248.401      159.476      119.494      141.522      117.710      107.448    20028.383    13855.678    11545.106        7.341        2.271      295.187       88.172        0.089      341.829       16.811      859.237
04/24/2013  18:52:00      272.566      164.327       93.380      175.144      131.103      110.519    30675.484    17187.978    12214.455        8.503        3.004      318.270      106.856        0.113      341.821       16.796      859.229
04/24/2013  18:53:00      232.737      133.209       29.549      120.397       87.225       62.997    14495.523     7608.277     3968.663        4.942        1.304      268.163       43.155        0.026      341.985       17.074      859.242
04/24/2013  18:54:00      161.258       72.177       46.790       93.280       94.253       66.201     8701.187     8883.562     4382.542        2.768        1.098      176.674       46.622        0.070      341.813       16.784      859.234
04/24/2013  18:55:00      194.248      120.026       93.991      151.278      109.142      130.732    22884.968    11911.878    17090.941        5.642        2.594      228.339       90.620        0.158      341.917       16.960      859.208
04/24/2013  18:56:00      168.380      148.997      104.643      100.242       95.480       72.123    10048.481     9116.364     5201.683        4.293        1.218      224.838       50.887        0.051      341.845       16.838      859.199
04/24/2013  18:57:00      179.097      110.651       67.441      126.422      118.751       81.695    15982.562    14101.815     6674.064        4.281        1.838      210.522       62.348        0.088      341.827       16.806      859.180
04/24/2013  18:58:00      207.613      156.685       42.486      114.846       76.288       82.926    13189.678     5819.886     6876.661        4.767        1.294      260.102       44.389        0.029      341.930       16.982      859.187
04/24/2013  18:59:00      220.173      139.527       12.205       97.330       72.098       56.478     9473.107     5198.125     3189.818        4.297        0.893      260.661       20.629        0.006      342.012       17.120      859.189
04/24/2013  19:00:00      256.086      165.237       38.828       78.139       78.616       60.089     6105.665     6180.422     3610.698        5.514        0.795      304.768       26.900        0.008      342.004       17.105      859.182
04/24/2013  19:01:00      164.042       91.462       68.434       90.943       71.712       48.617     8270.709     5142.591     2363.578        2.786        0.789      187.817       40.403        0.046      341.772       16.715      859.195
04/24/2013  19:02:00      132.195      122.541       88.130       93.208       86.993       70.815     8687.823     7567.830     5014.710        3.076        1.064      180.255       51.639        0.082      341.690       16.575      859.200
04/24/2013  19:03:00      269.078      128.711       54.617      147.082      100.364      104.459    21633.156    10072.946    10911.671        6.728        2.131      298.278       39.659        0.018      341.901       16.932      859.185
04/24/2013  19:04:00      357.012      202.935       64.501      124.268       97.135       83.441    15442.581     9435.258     6962.403       10.231        1.592      410.658       41.042        0.010      341.902       16.934      859.183
04/24/2013  19:05:00      289.602      177.539       74.757      142.319      110.821      100.921    20254.769    12281.330    10185.144        8.184        2.136      339.690       59.831        0.031      341.899       16.929      859.188
04/24/2013  19:06:00      136.580       75.518       46.753       71.323       53.434       48.948     5087.032     2855.186     2395.859        1.844        0.517      156.068       37.645        0.058      341.796       16.756      859.201
04/24/2013  19:07:00      190.916      132.641       42.778       82.029       69.860       60.409     6728.706     4880.356     3649.216        3.556        0.763      232.470       35.281        0.023      341.856       16.854      859.202
04/24/2013  19:08:00      267.583      158.632       37.281      156.224      106.570       80.168    24405.835    11357.141     6426.875        7.016        2.109      311.070       51.193        0.027      341.872       16.883      859.196
04/24/2013  19:09:00      253.383      143.438       34.036      104.735      106.515       79.488    10969.436    11345.496     6318.352        5.728        1.432      291.166       55.056        0.036      341.864       16.867      859.192
04/24/2013  19:10:00      236.139      148.619       43.375      118.221       85.446       62.795    13976.127     7301.067     3943.210        5.247        1.261      279.015       53.215        0.036      341.857       16.858      859.198
04/24/2013  19:11:00      283.975      134.743       41.686      137.062      104.239       64.731    18786.039    10865.724     4190.118        6.718        1.692      314.321       39.600        0.016      341.877       16.892      859.199
04/24/2013  19:12:00      192.624      103.489       43.357      105.808       81.740       67.454    11195.240     6681.368     4549.997        3.606        1.121      218.665       46.083        0.044      341.808       16.775      859.192
04/24/2013  19:13:00      220.461      103.135       38.397      141.271      101.970       76.786    19957.398    10397.827     5896.053        4.848        1.813      243.393       55.987        0.053      341.811       16.780      859.197
04/24/2013  19:14:00      333.886      192.447       40.389      133.403      105.405       78.342    17796.389    11110.315     6137.494        9.259        1.752      385.378       61.472        0.025      341.864       16.868      859.190
04/24/2013  19:15:00      198.531      108.302       40.095      112.716       84.213       62.031    12704.997     7091.839     3847.865        3.819        1.182      226.150       34.378        0.023      341.803       16.765      859.194
04/24/2013  19:16:00      210.015      130.445       28.722      126.400       78.322       71.069    15976.887     6134.287     5050.828        4.455        1.358      247.229       29.453        0.014      341.775       16.717      859.197
04/24/2013  19:17:00      135.440       82.483       30.156       71.569       59.821       49.038     5122.065     3578.503     2404.731        1.858        0.555      158.579       32.919        0.043      341.780       16.729      859.206
04/24/2013  19:18:00      117.487       56.871       28.776       67.659       54.194       32.462     4577.779     2936.970     1053.785        1.322        0.428      130.527       24.494        0.035      341.585       16.397      859.214
04/24/2013  19:19:00      107.177       75.477       17.791       59.427       51.882       43.635     3531.569     2691.769     1904.002        1.281        0.406      131.086       34.437        0.069      341.770       16.714      859.212
04/24/2013  19:20:00      126.504       52.879       30.851      114.862       64.428       53.102    13193.337     4151.004     2819.802        1.995        1.008      137.111       12.261        0.008      341.665       16.535      859.214
04/24/2013  19:21:00      193.861      112.903       30.465      112.689       90.112       76.951    12698.741     8120.116     5921.397        3.899        1.337      224.342       58.088        0.067      341.762       16.698      859.198
04/24/2013  19:22:00      198.253      124.531       40.559       62.274       41.288       40.877     3878.006     1704.705     1670.899        3.185        0.363      234.120       21.129        0.008      341.791       16.746      859.216
04/24/2013  19:23:00      122.675       60.830       17.703       58.710       55.486       36.086     3446.865     3078.649     1302.228        1.344        0.391      136.929       14.472        0.011      341.657       16.521      859.220
04/24/2013  19:24:00       92.181       84.076       12.690       75.503       56.558       60.461     5700.759     3198.788     3655.559        1.414        0.628      124.764       38.929        0.097      341.680       16.561      859.211
04/24/2013  19:25:00      147.131       94.762       49.701      105.988       65.442       64.898    11233.487     4282.700     4211.752        2.641        0.986      175.007       56.054        0.103      341.632       16.476      859.211
04/24/2013  19:26:00      191.103      132.308       36.443       84.937       66.588       57.892     7214.339     4433.905     3351.528        3.517        0.750      232.435       37.051        0.025      341.590       16.405      859.216
04/24/2013  19:27:00      146.456       76.263        9.831       68.517       50.558       49.986     4694.539     2556.137     2498.571        1.855        0.487      165.123       31.678        0.037      341.672       16.546      859.215
04/24/2013  19:28:00      171.840       85.872       24.021       95.364       68.005       51.343     9094.269     4624.629     2636.132        2.691        0.818      192.101       38.895        0.041      341.639       16.490      859.222
04/24/2013  19:29:00      196.110      131.793       40.852       83.169       57.890       44.602     6917.141     3351.261     1989.316        3.488        0.613      236.281       31.790        0.018      341.695       16.583      859.232
04/24/2013  19:30:00      194.781       96.303       33.730      116.463       84.263       63.057    13563.744     7100.319     3976.234        3.649        1.232      217.288       39.737        0.033      341.672       16.543      859.244
04/24/2013  19:31:00      154.768       82.398       33.551       93.614       59.482       50.883     8763.625     3538.153     2589.121        2.338        0.745      175.335       34.922        0.040      341.444       16.160      859.257
04/24/2013  19:32:00      155.991       89.482       44.995       86.782       58.857       56.134     7531.132     3464.103     3151.028        2.425        0.707      179.834       45.361        0.064      341.594       16.411      859.269
04/24/2013  19:33:00      119.791       55.618       41.185      105.123       62.205       46.649    11050.756     3869.437     2176.172        1.811        0.855      132.072       23.626        0.032      341.426       16.129      859.283
04/24/2013  19:34:00       86.718       28.594       29.610       73.389       57.286       45.528     5385.898     3281.725     2072.777        0.998        0.537       91.310       29.445        0.104      341.530       16.306      859.278
04/24/2013  19:35:00       93.817       73.626        1.330       54.280       53.576       38.194     2946.270     2870.390     1458.773        1.075        0.364      119.258       28.026        0.055      341.461       16.189      859.290
04/24/2013  19:36:00       90.238       55.440        7.625       62.360       52.887       41.023     3888.763     2797.066     1682.899        0.982        0.418      105.908       28.126        0.071      341.455       16.178      859.302
04/24/2013  19:37:00      153.756      107.071       15.271       85.722       68.666       58.438     7348.250     4715.074     3415.057        2.541        0.774      187.364       35.726        0.036      341.553       16.343      859.303
04/24/2013  19:38:00      124.056       75.692       46.471       88.908       51.456       46.654     7904.701     2647.751     2176.590        1.800        0.636      145.324       48.270        0.110      341.421       16.120      859.317
04/24/2013  19:39:00      139.052      102.045       35.084       58.547       48.454       45.956     3427.795     2347.804     2111.915        1.943        0.394      172.478       39.577        0.053      341.405       16.092      859.322
04/24/2013  19:40:00      135.868       49.523       20.659       92.915       65.148       47.604     8633.253     4244.198     2266.104        1.824        0.757      144.612       23.590        0.027      341.422       16.121      859.327
04/24/2013  19:41:00       94.708       44.217       14.135       84.146       68.973       44.852     7080.520     4757.270     2011.672        1.248        0.692      104.521       27.654        0.070      341.446       16.163      859.331
04/24/2013  19:42:00      172.771       99.231       55.328      108.867       61.678       61.190    11852.007     3804.130     3744.239        3.108        0.970      199.240       39.850        0.040      341.447       16.163      859.336
04/24/2013  19:43:00      116.393       35.726       27.140       43.283       52.908       37.078     1873.454     2799.229     1374.757        1.080        0.302      121.752       24.911        0.042      341.065       15.518      859.340
04/24/2013  19:44:00      102.226       79.479       30.921       63.435       51.306       54.033     4023.990     2632.263     2919.563        1.365        0.479      129.488       44.689        0.119      341.256       15.842      859.353
04/24/2013  19:45:00      160.002       98.243       44.763       88.359       64.654       64.005     7807.373     4180.081     4096.586        2.667        0.804      187.756       49.668        0.070      341.537       16.316      859.361
04/24/2013  19:46:00      158.798       93.998       31.448       54.295       51.572       40.897     2947.932     2659.647     1672.545        2.116        0.364      184.533       19.094        0.011      341.348       15.996      859.365
04/24/2013  19:47:00       96.191       78.623       44.717       90.707       65.360       46.810     8227.712     4271.872     2191.181        1.606        0.735      124.235       35.766        0.083      341.312       15.936      859.366
04/24/2013  19:48:00      104.104       59.693       25.642       81.646       52.813       44.242     6666.073     2789.257     1957.372        1.323        0.571      120.004       29.038        0.059      341.420       16.119      859.377
04/24/2013  19:49:00      108.083       58.646       25.517       67.678       52.883       47.223     4580.257     2796.605     2230.037        1.269        0.480      122.969       21.856        0.032      341.400       16.085      859.391
04/24/2013  19:50:00       79.432       55.478       15.409       64.048       42.696       38.246     4102.116     1822.932     1462.757        0.850        0.369       96.888       27.074        0.078      341.355       16.009      859.403
04/24/2013  19:51:00      115.017       77.744       20.475       40.854       39.488       29.715     1669.036     1559.336      882.984        1.190        0.206      138.828       20.052        0.021      341.403       16.091      859.412
04/24/2013  19:52:00       74.429       42.011       11.241       44.267       30.897       36.111     1959.593      954.599     1303.980        0.582        0.211       85.467       29.103        0.116      341.274       15.872      859.428
04/24/2013  19:53:00       87.340       42.699       15.314       35.022       38.802       22.488     1226.552     1505.594      505.697        0.646        0.162       97.219       15.959        0.027      341.163       15.683      859.432
04/24/2013  19:54:00       87.361       49.568       19.619       30.872       23.149       23.259      953.088      535.870      540.973        0.625        0.101      100.444        6.330        0.004      341.141       15.648      859.441
04/24/2013  19:55:00      110.107       45.642       20.823       72.987       53.310       45.745     5327.037     2841.971     2092.571        1.245        0.513      119.192       30.580        0.066      341.049       15.491      859.449
04/24/2013  19:56:00      122.733       64.108       30.992       62.389       51.280       44.483     3892.442     2629.590     1978.731        1.432        0.425      138.467       24.176        0.030      341.240       15.815      859.455
04/24/2013  19:57:00      166.459       93.205       28.536       57.722       47.980       31.438     3331.849     2302.125      988.355        2.191        0.331      190.777       15.912        0.007      341.377       16.045      859.465
04/24/2013  19:58:00       89.931       65.843       11.561       54.297       24.165       22.669     2948.113      583.959      513.890        0.830        0.202      111.458       22.586        0.041      341.281       15.883      859.479
04/24/2013  19:59:00      107.282       43.053       16.662       42.745       34.164       28.538     1827.150     1167.205      814.401        0.872        0.190      115.598       13.868        0.014      341.192       15.734      859.485
04/24/2013  20:00:00       83.377       40.682       11.308       39.378       31.638       23.021     1550.612     1000.964      529.975        0.591        0.154       92.772       18.043        0.038      341.111       15.598      859.495
04/24/2013  20:01:00       58.357       52.168       16.315       38.967       33.631       18.423     1518.405     1131.014      339.409        0.469        0.149       78.276       19.416        0.062      341.097       15.575      859.467
04/24/2013  20:02:00       52.628       43.248        8.277       32.287       28.388       23.724     1042.471      805.870      562.827        0.356        0.121       68.118       16.994        0.062      341.143       15.651      859.420
04/24/2013  20:03:00       27.379       26.648        3.617       25.782       24.577       20.069      664.698      604.008      402.770        0.157        0.084       38.207       14.780        0.150      341.031       15.462      859.410
04/24/2013  20:04:00       29.935       31.489        3.149       34.837       29.528       27.801     1213.618      871.877      772.881        0.238        0.143       43.447       24.362        0.314      341.026       15.454      859.422
04/24/2013  20:05:00       65.235       49.235       14.802       48.870       40.685       39.062     2388.229     1655.242     1525.869        0.623        0.278       81.729       27.505        0.113      341.076       15.539      859.436
04/24/2013  20:06:00       27.304       37.497        9.266       35.353       28.841       29.354     1249.822      831.826      861.651        0.259        0.147       46.385       20.220        0.190      341.066       15.520      859.437
04/24/2013  20:07:00       38.265       68.914       -8.961       47.358       41.832       31.528     2242.822     1749.896      994.042        0.564        0.249       78.825       28.411        0.130      341.062       15.514      859.438
04/24/2013  20:08:00       35.269       44.715       -0.494       38.974       39.272       26.462     1519.007     1542.328      700.220        0.350        0.188       56.950       24.563        0.186      341.034       15.467      859.452
04/24/2013  20:09:00       32.924       49.559        3.683       48.138       39.207       29.412     2317.258     1537.152      865.056        0.414        0.236       59.499       24.990        0.176      341.017       15.439      859.469
04/24/2013  20:10:00       19.331       66.808        2.460       23.978       32.735       25.116      574.954     1071.551      630.813        0.356        0.114       69.549       24.497        0.124      340.973       15.364      859.484
04/24/2013  20:11:00       15.713       52.326        0.445       33.233       33.573       21.180     1104.410     1127.179      448.583        0.283        0.134       54.634       19.179        0.123      340.925       15.282      859.501
04/24/2013  20:12:00       41.779       87.282       -6.829       40.371       44.343       30.598     1629.850     1966.282      936.237        0.697        0.227       96.766       26.702        0.076      341.062       15.514      859.510
04/24/2013  20:13:00       55.368       46.065       15.674       51.904       30.924       37.827     2694.054      956.264     1430.872        0.526        0.254       72.025       24.206        0.113      341.038       15.473      859.525
04/24/2013  20:14:00       49.460       50.394        8.293       50.093       42.517       39.112     2509.330     1807.681     1529.757        0.545        0.292       70.610       30.774        0.190      340.993       15.396      859.535
04/24/2013  20:15:00       21.105       75.892       -2.895       29.230       50.311       29.095      854.407     2531.202      846.520        0.522        0.212       78.772       30.465        0.150      340.943       15.313      859.549
04/24/2013  20:16:00       22.710      148.145      -26.903       20.606       23.428       16.928      424.608      548.869      286.545        1.222        0.063      149.876       12.713        0.007      341.017       15.437      859.567
04/24/2013  20:17:00       23.348      131.173      -23.672       23.550       33.036       17.231      554.604     1091.397      296.900        1.013        0.097      133.235       19.164        0.021      340.969       15.358      859.580
04/24/2013  20:18:00       11.447      128.169      -24.807       18.830       26.123       12.491      354.553      682.403      156.033        0.918        0.060      128.679        9.816        0.006      340.928       15.288      859.578
04/24/2013  20:19:00       -2.329      118.367      -19.965       20.853       31.061       10.388      434.830      964.797      107.915        0.796        0.075      118.389       11.327        0.009      340.908       15.253      859.589
04/24/2013  20:20:00      -12.595      162.658      -22.792       17.057       17.348        9.902      290.952      300.947       98.047        1.391        0.034      163.144        4.843        0.001      340.965       15.349      859.599
04/24/2013  20:21:00      -13.369      140.625      -24.061       22.257       34.153       14.832      495.374     1166.443      219.987        1.121        0.094      141.259       16.673        0.014      340.934       15.297      859.620
04/24/2013  20:22:00        6.231      163.721      -23.899       21.871       24.344       13.126      478.329      592.623      172.305        1.433        0.062      163.840       10.108        0.004      340.916       15.266      859.634
04/24/2013  20:23:00       16.548      162.356      -27.621       28.560       27.729       15.892      815.687      768.884      252.557        1.462        0.092      163.197       10.652        0.004      340.863       15.176      859.642
04/24/2013  20:24:00       27.764      175.375      -27.756       29.467       32.543       20.325      868.324     1059.023      413.099        1.732        0.117      177.559       17.791        0.010      340.785       15.045      859.662
04/24/2013  20:25:00       23.908      204.728      -32.409       30.321       28.247       20.135      919.351      797.866      405.432        2.283        0.106      206.119       11.079        0.003      340.731       14.954      859.682
04/24/2013  20:26:00       16.283      191.279      -32.665       33.749       49.321       23.169     1138.994     2432.552      536.820        2.101        0.205      191.971       20.228        0.011      340.710       14.917      859.691
04/24/2013  20:27:00       35.523      161.980      -28.448       42.561       42.191       25.574     1811.428     1780.040      654.047        1.628        0.212      165.830       24.173        0.021      340.743       14.974      859.696
04/24/2013  20:28:00       30.817      172.416      -24.741       28.461       28.638       18.072      810.036      820.128      326.605        1.662        0.098      175.149       13.700        0.006      340.773       15.025      859.700
04/24/2013  20:29:00       20.694      145.980      -18.447       21.947       32.620       21.808      481.657     1064.058      475.605        1.205        0.101      147.440       19.445        0.017      340.718       14.933      859.708
04/24/2013  20:30:00       17.563      111.059       -7.833       31.904       31.292       27.792     1017.850      979.209      772.418        0.774        0.138      112.439       22.186        0.039      340.714       14.924      859.715
04/24/2013  20:31:00       18.454       78.550       -1.345       32.815       54.512       28.605     1076.807     2971.536      818.272        0.569        0.243       80.689       25.551        0.100      340.678       14.865      859.721
04/24/2013  20:32:00       29.104       98.051       -9.834       35.981       50.242       31.984     1294.643     2524.238     1022.972        0.770        0.242      102.279       29.794        0.085      340.689       14.884      859.739
04/24/2013  20:33:00        8.682      126.317      -13.141       25.629       40.635       24.383      656.846     1651.237      594.525        0.955        0.145      126.615       22.570        0.032      340.633       14.788      859.762
04/24/2013  20:34:00       23.898      159.491      -22.020       27.195       28.197       19.483      739.590      795.076      379.596        1.420        0.096      161.272       16.785        0.011      340.651       14.820      859.766
04/24/2013  20:35:00       26.840      167.518      -26.815       27.745       30.448       19.147      769.766      927.058      366.599        1.578        0.103      169.655       14.899        0.008      340.687       14.881      859.778
04/24/2013  20:36:00       23.144      163.251      -28.111       28.003       35.938       17.753      784.144     1291.506      315.181        1.518        0.120      164.884       15.723        0.009      340.687       14.880      859.790
04/24/2013  20:37:00       28.895      158.492      -26.021       27.146       34.484       16.096      736.921     1189.171      259.070        1.441        0.109      161.105       13.156        0.007      340.670       14.851      859.805
04/24/2013  20:38:00       27.779      168.346      -26.033       31.110       35.049       16.292      967.844     1228.408      265.430        1.613        0.123      170.622       16.411        0.009      340.722       14.939      859.818
04/24/2013  20:39:00       19.127      135.474      -22.403       35.343       41.601       23.409     1249.113     1730.663      547.995        1.137        0.176      136.818       21.398        0.024      340.593       14.722      859.831
04/24/2013  20:40:00       29.944      146.425      -21.956       31.222       30.749       19.738      974.830      945.486      389.574        1.256        0.115      149.456       18.307        0.015      340.645       14.807      859.836
04/24/2013  20:41:00       23.083      168.057      -29.976       27.238       23.467       13.422      741.923      550.723      180.143        1.557        0.074      169.635       10.819        0.004      340.684       14.876      859.846
04/24/2013  20:42:00       16.184      164.721      -26.010       25.519       33.337       21.163      651.195     1111.355      447.853        1.514        0.111      165.515       11.283        0.005      340.700       14.903      859.856
04/24/2013  20:43:00       33.114      164.718      -27.645       22.554       27.687       18.980      508.674      766.566      360.243        1.531        0.082      168.013       15.070        0.008      340.699       14.900      859.873
04/24/2013  20:44:00       31.173      147.777      -26.295       29.884       46.834       20.459      893.062     2193.387      418.559        1.350        0.175      151.029       20.882        0.019      340.642       14.803      859.890
04/24/2013  20:45:00       28.476      167.751      -25.322       36.377       33.217       21.561     1323.271     1103.380      464.868        1.624        0.145      170.151       12.837        0.006      340.663       14.839      859.910
04/24/2013  20:46:00       34.931      176.727      -20.708       36.571       58.667       34.838     1337.462     3441.768     1213.676        1.944        0.300      180.146       37.190        0.043      340.615       14.758      859.928
04/24/2013  20:47:00       24.644      184.514      -29.112       33.517       35.674       23.225     1123.365     1272.657      539.389        1.922        0.147      186.152       20.783        0.012      340.628       14.778      859.938
04/24/2013  20:48:00      -24.295      136.153      -16.487       26.456       38.616       19.462      699.899     1491.204      378.756        1.098        0.128      138.303       22.291        0.026      340.610       14.749      859.953
04/24/2013  20:49:00        1.772      149.759      -21.090       37.900       29.441       16.588     1436.424      866.786      275.151        1.273        0.129      149.770       10.813        0.005      340.632       14.786      859.970
04/24/2013  20:50:00       11.492      129.332      -24.604       29.899       29.326       13.339      893.951      860.038      177.926        0.970        0.097      129.841       14.537        0.013      340.623       14.771      859.975
04/24/2013  20:51:00        0.047      127.270      -19.515       36.259       24.099       16.095     1314.737      580.755      259.049        0.937        0.108      127.270       16.610        0.017      340.659       14.832      859.982
04/24/2013  20:52:00       10.941      153.697      -24.141       33.116       33.708       17.091     1096.669     1136.238      292.087        1.342        0.126      154.086       16.231        0.011      340.674       14.857      859.995
04/24/2013  20:53:00        4.632      142.852      -17.486       29.710       34.574       18.328      882.669     1195.383      335.915        1.157        0.121      142.927       15.449        0.012      340.612       14.751      859.998
04/24/2013  20:54:00        1.534      125.747      -22.520       24.272       18.781       13.338      589.112      352.722      177.894        0.872        0.056      125.756       12.148        0.009      340.662       14.837      860.003
04/24/2013  20:55:00      -35.340       37.987       -4.195       19.832       40.227       15.579      393.314     1618.172      242.709        0.248        0.113       51.884       15.642        0.091      340.661       14.836      860.001
04/24/2013  20:56:00      -42.127       63.182      -16.596       20.961       23.208       11.645      439.355      538.628      135.597        0.358        0.056       75.938        8.712        0.013      340.780       15.036      860.007
04/24/2013  20:57:00      -62.676       45.148       -9.535       30.935       31.988       15.604      956.958     1023.226      243.471        0.414        0.111       77.244       15.903        0.042      340.624       14.773      860.016
04/24/2013  20:58:00      -41.100       24.913      -13.556       23.250       33.986       11.748      540.558     1155.022      138.012        0.216        0.092       48.061       13.210        0.076      340.518       14.595      860.027
04/24/2013  20:59:00      -81.934        0.973      -14.378       19.048       14.954       10.782      362.818      223.635      116.247        0.381        0.035       81.940        4.023        0.002      340.119       13.920      860.032
04/24/2013  21:00:00      -58.865       -3.810      -11.867       22.226       27.978       16.730      493.975      782.745      279.883        0.259        0.078       58.988       13.306        0.051      339.989       13.700      860.052
04/24/2013  21:01:00      -78.741       -0.331       -9.300       27.100       22.508       16.580      734.412      506.597      274.905        0.390        0.076       78.741       13.765        0.031      339.873       13.504      860.059
04/24/2013  21:02:00      -51.015       -5.825       -5.732       33.519       25.419       16.805     1123.512      646.135      282.413        0.236        0.103       51.347       17.931        0.122      339.806       13.391      860.073
04/24/2013  21:03:00      -83.681       -2.629      -15.340       48.362       29.864       21.990     2338.876      891.851      483.554        0.548        0.186       83.723       17.534        0.044      339.731       13.267      860.083
04/24/2013  21:04:00      -73.219       -7.316       -8.181       55.731       31.791       20.971     3105.924     1010.660      439.783        0.502        0.228       73.583       23.364        0.101      339.667       13.156      860.090
04/24/2013  21:05:00      -53.109       -0.481       -5.531       40.160       26.463       23.083     1612.864      700.311      532.836        0.285        0.142       53.111       22.445        0.179      339.565       12.987      860.095
04/24/2013  21:06:00      -53.189       -6.405       -8.243       42.605       26.114       21.424     1815.164      681.948      458.978        0.295        0.148       53.573       19.255        0.129      339.506       12.885      860.108
04/24/2013  21:07:00      -92.960       -9.384       -8.444       41.883       27.647       18.824     1754.153      764.351      354.326        0.584        0.144       93.432       19.253        0.042      339.485       12.851      860.122
04/24/2013  21:08:00      -66.832      -10.064       -8.106       41.327       26.839       14.275     1707.933      720.331      203.773        0.363        0.132       67.586       13.380        0.039      339.460       12.808      860.138
04/24/2013  21:09:00      -54.896        5.655       -7.412       38.282       28.299       25.031     1465.533      800.806      626.555        0.300        0.145       55.187       21.705        0.155      339.504       12.884      860.149
04/24/2013  21:10:00      -92.752       32.586      -14.297       31.470       27.278       20.632      990.379      744.107      425.696        0.601        0.108       98.310        6.525        0.004      339.708       13.226      860.170
04/24/2013  21:11:00      -93.062       53.952      -19.209       28.819       23.753       20.032      830.514      564.192      401.276        0.687        0.090      107.570       16.101        0.022      339.913       13.573      860.177
04/24/2013  21:12:00     -119.160       53.786      -15.598       26.901       35.877       20.682      723.677     1287.163      427.763        0.989        0.122      130.736       14.146        0.012      340.033       13.775      860.185
04/24/2013  21:13:00      -77.697       10.712      -10.942       25.016       28.832       17.396      625.816      831.287      302.624        0.402        0.088       78.432       15.455        0.039      339.993       13.706      860.182
04/24/2013  21:14:00      -88.096       13.286      -15.387       22.615       31.944       21.191      511.452     1020.442      449.043        0.508        0.099       89.092       12.902        0.021      339.964       13.658      860.175
04/24/2013  21:15:00      -87.702       34.107      -10.652       28.995       29.403       24.250      840.722      864.559      588.056        0.563        0.115       94.100       18.807        0.040      339.901       13.553      860.174
04/24/2013  21:16:00      -79.496       62.465      -26.708       33.574       56.558       20.930     1127.228     3198.816      438.083        0.785        0.238      101.101       13.936        0.019      340.075       13.846      860.179
04/24/2013  21:17:00      -39.689       -0.393       -5.378       12.699       19.767       14.280      161.261      390.717      203.910        0.118        0.038       39.691       11.743        0.088      339.821       13.418      860.192
04/24/2013  21:18:00      -58.667        5.956      -13.119       17.616       19.337       11.595      310.332      373.920      134.446        0.223        0.041       58.968        4.661        0.006      339.999       13.718      860.202
04/24/2013  21:19:00      -69.902      -26.342      -12.003       15.408       17.919        9.956      237.420      321.078       99.126        0.319        0.033       74.700        5.976        0.006      339.819       13.414      860.203
04/24/2013  21:20:00      -62.235       -1.944      -12.461       18.881       22.352       13.408      356.506      499.622      179.772        0.253        0.052       62.265       10.485        0.028      339.775       13.340      860.215
04/24/2013  21:21:00      -47.223        9.632       -8.606       32.537       33.949       17.976     1058.663     1152.552      323.119        0.247        0.127       48.195       17.206        0.127      339.871       13.501      860.224
04/24/2013  21:22:00      -96.176       62.033      -29.562       20.042       43.110       15.806      401.673     1858.479      249.839        0.824        0.125      114.446       16.385        0.020      339.934       13.609      860.231
04/24/2013  21:23:00      -55.287      -13.697      -10.476       18.698       17.730        9.751      349.612      314.337       95.082        0.206        0.038       56.959        3.825        0.005      339.799       13.380      860.236
04/24/2013  21:24:00      -93.412       -6.771      -18.580       21.813       40.558       16.339      475.799     1644.989      266.972        0.575        0.119       93.657       17.982        0.037      339.789       13.364      860.234
04/24/2013  21:25:00      -47.119      -10.371      -12.934       17.629       23.620        9.545      310.775      557.887       91.098        0.173        0.048       48.247        6.663        0.019      339.621       13.080      860.229
04/24/2013  21:26:00      -89.530      -27.653       -5.186       23.765       30.083       16.494      564.775      904.990      272.066        0.527        0.087       93.703       10.548        0.013      339.650       13.129      860.235
04/24/2013  21:27:00      -56.179      -12.985       -9.388       23.373       21.087       15.982      546.309      444.679      255.424        0.233        0.062       57.660        8.655        0.023      339.589       13.026      860.233
04/24/2013  21:28:00      -90.598      -21.141      -15.228       23.855       22.099       11.132      569.042      488.349      123.924        0.503        0.059       93.032        5.689        0.004      339.597       13.039      860.224
04/24/2013  21:29:00      -91.560      -15.397      -15.313       19.565       25.788       16.369      382.787      664.998      267.948        0.508        0.066       92.845       14.454        0.024      339.599       13.043      860.216
04/24/2013  21:30:00      -79.544      -11.021       -9.549       22.392       30.498       16.170      501.398      930.133      261.466        0.412        0.085       80.304       11.761        0.021      339.540       12.944      860.210
04/24/2013  21:31:00      -92.339      -26.727      -12.402       17.130       14.993       11.569      293.429      224.782      133.842        0.502        0.033       96.129        7.383        0.006      339.464       12.817      860.205
04/24/2013  21:32:00      -80.575      -35.168       -9.789       21.166       27.453       14.774      447.981      753.658      218.272        0.462        0.071       87.915        4.693        0.003      339.435       12.767      860.203
04/24/2013  21:33:00      -74.923        7.695      -12.538       24.373       29.958       26.902      594.023      897.490      723.692        0.402        0.111       75.317        8.941        0.014      339.782       13.350      860.198
04/24/2013  21:34:00      -55.369       55.714       -5.514       27.118       56.490       24.358      735.409     3191.150      593.314        0.536        0.226       78.548       12.196        0.024      339.840       13.449      860.194
04/24/2013  21:35:00      -72.197       79.590      -15.798       45.630       46.336       25.382     2082.141     2146.995      644.258        0.833        0.244      107.457       24.818        0.053      339.864       13.490      860.196
04/24/2013  21:36:00      -44.377       83.003      -19.983       41.867       48.217       30.356     1752.878     2324.849      921.481        0.713        0.250       94.122       23.053        0.060      339.911       13.570      860.188
04/24/2013  21:37:00      -67.083      104.828      -17.114       38.403       72.966       25.883     1474.753     5323.980      669.905        1.162        0.373      124.455       33.297        0.072      339.959       13.649      860.183
04/24/2013  21:38:00      -31.397      138.963      -21.095       53.041       48.993       31.087     2813.362     2400.275      966.422        1.346        0.309      142.466       22.135        0.024      340.051       13.803      860.179
04/24/2013  21:39:00      -90.940      120.785      -17.361       58.114       68.800       38.024     3377.252     4733.475     1445.836        1.636        0.478      151.192       39.892        0.070      340.023       13.756      860.163
04/24/2013  21:40:00      -52.126      122.620      -14.569       39.812       61.356       28.389     1585.013     3764.556      805.958        1.206        0.308      133.239       29.069        0.048      340.065       13.828      860.161
04/24/2013  21:41:00      -41.730       96.970      -16.056       43.033       37.686       18.754     1851.857     1420.239      351.725        0.751        0.181      105.567       13.465        0.016      340.044       13.794      860.161
04/24/2013  21:42:00      -44.964      121.666       -9.766       47.468       70.312       35.682     2253.202     4943.769     1273.192        1.269        0.424      129.709       32.865        0.064      340.047       13.798      860.159
04/24/2013  21:43:00      -37.641      134.176      -19.882       54.467       44.194       28.312     2966.627     1953.148      801.570        1.277        0.286      139.356       32.450        0.054      340.059       13.818      860.161
04/24/2013  21:44:00      -74.547       90.198      -11.270       56.558       44.701       30.974     3198.831     1998.175      959.411        0.999        0.308      117.017       29.570        0.064      340.063       13.825      860.157
04/24/2013  21:45:00      -52.346       62.012      -13.053       30.056       45.531       15.334      903.344     2073.093      235.144        0.498        0.161       81.152       15.674        0.037      340.023       13.759      860.158
04/24/2013  21:46:00      -52.111       -7.137       -1.707       21.434       23.862       14.092      459.433      569.393      198.590        0.200        0.061       52.597       15.243        0.084      340.029       13.768      860.160
04/24/2013  21:47:00      -15.556       54.696      -10.456       33.444       41.068       19.075     1118.480     1686.596      363.853        0.326        0.158       56.865       19.460        0.117      340.087       13.866      860.155
04/24/2013  21:48:00      -50.126       32.858      -15.124       42.426       42.130       17.817     1799.927     1774.926      317.442        0.386        0.195       59.936       14.434        0.058      340.072       13.840      860.152
04/24/2013  21:49:00      -57.952        1.747       -7.612       23.949       29.033       11.745      573.578      842.944      137.950        0.249        0.078       57.979        9.311        0.026      339.990       13.703      860.147
04/24/2013  21:50:00      -62.335      -27.756        2.499       36.106       25.251       17.559     1303.630      637.620      308.324        0.346        0.112       68.235       15.864        0.054      339.745       13.290      860.144
04/24/2013  21:51:00      -62.315      -25.191       -5.085       34.718       21.781       18.058     1205.310      474.419      326.104        0.327        0.100       67.215       10.097        0.023      339.717       13.242      860.140
04/24/2013  21:52:00      -42.883      -32.690       -6.079       34.612       20.750       15.839     1197.987      430.554      250.867        0.241        0.094       53.922       15.443        0.082      339.668       13.159      860.140
04/24/2013  21:53:00      -65.113      -30.701       -1.482       30.462       18.100       12.886      927.919      327.599      166.050        0.330        0.071       71.988       13.037        0.033      339.667       13.159      860.136
04/24/2013  21:54:00      -22.236      -11.054       -0.557       17.671       19.708       13.059      312.251      388.417      170.532        0.074        0.044       24.832        6.518        0.069      339.567       12.989      860.149
04/24/2013  21:55:00      -11.051      -27.306       -4.659       17.772       13.270       13.289      315.858      176.105      176.597        0.078        0.033       29.458        8.503        0.083      339.604       13.053      860.152
04/24/2013  21:56:00      -14.417      -39.759       15.211       34.101       26.189       18.331     1162.860      685.864      336.039        0.210        0.109       42.293       12.179        0.083      339.466       12.819      860.163
04/24/2013  21:57:00      -33.763      -57.355       -1.920       38.212       39.280       22.346     1460.127     1542.925      499.343        0.397        0.175       66.555       20.875        0.098      339.345       12.615      860.172
04/24/2013  21:58:00      -21.936      -56.187        7.427       39.722       33.500       26.476     1577.856     1122.273      700.954        0.355        0.170       60.317       16.093        0.071      339.325       12.581      860.179
04/24/2013  21:59:00      -25.820      -82.743       -7.232       35.952       53.170       28.904     1292.528     2827.031      835.423        0.626        0.248       86.678       30.396        0.123      339.277       12.501      860.199
04/24/2013  22:00:00      -52.948      -98.278       -4.702       38.638       34.482       22.673     1492.903     1189.001      514.044        0.784        0.160      111.633       17.481        0.025      339.384       12.680      860.212
04/24/2013  22:01:00      -74.763      -88.689       -5.923       41.828       33.812       21.251     1749.559     1143.270      451.591        0.842        0.167      115.997       20.953        0.033      339.341       12.606      860.227
04/24/2013  22:02:00      -50.339      -68.286       -5.448       39.952       27.727       23.963     1596.139      768.760      574.219        0.508        0.147       84.834       19.490        0.053      339.345       12.615      860.236
04/24/2013  22:03:00      -64.863      -85.197       -7.953       41.953       35.113       22.095     1760.047     1232.925      488.184        0.750        0.174      107.078       19.949        0.035      339.304       12.546      860.247
04/24/2013  22:04:00      -79.836      -99.981       -2.956       43.406       47.407       26.122     1884.078     2247.459      682.359        1.060        0.241      127.945       17.880        0.020      339.141       12.271      860.244
04/24/2013  22:05:00      -78.671      -49.388        6.649       67.774       44.024       36.651     4593.338     1938.127     1343.332        0.827        0.394       92.888       35.954        0.150      339.019       12.065      860.244
04/24/2013  22:06:00     -132.484      -88.818       -2.562       54.819       46.365       27.922     3005.092     2149.710      779.644        1.569        0.297      159.502       21.013        0.017      339.041       12.101      860.257
04/24/2013  22:07:00     -113.913      -88.377        3.634       59.337       35.039       23.520     3520.865     1227.765      553.196        1.305        0.265      144.176       24.246        0.028      338.918       11.895      860.279
04/24/2013  22:08:00      -52.885      -58.327       15.828       52.873       35.570       32.133     2795.564     1265.220     1032.503        0.577        0.255       78.733       28.620        0.132      338.862       11.802      860.298
04/24/2013  22:09:00      -80.383      -77.762        4.481       64.858       42.109       33.438     4206.610     1773.199     1118.113        0.981        0.355      111.841       37.485        0.112      338.846       11.774      860.296
04/24/2013  22:10:00      -98.181      -78.694        0.223       47.639       40.288       25.427     2269.456     1623.136      646.554        1.018        0.227      125.826       20.250        0.026      338.868       11.812      860.310
04/24/2013  22:11:00      -90.461      -39.670       -2.556       52.987       32.674       27.082     2807.622     1067.573      733.458        0.719        0.230       98.777       31.563        0.102      338.884       11.839      860.327
04/24/2013  22:12:00     -143.104      -25.677      -27.424       16.383       17.000       11.768      268.391      289.015      138.474        1.129        0.035      145.389       10.316        0.005      338.993       12.023      860.341
04/24/2013  22:13:00     -142.896      -47.966      -12.011       16.427       21.421       10.330      269.832      458.880      106.710        1.185        0.042      150.732        7.788        0.003      338.938       11.929      860.345
04/24/2013  22:14:00     -107.849      -35.113      -11.591       18.660       24.920       17.895      348.201      621.008      320.223        0.714        0.064      113.421        9.498        0.007      338.973       11.989      860.347
04/24/2013  22:15:00     -126.993      -51.395      -14.238       25.307       25.439       16.573      640.448      647.120      274.676        1.027        0.078      136.999       15.963        0.014      338.898       11.862      860.354
04/24/2013  22:16:00      -94.973      -32.943      -10.497       32.146       18.401       16.692     1033.380      338.600      278.617        0.593        0.083      100.524       16.821        0.028      338.888       11.843      860.350
04/24/2013  22:17:00     -104.181      -42.475      -18.355       22.611       22.811       17.648      511.264      520.341      311.464        0.717        0.067      112.507       15.548        0.019      339.004       12.040      860.349
04/24/2013  22:18:00     -100.196      -36.008      -12.736       16.781       22.647       14.902      281.613      512.866      222.075        0.626        0.051      106.470        3.214        0.001      338.981       12.001      860.360
04/24/2013  22:19:00      -78.061      -48.330      -14.919       32.019       18.160       14.099     1025.231      329.794      198.778        0.510        0.078       91.811       14.172        0.024      339.071       12.154      860.356
04/24/2013  22:20:00      -79.174      -36.200      -11.335       17.198       15.755       13.724      295.772      248.219      188.340        0.422        0.037       87.058        8.143        0.009      339.122       12.238      860.357
04/24/2013  22:21:00     -117.218      -32.709      -12.626       19.157       19.415       10.908      366.992      376.956      118.975        0.792        0.043      121.696        9.232        0.006      339.106       12.212      860.368
04/24/2013  22:22:00      -31.062      -19.333        0.302       33.692       18.843       12.250     1135.182      355.058      150.065        0.149        0.082       36.587       16.535        0.204      339.043       12.106      860.376
04/24/2013  22:23:00      -44.058      -37.782       -2.210       17.474       15.316       13.078      305.353      234.566      171.041        0.204        0.036       58.040       11.026        0.036      339.095       12.193      860.384
04/24/2013  22:24:00      -67.861      -39.371       -8.767       16.795       16.121        9.657      282.089      259.902       93.267        0.343        0.032       78.456        1.939        0.001      339.186       12.347      860.391
04/24/2013  22:25:00      -62.796      -39.570       -2.974       34.066       13.585       11.175     1160.524      184.550      124.881        0.349        0.073       74.224       13.905        0.035      339.211       12.387      860.391
04/24/2013  22:26:00      -15.462      -23.252       -3.381       29.911       17.169       10.180      894.658      294.784      103.636        0.104        0.065       27.924        7.463        0.071      339.299       12.536      860.397
04/24/2013  22:27:00      -63.272        4.424       -3.706       27.553       23.436       16.182      759.175      549.262      261.842        0.280        0.079       63.426       10.322        0.026      339.127       12.248      860.406
04/24/2013  22:28:00      -44.365      -15.675       -9.047       13.478       16.006       11.325      181.655      256.194      128.267        0.143        0.028       47.052        8.185        0.030      339.093       12.188      860.408
04/24/2013  22:29:00     -146.703      -42.957       -9.467       53.147       41.935       27.662     2824.560     1758.518      765.159        1.440        0.267      152.863       15.041        0.010      338.879       11.831      860.428
04/24/2013  22:30:00     -148.448      -48.829      -10.748       31.870       39.467       21.903     1015.707     1557.645      479.748        1.379        0.153      156.273       16.732        0.011      338.698       11.527      860.423
04/24/2013  22:31:00     -121.373      -19.736      -12.972       19.879       21.869       15.606      395.181      478.249      243.558        0.820        0.056      122.967       11.933        0.009      338.754       11.621      860.429
04/24/2013  22:32:00     -124.618      -13.204      -11.163       26.780       18.716       16.237      717.180      350.270      263.653        0.858        0.067      125.316       16.040        0.016      338.765       11.638      860.436
04/24/2013  22:33:00     -105.487      -10.674      -15.204       19.568       19.653       11.876      382.926      386.229      141.044        0.619        0.046      106.026        7.919        0.006      338.895       11.857      860.444
04/24/2013  22:34:00     -148.502      -53.376      -17.147       24.878       32.656       14.761      618.906     1066.438      217.895        1.355        0.095      157.803       14.954        0.009      338.925       11.908      860.453
04/24/2013  22:35:00      -81.827      -55.483       -4.339       61.291       30.690       19.459     3756.625      941.854      378.638        0.743        0.254       98.864       23.453        0.056      338.852       11.785      860.440
04/24/2013  22:36:00      -67.976      -50.683        0.800       52.157       30.931       17.924     2720.373      956.744      321.284        0.559        0.200       84.791       24.370        0.083      338.765       11.639      860.453
04/24/2013  22:37:00      -43.399       -4.058       -3.203       42.405       24.141       12.879     1798.198      582.785      165.871        0.223        0.127       43.588       19.502        0.200      338.822       11.734      860.455
04/24/2013  22:38:00     -108.285      -44.646       -9.169       48.155       31.821       20.685     2318.888     1012.550      427.886        0.878        0.188      117.128       14.534        0.015      338.845       11.775      860.455
04/24/2013  22:39:00      -15.646      -31.990       15.585       30.568       22.003       18.131      934.416      484.126      328.723        0.163        0.087       35.611       19.741        0.307      338.696       11.524      860.449
04/24/2013  22:40:00      -99.988      -11.654       -9.496       32.440       23.152       14.480     1052.336      536.009      209.662        0.601        0.090      100.664       17.762        0.031      338.786       11.674      860.453
04/24/2013  22:41:00        3.108      -19.517       33.780       47.288       27.257       25.589     2236.168      742.961      654.771        0.258        0.182       19.763       30.831        2.434      338.659       11.460      860.441
04/24/2013  22:42:00      -17.440        7.312       -2.703       35.248       19.986       12.965     1242.444      399.423      168.095        0.109        0.090       18.911       10.486        0.307      338.828       11.743      860.444
04/24/2013  22:43:00      -39.222      -40.413      -13.589       49.402       29.197        9.734     2440.562      852.487       94.748        0.337        0.169       56.317       12.581        0.050      338.793       11.686      860.451
04/24/2013  22:44:00      -54.666       22.257      -12.931       19.632       13.809        9.645      385.411      190.684       93.023        0.216        0.033       59.024        7.597        0.017      338.777       11.660      860.466
04/24/2013  22:45:00      -86.776       -9.733      -10.818       29.430       19.532       12.002      866.122      381.500      144.054        0.457        0.070       87.320       11.597        0.018      338.840       11.765      860.468
04/24/2013  22:46:00      -92.713       -9.887      -15.038       24.315       39.362       15.269      591.202     1549.389      233.156        0.565        0.119       93.238       12.052        0.017      338.614       11.384      860.480
04/24/2013  22:47:00     -121.123      -20.865      -12.147       44.962       29.325       21.997     2021.615      859.939      483.877        0.931        0.168      122.907       24.722        0.040      339.371       12.660      860.473
04/24/2013  22:48:00      -65.109        2.600       -1.943       38.293       36.186       19.058     1466.369     1309.421      363.220        0.369        0.157       65.161       20.190        0.096      339.181       12.339      860.478
04/24/2013  22:49:00      -78.560       -2.589      -10.659       24.835       23.639       16.901      616.785      558.817      285.647        0.388        0.073       78.602        8.780        0.012      339.365       12.647      860.475
04/24/2013  22:50:00      -37.293      -17.628        3.555       21.663       26.664       20.225      469.268      710.974      409.035        0.165        0.079       41.249       15.402        0.139      339.378       12.671      860.478
04/24/2013  22:51:00      -62.846       10.319      -12.054       33.158       15.145       15.482     1099.434      229.361      239.705        0.288        0.078       63.688       15.931        0.063      339.004       12.040      860.477
04/24/2013  22:52:00       -5.294       26.614        5.912       29.942       12.125       14.081      896.502      147.014      198.275        0.101        0.062       27.135       13.018        0.230      338.960       11.967      860.472
04/24/2013  22:53:00      -50.351      -15.216       -7.074       23.767       19.581       12.640      564.872      383.410      159.776        0.196        0.055       52.600        7.854        0.022      339.141       12.272      860.461
04/24/2013  22:54:00      -45.830      -15.729       -5.180       40.501       22.357       18.892     1640.299      499.854      356.889        0.244        0.125       48.454       16.013        0.109      339.177       12.330      860.451
04/24/2013  22:55:00        6.493       -4.144        2.332       15.235       29.242       11.400      232.104      855.065      129.952        0.064        0.061        7.703       13.367        3.011      339.200       12.370      860.444
04/24/2013  22:56:00       16.898       53.876       -8.502       19.752       22.649       12.459      390.127      512.956      155.221        0.216        0.053       56.464       14.473        0.066      338.981       12.000      860.449
04/24/2013  22:57:00      -26.115       30.820      -12.671       12.799       34.441        6.347      163.813     1186.150       40.280        0.159        0.070       40.396       10.650        0.070      339.167       12.314      860.435
04/24/2013  22:58:00      -22.941      -50.157       -7.766       39.029       16.920       15.166     1523.284      286.273      230.022        0.257        0.102       55.154       11.623        0.044      339.255       12.462      860.421
04/24/2013  22:59:00      -66.927      -30.780       -1.353       33.881       39.921       19.047     1147.911     1593.708      362.802        0.427        0.155       73.665       19.596        0.071      339.286       12.517      860.401
04/24/2013  23:00:00       -2.124      -35.841       -0.246       25.306       23.349       15.465      640.395      545.179      239.154        0.136        0.071       35.904       10.612        0.087      339.228       12.417      860.404
04/24/2013  23:01:00       20.177      -29.349        5.731       23.375       36.684       22.315      546.402     1345.740      497.945        0.185        0.120       35.616       16.830        0.223      339.227       12.414      860.393
04/24/2013  23:02:00       16.690       50.096        2.340       30.914       35.429       23.369      955.657     1255.197      546.118        0.277        0.138       52.803       17.296        0.107      338.797       11.694      860.411
04/24/2013  23:03:00       50.247       42.133       -1.053       29.495       26.141       14.964      869.981      683.328      223.915        0.304        0.089       65.574        8.705        0.018      338.525       11.235      860.423
04/24/2013  23:04:00       10.524      -36.475        0.108       35.180       38.478       29.248     1237.631     1480.556      855.430        0.251        0.179       37.962       15.887        0.175      338.394       11.015      860.406
04/24/2013  23:05:00       -7.099      -43.942       -8.373       24.307       35.728       16.050      590.825     1276.477      257.607        0.209        0.106       44.511       14.358        0.104      338.507       11.206      860.408
04/24/2013  23:06:00      -77.164      -35.141        2.296       72.445       34.704       27.696     5248.301     1204.368      767.064        0.721        0.361       84.789       33.734        0.158      338.637       11.424      860.403
04/24/2013  23:07:00      -35.695      -87.436       29.476       58.466       48.668       34.444     3418.308     2368.551     1186.370        0.838        0.349       94.442       34.792        0.136      338.961       11.969      860.387
04/24/2013  23:08:00      -45.284       51.118        8.982       40.149       45.495       30.473     1611.904     2069.750      928.631        0.468        0.231       68.291       29.366        0.185      338.681       11.497      860.414
04/24/2013  23:09:00      -19.680       88.334      -20.314       32.575       43.299       17.167     1061.103     1874.777      294.689        0.592        0.162       90.500       18.575        0.042      339.086       12.179      860.410
04/24/2013  23:10:00      -14.301       13.986       14.806       22.235       13.613       18.048      494.384      185.323      325.747        0.081        0.050       20.003        6.355        0.101      338.934       11.925      860.391
04/24/2013  23:11:00      -63.752      -25.969       -7.307       16.815       26.706       11.306      282.753      713.190      127.825        0.296        0.056       68.839        4.100        0.004      338.646       11.438      860.383
04/24/2013  23:12:00        7.129      -34.634       -4.753       25.819        7.522        7.964      666.619       56.582       63.423        0.103        0.039       35.360        4.330        0.015      338.607       11.373      860.374
04/24/2013  23:13:00        9.499        6.082       -2.005       28.055       27.913       16.807      787.059      779.134      282.477        0.099        0.092       11.279       17.039        2.282      338.791       11.681      860.380
04/24/2013  23:14:00        3.503        3.059       -2.356        8.355       11.734        7.074       69.809      137.681       50.046        0.014        0.013        4.651        5.946        1.634      338.829       11.747      860.377
04/24/2013  23:15:00      -21.261      -34.449       -8.512       25.638       17.480       10.226      657.305      305.553      104.577        0.139        0.053       40.481        5.284        0.017      338.621       11.397      860.365
04/24/2013  23:16:00       -5.730      -33.783       -4.697       16.190       13.715       10.090      262.116      188.090      101.808        0.087        0.028       34.266        6.842        0.040      338.678       11.492      860.370
04/24/2013  23:17:00       -8.415      -19.548        2.319       14.001        8.614        7.183      196.023       74.198       51.591        0.039        0.016       21.282        3.821        0.032      338.728       11.577      860.358
04/24/2013  23:18:00      -75.503      -21.076       -6.625       17.970       19.274        8.802      322.924      371.484       77.483        0.348        0.039       78.390        7.325        0.009      338.713       11.551      860.360
04/24/2013  23:19:00     -139.487      -71.769       -7.497       23.393       25.576       15.016      547.255      654.118      225.482        1.305        0.071      156.868        8.807        0.003      338.361       10.961      860.367
04/24/2013  23:20:00      -93.805      -66.390       -6.007       29.973       17.111       11.772      898.384      292.773      138.589        0.729        0.066      114.921        4.675        0.002      338.436       11.087      860.378
04/24/2013  23:21:00      -59.162      -81.159       -3.963       20.249       20.869       11.688      410.023      435.506      136.605        0.554        0.049      100.433        7.830        0.006      338.818       11.729      860.395
04/24/2013  23:22:00      -38.243      -38.678       -3.613       19.216       28.851       15.264      369.271      832.385      232.988        0.220        0.072       54.392       16.982        0.097      338.749       11.612      860.399
04/24/2013  23:23:00      -69.811      -28.997       -0.492       29.352       21.132       16.688      861.533      446.541      278.495        0.365        0.079       75.593        5.290        0.005      338.602       11.364      860.413
04/24/2013  23:24:00     -113.163      -55.374       -7.852       41.144       35.695       24.885     1692.819     1274.145      619.248        0.976        0.179      125.984       19.917        0.025      338.436       11.086      860.419
04/24/2013  23:25:00      -83.836      -58.488       -1.753       44.787       28.754       22.322     2005.873      826.806      498.287        0.689        0.167      102.222       20.516        0.040      338.215       10.715      860.431
04/24/2013  23:26:00      -75.921      -37.055       -5.554       53.115       21.734       13.417     2821.246      472.368      180.009        0.532        0.174       84.481       18.945        0.050      338.235       10.748      860.439
04/24/2013  23:27:00      -98.930      -34.195      -13.584       26.848       16.226       11.027      720.838      263.279      121.603        0.612        0.055      104.673       10.863        0.011      338.178       10.653      860.432
04/24/2013  23:28:00     -130.370      -46.973      -22.771       22.911       19.552       11.358      524.894      382.273      129.001        1.038        0.052      138.574        4.365        0.001      338.133       10.579      860.433
04/24/2013  23:29:00      -93.575      -28.975       -0.564       43.840       16.876       17.594     1921.969      284.799      309.541        0.606        0.126       97.958       22.524        0.053      338.057       10.450      860.434
04/24/2013  23:30:00     -106.887      -53.046       -4.874       36.462       26.162       12.351     1329.477      684.429      152.555        0.821        0.108      119.326       10.487        0.008      338.138       10.586      860.436
04/24/2013  23:31:00     -116.202      -57.189      -17.698       20.821       24.669       17.148      433.500      608.572      294.048        0.921        0.067      129.512       12.637        0.010      338.119       10.554      860.444
04/24/2013  23:32:00     -124.415      -32.486      -15.411       16.390       15.825       11.415      268.641      250.430      130.313        0.871        0.032      128.586        9.280        0.005      338.216       10.716      860.453
04/24/2013  23:33:00     -115.499      -20.477      -12.593       19.401       22.397       13.337      376.401      501.637      177.883        0.749        0.053      117.300       11.238        0.009      338.205       10.697      860.470
04/24/2013  23:34:00      -94.480        2.763      -10.617       32.818       21.617       17.893     1077.008      467.286      320.156        0.546        0.093       94.520       19.071        0.041      338.328       10.905      860.476
04/24/2013  23:35:00     -101.468      -18.347      -11.146       35.622       27.938       21.493     1268.907      780.519      461.962        0.663        0.126      103.113       21.371        0.043      338.209       10.706      860.498
04/24/2013  23:36:00      -82.964      -18.442        2.443       31.454       28.493       18.211      989.371      811.855      331.642        0.468        0.107       84.989       13.578        0.026      338.017       10.382      860.495
04/24/2013  23:37:00      -83.706      -31.386      -16.269       16.824       18.988       11.531      283.060      360.547      132.966        0.452        0.039       89.396        5.295        0.004      338.013       10.375      860.504
04/24/2013  23:38:00      -88.990      -17.726      -13.087       33.000       14.813       13.194     1089.023      219.426      174.086        0.494        0.074       90.738        5.643        0.004      338.053       10.444      860.512
04/24/2013  23:39:00      -91.776      -33.975       -4.066       29.875       17.141       14.663      892.491      293.825      215.014        0.550        0.070       97.862       10.942        0.013      337.991       10.340      860.522
04/24/2013  23:40:00      -50.458      -48.871       -4.696       17.248       14.228       11.087      297.486      202.440      122.921        0.279        0.031       70.246        3.117        0.002      338.054       10.444      860.528
04/24/2013  23:41:00      -97.629      -28.036       -9.039       26.091       11.184        7.760      680.733      125.072       60.220        0.563        0.043      101.575        4.180        0.002      338.109       10.536      860.528
04/24/2013  23:42:00      -96.678      -38.119       -5.252       17.960       18.798       11.710      322.558      353.358      137.121        0.582        0.041      103.921       10.608        0.010      337.881       10.155      860.523
04/24/2013  23:43:00     -116.114      -43.089       -1.957       30.368       23.300       16.394      922.237      542.888      268.760        0.854        0.087      123.851       14.220        0.013      337.829       10.067      860.529
04/24/2013  23:44:00      -98.358      -56.197       -2.872       26.356       18.227       12.504      694.664      332.211      156.345        0.701        0.059      113.280       11.363        0.010      337.822       10.055      860.528
04/24/2013  23:45:00      -78.384      -39.111       -1.651       24.018       16.853       14.726      576.853      284.016      216.870        0.438        0.054       87.600       12.597        0.021      337.859       10.117      860.519
04/24/2013  23:46:00     -104.021      -39.600       -8.663       11.648       12.612        9.220      135.681      159.067       85.015        0.642        0.019      111.304        5.683        0.003      337.897       10.183      860.522
04/24/2013  23:47:00      -71.724      -33.191       -3.735       11.086       21.284        7.759      122.900      452.990       60.196        0.345        0.032       79.032        4.563        0.003      337.951       10.272      860.533
04/24/2013  23:48:00      -57.415      -10.241       -4.884       15.535       16.587        9.374      241.322      275.127       87.867        0.201        0.030       58.322        8.818        0.023      338.009       10.370      860.554
04/24/2013  23:49:00      -45.828      -24.858       -8.771       13.116       13.402        8.036      172.032      179.616       64.582        0.161        0.021       52.135        6.278        0.014      337.975       10.311      860.565
04/24/2013  23:50:00      -51.442      -25.697      -14.815       26.887       11.739        8.385      722.929      137.814       70.308        0.223        0.047       57.503        5.124        0.008      337.882       10.157      860.586
04/24/2013  23:51:00        5.630      -28.583        0.000       17.678       13.002       13.240      312.525      169.043      175.307        0.075        0.033       29.132       10.942        0.141      337.954       10.276      860.604
04/24/2013  23:52:00       -8.933       -2.005        6.317       10.418       18.133        9.076      108.542      328.807       82.380        0.032        0.026        9.155       10.355        1.279      338.064       10.462      860.615
04/24/2013  23:53:00       -6.386        3.372        3.885        5.678        6.089        6.466       32.238       37.072       41.807        0.009        0.006        7.222        5.559        0.593      337.912       10.205      860.637
04/24/2013  23:54:00      -37.571      -10.737       -1.436       13.112       13.143        6.546      171.923      172.733       42.849        0.096        0.019       39.075        5.433        0.019      338.056       10.448      860.654
04/24/2013  23:55:00      -40.469      -10.491       -8.277        9.323       10.739        8.560       86.912      115.334       73.282        0.105        0.014       41.806        2.677        0.004      337.812       10.039      860.662
04/24/2013  23:56:00       -3.753      -14.501       -5.770        8.829        9.345        5.301       77.947       87.323       28.101        0.023        0.010       14.979        3.645        0.059      338.000       10.356      860.667
04/24/2013  23:57:00      -21.580      -12.792       -2.837       11.373        6.145       10.608      129.356       37.756      112.529        0.046        0.014       25.086        5.139        0.042      338.189       10.672      860.663
04/24/2013  23:58:00      -62.210      -37.040       -5.031       21.468       13.104       11.139      460.858      171.723      124.088        0.301        0.038       72.402        6.710        0.009      337.785        9.993      860.657
04/24/2013  23:59:00      -75.709      -31.234      -10.793        8.821       12.998        7.664       77.805      168.952       58.732        0.356        0.015       81.899        4.710        0.003      337.651        9.768      860.655
